Time,TemperatureF,DewpointF,PressureIn,WindDirection,WindDirectionDegrees,WindSpeedMPH,WindSpeedGustMPH,Humidity,HourlyPrecipIn,Conditions,Clouds,dailyrainin,SoftwareType,DateUTC
2013-01-09 00:00:00,41.7,41.2,30.19,NNE,23,0.0,0.0,98,0.00,,SKC,0.00,VWS V14.01,2013-01-08 10:00:00,
2013-01-09 00:01:00,41.8,41.3,30.19,NNE,23,0.0,0.0,98,0.00,,SKC,0.00,VWS V14.01,2013-01-08 10:01:00,
2013-01-09 00:02:00,41.9,41.4,30.19,NNE,23,0.0,0.0,98,0.00,,BKN200,0.00,VWS V14.01,2013-01-08 10:02:00,
2013-01-09 00:03:00,41.9,41.4,30.19,NNE,23,0.0,0.0,98,0.00,,SKC,0.00,VWS V14.01,2013-01-08 10:03:00,
2013-01-09 00:04:00,42.0,41.5,30.19,NNE,23,0.0,0.0,98,0.00,,SKC,0.00,VWS V14.01,2013-01-08 10:04:00,
2013-01-09 00:05:00,42.1,41.6,30.20,NNE,23,0.0,0.0,98,0.00,,SKC,0.00,VWS V14.01,2013-01-08 10:05:00,
2013-01-09 00:06:00,42.3,41.8,30.20,NNE,23,0.0,0.0,98,0.00,,SKC,0.00,VWS V14.01,2013-01-08 10:06:00,
2013-01-09 00:07:00,42.4,41.9,30.20,NNE,23,0.0,0.0,98,0.00,,BKN200,0.00,VWS V14.01,2013-01-08 10:07:00,
2013-01-09 00:08:00,42.4,41.9,30.20,NNE,23,0.0,0.0,98,0.00,,SKC,0.00,VWS V14.01,2013-01-08 10:08:00,
2013-01-09 00:09:00,42.5,42.0,30.20,NNE,23,0.0,0.0,98,0.00,,SKC,0.00,VWS V14.01,2013-01-08 10:09:00,
2013-01-09 00:10:00,42.4,41.9,30.19,NNE,23,0.0,0.0,98,0.00,,SKC,0.00,VWS V14.01,2013-01-08 10:10:00,
2013-01-09 00:11:00,42.2,41.7,30.20,NNE,23,0.0,0.0,98,0.00,,SKC,0.00,VWS V14.01,2013-01-08 10:11:00,
2013-01-09 00:12:00,41.8,41.3,30.20,NNE,23,0.0,0.0,98,0.00,,BKN200,0.00,VWS V14.01,2013-01-08 10:12:00,
2013-01-09 00:13:00,41.8,41.3,30.19,NNE,23,0.0,0.0,98,0.00,,SKC,0.00,VWS V14.01,2013-01-08 10:13:00,
2013-01-09 00:14:00,41.6,41.1,30.20,NNE,23,0.0,0.0,98,0.00,,SKC,0.00,VWS V14.01,2013-01-08 10:14:00,
2013-01-09 00:15:00,41.5,41.0,30.20,NNE,23,0.0,0.0,98,0.00,,SKC,0.00,VWS V14.01,2013-01-08 10:15:00,
2013-01-09 00:16:00,41.6,41.1,30.19,NNE,23,0.0,0.0,98,0.00,,SKC,0.00,VWS V14.01,2013-01-08 10:16:00,
2013-01-09 00:17:00,41.6,41.1,30.19,NNE,23,0.0,0.0,98,0.00,,BKN200,0.00,VWS V14.01,2013-01-08 10:17:00,
2013-01-09 00:18:00,41.6,41.1,30.19,NNE,23,0.0,0.0,98,0.00,,SKC,0.00,VWS V14.01,2013-01-08 10:18:00,
2013-01-09 00:19:00,41.5,41.0,30.19,NNE,23,0.0,0.0,98,0.00,,SKC,0.00,VWS V14.01,2013-01-08 10:19:00,
2013-01-09 00:20:00,41.5,41.0,30.19,NNE,23,0.0,0.0,98,0.00,,SKC,0.00,VWS V14.01,2013-01-08 10:20:00,
2013-01-09 00:21:00,41.4,40.9,30.19,NNE,23,0.0,0.0,98,0.00,,SKC,0.00,VWS V14.01,2013-01-08 10:21:00,
2013-01-09 00:22:00,41.1,40.6,30.19,NNE,23,0.0,0.0,98,0.00,,BKN200,0.00,VWS V14.01,2013-01-08 10:22:00,
2013-01-09 00:23:00,41.1,40.6,30.19,NNE,23,0.0,0.0,98,0.00,,SKC,0.00,VWS V14.01,2013-01-08 10:23:00,
2013-01-09 00:24:00,41.1,40.6,30.19,NNE,23,0.0,0.0,98,0.00,,SKC,0.00,VWS V14.01,2013-01-08 10:24:00,
2013-01-09 00:25:00,41.3,40.8,30.19,NNE,23,0.0,0.0,98,0.00,,SKC,0.00,VWS V14.01,2013-01-08 10:25:00,
2013-01-09 00:26:00,41.3,40.8,30.19,NNE,23,0.0,0.0,98,0.00,,SKC,0.00,VWS V14.01,2013-01-08 10:26:00,
2013-01-09 00:27:00,41.2,40.7,30.19,NNE,23,0.0,0.0,98,0.00,,BKN200,0.00,VWS V14.01,2013-01-08 10:27:00,
2013-01-09 00:28:00,41.3,40.8,30.20,NNE,23,0.0,0.0,98,0.00,,SKC,0.00,VWS V14.01,2013-01-08 10:28:00,
2013-01-09 00:29:00,41.1,40.6,30.19,NNE,23,0.0,0.0,98,0.00,,SKC,0.00,VWS V14.01,2013-01-08 10:29:00,
2013-01-09 00:30:00,41.1,40.6,30.20,NNE,23,0.0,0.0,98,0.00,,SKC,0.00,VWS V14.01,2013-01-08 10:30:00,
2013-01-09 00:31:00,40.9,40.4,30.19,NNE,23,0.0,0.0,98,0.00,,SKC,0.00,VWS V14.01,2013-01-08 10:31:00,
2013-01-09 00:32:00,40.7,40.2,30.19,NNE,23,0.0,0.0,98,0.00,,BKN200,0.00,VWS V14.01,2013-01-08 10:32:00,
2013-01-09 00:33:00,40.8,40.3,30.19,NNE,23,0.0,0.0,98,0.00,,SKC,0.00,VWS V14.01,2013-01-08 10:33:00,
2013-01-09 00:34:00,40.8,40.3,30.19,NNE,23,0.0,0.0,98,0.00,,SKC,0.00,VWS V14.01,2013-01-08 10:34:00,
2013-01-09 00:35:00,40.8,40.3,30.19,NNE,23,0.0,0.0,98,0.00,,SKC,0.00,VWS V14.01,2013-01-08 10:35:00,
2013-01-09 00:36:00,40.9,40.4,30.19,NNE,23,0.0,0.0,98,0.00,,SKC,0.00,VWS V14.01,2013-01-08 10:36:00,
2013-01-09 00:37:00,40.8,40.3,30.19,NNE,23,0.0,0.0,98,0.00,,BKN200,0.00,VWS V14.01,2013-01-08 10:37:00,
2013-01-09 00:38:00,40.8,40.3,30.19,NNE,23,0.0,0.0,98,0.00,,SKC,0.00,VWS V14.01,2013-01-08 10:38:00,
2013-01-09 00:39:00,40.8,40.3,30.19,NNE,23,0.0,0.0,98,0.00,,SKC,0.00,VWS V14.01,2013-01-08 10:39:00,
2013-01-09 00:40:00,40.7,40.2,30.19,NNE,23,0.0,0.0,98,0.00,,SKC,0.00,VWS V14.01,2013-01-08 10:40:00,
2013-01-09 00:41:00,40.7,40.2,30.19,NNE,23,0.0,0.0,98,0.00,,SKC,0.00,VWS V14.01,2013-01-08 10:41:00,
2013-01-09 00:42:00,40.7,40.2,30.19,NNE,23,0.0,0.0,98,0.00,,BKN200,0.00,VWS V14.01,2013-01-08 10:42:00,
2013-01-09 00:43:00,40.7,40.2,30.19,NNE,23,0.0,0.0,98,0.00,,SKC,0.00,VWS V14.01,2013-01-08 10:43:00,
2013-01-09 00:44:00,40.6,40.1,30.19,NNE,23,0.0,0.0,98,0.00,,SKC,0.00,VWS V14.01,2013-01-08 10:44:00,
2013-01-09 00:45:00,40.6,40.1,30.19,NNE,22,0.0,0.0,98,0.00,,SKC,0.00,VWS V14.01,2013-01-08 10:45:00,
2013-01-09 00:46:00,40.5,40.0,30.19,NNE,23,0.0,0.0,98,0.00,,SKC,0.00,VWS V14.01,2013-01-08 10:46:00,
2013-01-09 00:47:00,40.5,40.0,30.19,NNE,23,0.0,0.0,98,0.00,,BKN200,0.00,VWS V14.01,2013-01-08 10:47:00,
2013-01-09 00:48:00,40.5,40.0,30.19,NNE,23,0.0,0.0,98,0.00,,SKC,0.00,VWS V14.01,2013-01-08 10:48:00,
2013-01-09 00:49:00,40.5,40.0,30.19,NNE,23,0.0,0.0,98,0.00,,SKC,0.00,VWS V14.01,2013-01-08 10:49:00,
2013-01-09 00:50:00,40.5,40.0,30.19,NNE,23,0.0,0.0,98,0.00,,SKC,0.00,VWS V14.01,2013-01-08 10:50:00,
2013-01-09 00:51:00,40.5,40.0,30.19,NNE,23,0.0,0.0,98,0.00,,SKC,0.00,VWS V14.01,2013-01-08 10:51:00,
2013-01-09 00:52:00,40.5,40.0,30.19,NNE,22,0.0,0.0,98,0.00,,BKN200,0.00,VWS V14.01,2013-01-08 10:52:00,
2013-01-09 00:53:00,40.5,40.0,30.19,NNE,23,0.0,0.0,98,0.00,,SKC,0.00,VWS V14.01,2013-01-08 10:53:00,
2013-01-09 00:54:00,40.5,40.0,30.19,NNE,23,0.0,0.0,98,0.00,,SKC,0.00,VWS V14.01,2013-01-08 10:54:00,
2013-01-09 00:55:00,40.5,40.0,30.19,NNE,23,0.0,0.0,98,0.00,,SKC,0.00,VWS V14.01,2013-01-08 10:55:00,
2013-01-09 00:56:00,40.5,40.0,30.19,NNE,23,0.0,0.0,98,0.00,,SKC,0.00,VWS V14.01,2013-01-08 10:56:00,
2013-01-09 00:57:00,40.6,40.1,30.19,NNE,23,0.0,0.0,98,0.00,,BKN200,0.00,VWS V14.01,2013-01-08 10:57:00,
2013-01-09 00:58:00,40.5,40.0,30.19,NNE,23,0.0,0.0,98,0.00,,SKC,0.00,VWS V14.01,2013-01-08 10:58:00,
2013-01-09 00:59:00,40.5,40.0,30.19,NNE,23,0.0,0.0,98,0.00,,SKC,0.00,VWS V14.01,2013-01-08 10:59:00,
2013-01-09 01:00:00,40.6,40.1,30.19,NNE,23,0.0,0.0,98,0.00,,SKC,0.00,VWS V14.01,2013-01-08 11:00:00,
2013-01-09 01:01:00,40.5,40.0,30.19,NNE,23,0.0,0.0,98,0.00,,SKC,0.00,VWS V14.01,2013-01-08 11:01:00,
2013-01-09 01:02:00,40.5,40.0,30.19,NNE,23,0.0,0.0,98,0.00,,BKN200,0.00,VWS V14.01,2013-01-08 11:02:00,
2013-01-09 01:03:00,40.5,40.0,30.19,NNE,23,0.0,0.0,98,0.00,,SKC,0.00,VWS V14.01,2013-01-08 11:03:00,
2013-01-09 01:04:00,40.5,40.0,30.19,NNE,23,0.0,0.0,98,0.00,,SKC,0.00,VWS V14.01,2013-01-08 11:04:00,
2013-01-09 01:05:00,40.6,40.1,30.19,NNE,23,0.0,0.0,98,0.00,,SKC,0.00,VWS V14.01,2013-01-08 11:05:00,
2013-01-09 01:06:00,40.6,40.1,30.19,NNE,23,0.0,0.0,98,0.00,,SKC,0.00,VWS V14.01,2013-01-08 11:06:00,
2013-01-09 01:07:00,40.7,40.2,30.18,NNE,23,0.0,0.0,98,0.00,,BKN200,0.00,VWS V14.01,2013-01-08 11:07:00,
2013-01-09 01:08:00,40.7,40.2,30.19,NNE,23,0.0,0.0,98,0.00,,SKC,0.00,VWS V14.01,2013-01-08 11:08:00,
2013-01-09 01:09:00,40.8,40.5,30.18,NNE,23,0.0,0.0,99,0.00,,SKC,0.00,VWS V14.01,2013-01-08 11:09:00,
2013-01-09 01:10:00,40.8,40.5,30.18,NNE,23,0.0,0.0,99,0.00,,SKC,0.00,VWS V14.01,2013-01-08 11:10:00,
2013-01-09 01:11:00,40.8,40.5,30.18,NNE,23,0.0,0.0,99,0.00,,SKC,0.00,VWS V14.01,2013-01-08 11:11:00,
2013-01-09 01:12:00,40.6,40.1,30.18,NNE,23,0.0,0.0,98,0.00,,BKN200,0.00,VWS V14.01,2013-01-08 11:12:00,
2013-01-09 01:13:00,40.6,40.1,30.18,NNE,23,0.0,0.0,98,0.00,,SKC,0.00,VWS V14.01,2013-01-08 11:13:00,
2013-01-09 01:14:00,40.5,40.0,30.18,NNE,23,0.0,0.0,98,0.00,,SKC,0.00,VWS V14.01,2013-01-08 11:14:00,
2013-01-09 01:15:00,40.6,40.1,30.18,NNE,23,0.0,0.0,98,0.00,,SKC,0.00,VWS V14.01,2013-01-08 11:15:00,
2013-01-09 01:16:00,40.6,40.1,30.18,NNE,23,0.0,0.0,98,0.00,,SKC,0.00,VWS V14.01,2013-01-08 11:16:00,
2013-01-09 01:17:00,40.6,40.1,30.18,NNE,23,0.0,0.0,98,0.00,,BKN200,0.00,VWS V14.01,2013-01-08 11:17:00,
2013-01-09 01:18:00,40.6,40.1,30.18,NNE,23,0.0,0.0,98,0.00,,SKC,0.00,VWS V14.01,2013-01-08 11:18:00,
2013-01-09 01:19:00,40.6,40.1,30.18,NNE,23,0.0,0.0,98,0.00,,SKC,0.00,VWS V14.01,2013-01-08 11:19:00,
2013-01-09 01:20:00,40.7,40.2,30.18,NNE,23,0.0,0.0,98,0.00,,SKC,0.00,VWS V14.01,2013-01-08 11:20:00,
2013-01-09 01:21:00,40.7,40.4,30.18,NNE,23,0.0,0.0,99,0.00,,SKC,0.00,VWS V14.01,2013-01-08 11:21:00,
2013-01-09 01:22:00,40.6,40.1,30.18,NNE,23,0.0,0.0,98,0.00,,BKN200,0.00,VWS V14.01,2013-01-08 11:22:00,
2013-01-09 01:23:00,40.6,40.1,30.18,NNE,23,0.0,0.0,98,0.00,,SKC,0.00,VWS V14.01,2013-01-08 11:23:00,
2013-01-09 01:24:00,40.5,40.0,30.18,NNE,23,0.0,0.0,98,0.00,,SKC,0.00,VWS V14.01,2013-01-08 11:24:00,
2013-01-09 01:25:00,40.4,39.9,30.18,NNE,23,0.0,0.0,98,0.00,,SKC,0.00,VWS V14.01,2013-01-08 11:25:00,
2013-01-09 01:26:00,40.4,39.9,30.18,NNE,23,0.0,0.0,98,0.00,,SKC,0.00,VWS V14.01,2013-01-08 11:26:00,
2013-01-09 01:27:00,40.3,39.8,30.18,NNE,23,0.0,0.0,98,0.00,,BKN200,0.00,VWS V14.01,2013-01-08 11:27:00,
2013-01-09 01:28:00,40.2,39.7,30.18,NNE,23,0.0,0.0,98,0.00,,SKC,0.00,VWS V14.01,2013-01-08 11:28:00,
2013-01-09 01:29:00,40.2,39.7,30.18,NNE,23,0.0,0.0,98,0.00,,SKC,0.00,VWS V14.01,2013-01-08 11:29:00,
2013-01-09 01:30:00,40.1,39.6,30.18,NNE,23,0.0,0.0,98,0.00,,SKC,0.00,VWS V14.01,2013-01-08 11:30:00,
2013-01-09 01:31:00,40.1,39.6,30.18,NNE,23,0.0,0.0,98,0.00,,SKC,0.00,VWS V14.01,2013-01-08 11:31:00,
2013-01-09 01:32:00,40.0,39.5,30.18,NNE,23,0.0,0.0,98,0.00,,BKN200,0.00,VWS V14.01,2013-01-08 11:32:00,
2013-01-09 01:33:00,40.0,39.5,30.18,NNE,23,0.0,0.0,98,0.00,,SKC,0.00,VWS V14.01,2013-01-08 11:33:00,
2013-01-09 01:34:00,40.0,39.5,30.18,NNE,23,0.0,0.0,98,0.00,,SKC,0.00,VWS V14.01,2013-01-08 11:34:00,
2013-01-09 01:35:00,39.9,39.4,30.18,NNE,23,0.0,0.0,98,0.00,,SKC,0.00,VWS V14.01,2013-01-08 11:35:00,
2013-01-09 01:36:00,39.9,39.4,30.18,NNE,23,0.0,0.0,98,0.00,,SKC,0.00,VWS V14.01,2013-01-08 11:36:00,
2013-01-09 01:37:00,40.0,39.5,30.18,NNE,23,0.0,0.0,98,0.00,,BKN200,0.00,VWS V14.01,2013-01-08 11:37:00,
2013-01-09 01:38:00,40.0,39.5,30.18,NNE,23,0.0,0.0,98,0.00,,SKC,0.00,VWS V14.01,2013-01-08 11:38:00,
2013-01-09 01:39:00,40.0,39.5,30.18,NNE,23,0.0,0.0,98,0.00,,SKC,0.00,VWS V14.01,2013-01-08 11:39:00,
2013-01-09 01:40:00,40.0,39.5,30.18,NNE,23,0.0,0.0,98,0.00,,SKC,0.00,VWS V14.01,2013-01-08 11:40:00,
2013-01-09 01:41:00,40.1,39.6,30.18,NNE,23,0.0,0.0,98,0.00,,SKC,0.00,VWS V14.01,2013-01-08 11:41:00,
2013-01-09 01:42:00,40.1,39.6,30.18,NNE,23,0.0,0.0,98,0.00,,BKN200,0.00,VWS V14.01,2013-01-08 11:42:00,
2013-01-09 01:43:00,40.1,39.6,30.18,NNE,23,0.0,0.0,98,0.00,,SKC,0.00,VWS V14.01,2013-01-08 11:43:00,
2013-01-09 01:44:00,40.1,39.6,30.18,NNE,23,0.0,0.0,98,0.00,,SKC,0.00,VWS V14.01,2013-01-08 11:44:00,
2013-01-09 01:45:00,40.1,39.6,30.18,NNE,23,1.0,1.0,98,0.00,,SKC,0.00,VWS V14.01,2013-01-08 11:45:00,
2013-01-09 01:46:00,40.1,39.6,30.18,NNE,23,0.0,1.0,98,0.00,,SKC,0.00,VWS V14.01,2013-01-08 11:46:00,
2013-01-09 01:47:00,40.2,39.7,30.18,NNE,23,0.0,0.0,98,0.00,,BKN200,0.00,VWS V14.01,2013-01-08 11:47:00,
2013-01-09 01:48:00,40.2,39.7,30.18,NNE,23,0.0,0.0,98,0.00,,SKC,0.00,VWS V14.01,2013-01-08 11:48:00,
2013-01-09 01:49:00,40.3,39.8,30.18,NNE,23,0.0,0.0,98,0.00,,SKC,0.00,VWS V14.01,2013-01-08 11:49:00,
2013-01-09 01:50:00,40.3,40.0,30.18,NNE,23,0.0,0.0,99,0.00,,SKC,0.00,VWS V14.01,2013-01-08 11:50:00,
2013-01-09 01:51:00,40.3,40.0,30.19,NNE,23,0.0,0.0,99,0.00,,SKC,0.00,VWS V14.01,2013-01-08 11:51:00,
2013-01-09 01:52:00,40.2,39.9,30.18,NNE,23,0.0,0.0,99,0.00,,BKN200,0.00,VWS V14.01,2013-01-08 11:52:00,
2013-01-09 01:53:00,40.2,39.9,30.18,NNE,23,0.0,0.0,99,0.00,,SKC,0.00,VWS V14.01,2013-01-08 11:53:00,
2013-01-09 01:54:00,40.2,39.7,30.18,NNE,23,0.0,0.0,98,0.00,,SKC,0.00,VWS V14.01,2013-01-08 11:54:00,
2013-01-09 01:55:00,40.2,39.7,30.18,NNE,23,0.0,0.0,98,0.00,,SKC,0.00,VWS V14.01,2013-01-08 11:55:00,
2013-01-09 01:56:00,40.1,39.6,30.18,NNE,23,0.0,0.0,98,0.00,,SKC,0.00,VWS V14.01,2013-01-08 11:56:00,
2013-01-09 01:57:00,40.2,39.7,30.18,NNE,23,0.0,0.0,98,0.00,,BKN200,0.00,VWS V14.01,2013-01-08 11:57:00,
2013-01-09 01:58:00,40.1,39.6,30.18,NNE,23,0.0,0.0,98,0.00,,SKC,0.00,VWS V14.01,2013-01-08 11:58:00,
2013-01-09 01:59:00,40.2,39.7,30.18,NNE,23,0.0,0.0,98,0.00,,SKC,0.00,VWS V14.01,2013-01-08 11:59:00,
2013-01-09 02:00:00,40.2,39.7,30.19,NNE,23,0.0,0.0,98,0.00,,SKC,0.00,VWS V14.01,2013-01-08 12:00:00,
2013-01-09 02:01:00,40.2,39.7,30.19,NNE,23,0.0,0.0,98,0.00,,SKC,0.00,VWS V14.01,2013-01-08 12:01:00,
2013-01-09 02:02:00,40.4,40.1,30.18,NNE,23,0.0,0.0,99,0.00,,BKN200,0.00,VWS V14.01,2013-01-08 12:02:00,
2013-01-09 02:04:00,40.4,40.1,30.18,NNE,23,0.0,0.0,99,0.00,,SKC,0.00,VWS V14.01,2013-01-08 12:04:00,
2013-01-09 02:05:00,40.6,40.3,30.18,NNE,23,0.0,0.0,99,0.00,,SKC,0.00,VWS V14.01,2013-01-08 12:05:00,
2013-01-09 02:06:00,40.7,40.4,30.18,NNE,23,0.0,0.0,99,0.00,,SKC,0.00,VWS V14.01,2013-01-08 12:06:00,
2013-01-09 02:07:00,40.8,40.5,30.18,NNE,23,0.0,0.0,99,0.00,,BKN200,0.00,VWS V14.01,2013-01-08 12:07:00,
2013-01-09 02:08:00,40.8,40.5,30.18,NNE,23,0.0,0.0,99,0.00,,SKC,0.00,VWS V14.01,2013-01-08 12:08:00,
2013-01-09 02:09:00,40.7,40.4,30.18,NNE,23,0.0,0.0,99,0.00,,SKC,0.00,VWS V14.01,2013-01-08 12:09:00,
2013-01-09 02:10:00,40.5,40.0,30.18,NNE,23,0.0,0.0,98,0.00,,SKC,0.00,VWS V14.01,2013-01-08 12:10:00,
2013-01-09 02:11:00,40.2,39.7,30.18,NNE,23,0.0,0.0,98,0.00,,SKC,0.00,VWS V14.01,2013-01-08 12:11:00,
2013-01-09 02:12:00,40.0,39.5,30.18,NNE,23,0.0,0.0,98,0.00,,BKN200,0.00,VWS V14.01,2013-01-08 12:12:00,
2013-01-09 02:13:00,40.0,39.5,30.18,NNE,23,0.0,0.0,98,0.00,,SKC,0.00,VWS V14.01,2013-01-08 12:13:00,
2013-01-09 02:14:00,39.9,39.4,30.18,NNE,23,0.0,0.0,98,0.00,,SKC,0.00,VWS V14.01,2013-01-08 12:14:00,
2013-01-09 02:15:00,39.7,39.2,30.18,NNE,23,0.0,0.0,98,0.00,,SKC,0.00,VWS V14.01,2013-01-08 12:15:00,
2013-01-09 02:16:00,39.7,39.2,30.18,NNE,23,0.0,0.0,98,0.00,,SKC,0.00,VWS V14.01,2013-01-08 12:16:00,
2013-01-09 02:17:00,39.4,38.9,30.19,NNE,23,0.0,0.0,98,0.00,,BKN200,0.00,VWS V14.01,2013-01-08 12:17:00,
2013-01-09 02:18:00,39.4,38.9,30.19,NNE,23,0.0,0.0,98,0.00,,SKC,0.00,VWS V14.01,2013-01-08 12:18:00,
2013-01-09 02:19:00,39.4,38.9,30.19,NNE,23,0.0,0.0,98,0.00,,SKC,0.00,VWS V14.01,2013-01-08 12:19:00,
2013-01-09 02:20:00,39.3,38.8,30.18,NNE,23,0.0,0.0,98,0.00,,SKC,0.00,VWS V14.01,2013-01-08 12:20:00,
2013-01-09 02:21:00,39.3,38.8,30.18,NNE,23,0.0,0.0,98,0.00,,SKC,0.00,VWS V14.01,2013-01-08 12:21:00,
2013-01-09 02:22:00,39.4,38.9,30.19,NNE,23,0.0,0.0,98,0.00,,BKN200,0.00,VWS V14.01,2013-01-08 12:22:00,
2013-01-09 02:23:00,39.4,38.9,30.19,NNE,23,0.0,0.0,98,0.00,,SKC,0.00,VWS V14.01,2013-01-08 12:23:00,
2013-01-09 02:24:00,39.4,38.9,30.19,NNE,23,0.0,0.0,98,0.00,,SKC,0.00,VWS V14.01,2013-01-08 12:24:00,
2013-01-09 02:25:00,39.5,39.0,30.19,NNE,23,0.0,0.0,98,0.00,,SKC,0.00,VWS V14.01,2013-01-08 12:25:00,
2013-01-09 02:27:00,39.4,38.9,30.19,NNE,23,0.0,0.0,98,0.00,,BKN200,0.00,VWS V14.01,2013-01-08 12:27:00,
2013-01-09 02:29:00,39.5,39.0,30.19,NNE,23,0.0,0.0,98,0.00,,SKC,0.00,VWS V14.01,2013-01-08 12:29:00,
2013-01-09 02:30:00,39.6,39.1,30.19,NNE,23,0.0,0.0,98,0.00,,SKC,0.00,VWS V14.01,2013-01-08 12:30:00,
2013-01-09 02:31:00,39.6,39.1,30.19,NNE,23,0.0,0.0,98,0.00,,SKC,0.00,VWS V14.01,2013-01-08 12:31:00,
2013-01-09 02:32:00,39.6,39.3,30.19,NNE,23,0.0,0.0,99,0.00,,BKN200,0.00,VWS V14.01,2013-01-08 12:32:00,
2013-01-09 02:33:00,39.6,39.3,30.19,NNE,23,0.0,0.0,99,0.00,,SKC,0.00,VWS V14.01,2013-01-08 12:33:00,
2013-01-09 02:34:00,39.7,39.4,30.19,NNE,23,0.0,0.0,99,0.00,,SKC,0.00,VWS V14.01,2013-01-08 12:34:00,
2013-01-09 02:35:00,39.7,39.4,30.19,NNE,23,0.0,0.0,99,0.00,,SKC,0.00,VWS V14.01,2013-01-08 12:35:00,
2013-01-09 02:36:00,39.7,39.4,30.19,NNE,23,0.0,0.0,99,0.00,,SKC,0.00,VWS V14.01,2013-01-08 12:36:00,
2013-01-09 02:37:00,39.5,39.0,30.19,NNE,23,0.0,0.0,98,0.00,,BKN200,0.00,VWS V14.01,2013-01-08 12:37:00,
2013-01-09 02:38:00,39.5,39.0,30.18,NNE,23,0.0,0.0,98,0.00,,SKC,0.00,VWS V14.01,2013-01-08 12:38:00,
2013-01-09 02:39:00,39.3,38.8,30.19,NNE,23,0.0,0.0,98,0.00,,SKC,0.00,VWS V14.01,2013-01-08 12:39:00,
2013-01-09 02:40:00,39.3,38.8,30.19,NNE,23,0.0,0.0,98,0.00,,SKC,0.00,VWS V14.01,2013-01-08 12:40:00,
2013-01-09 02:41:00,39.2,38.7,30.19,NNE,23,0.0,0.0,98,0.00,,SKC,0.00,VWS V14.01,2013-01-08 12:41:00,
2013-01-09 02:42:00,39.2,38.7,30.19,NNE,23,0.0,0.0,98,0.00,,BKN200,0.00,VWS V14.01,2013-01-08 12:42:00,
2013-01-09 02:44:00,39.2,38.7,30.19,NNE,23,0.0,0.0,98,0.00,,SKC,0.00,VWS V14.01,2013-01-08 12:44:00,
2013-01-09 02:46:00,39.1,38.6,30.19,NNE,23,0.0,0.0,98,0.00,,SKC,0.00,VWS V14.01,2013-01-08 12:46:00,
2013-01-09 02:47:00,39.1,38.6,30.19,NNE,23,0.0,0.0,98,0.00,,BKN200,0.00,VWS V14.01,2013-01-08 12:47:00,
2013-01-09 02:48:00,39.1,38.6,30.19,NNE,23,0.0,0.0,98,0.00,,SKC,0.00,VWS V14.01,2013-01-08 12:48:00,
2013-01-09 02:49:00,39.1,38.6,30.19,NNE,23,0.0,0.0,98,0.00,,SKC,0.00,VWS V14.01,2013-01-08 12:49:00,
2013-01-09 02:50:00,39.1,38.6,30.19,NNE,23,0.0,0.0,98,0.00,,SKC,0.00,VWS V14.01,2013-01-08 12:50:00,
2013-01-09 02:51:00,39.0,38.5,30.19,NNE,23,0.0,0.0,98,0.00,,SKC,0.00,VWS V14.01,2013-01-08 12:51:00,
2013-01-09 02:52:00,39.0,38.5,30.19,NNE,23,0.0,1.0,98,0.00,,BKN200,0.00,VWS V14.01,2013-01-08 12:52:00,
2013-01-09 02:53:00,39.0,38.5,30.19,NNE,23,0.0,1.0,98,0.00,,SKC,0.00,VWS V14.01,2013-01-08 12:53:00,
2013-01-09 02:54:00,39.0,38.5,30.19,NNE,23,1.0,1.0,98,0.00,,SKC,0.00,VWS V14.01,2013-01-08 12:54:00,
2013-01-09 02:55:00,38.9,38.4,30.19,NNE,23,0.0,1.0,98,0.00,,SKC,0.00,VWS V14.01,2013-01-08 12:55:00,
2013-01-09 02:56:00,38.9,38.4,30.19,NNE,23,0.0,1.0,98,0.00,,SKC,0.00,VWS V14.01,2013-01-08 12:56:00,
2013-01-09 02:57:00,39.1,38.6,30.19,NNE,23,0.0,0.0,98,0.00,,BKN200,0.00,VWS V14.01,2013-01-08 12:57:00,
2013-01-09 02:58:00,39.1,38.6,30.19,NNE,23,0.0,0.0,98,0.00,,SKC,0.00,VWS V14.01,2013-01-08 12:58:00,
2013-01-09 02:59:00,39.2,38.7,30.19,NNE,23,0.0,0.0,98,0.00,,SKC,0.00,VWS V14.01,2013-01-08 12:59:00,
2013-01-09 03:00:00,39.2,38.7,30.19,NNE,23,0.0,0.0,98,0.00,,SKC,0.00,VWS V14.01,2013-01-08 13:00:00,
2013-01-09 03:01:00,39.1,38.6,30.19,NNE,23,0.0,0.0,98,0.00,,SKC,0.00,VWS V14.01,2013-01-08 13:01:00,
2013-01-09 03:02:00,39.5,39.2,30.19,NNE,23,0.0,0.0,99,0.00,,BKN200,0.00,VWS V14.01,2013-01-08 13:02:00,
2013-01-09 03:03:00,39.4,39.1,30.19,NNE,23,0.0,0.0,99,0.00,,SKC,0.00,VWS V14.01,2013-01-08 13:03:00,
2013-01-09 03:04:00,39.5,39.2,30.19,NNE,23,0.0,0.0,99,0.00,,SKC,0.00,VWS V14.01,2013-01-08 13:04:00,
2013-01-09 03:05:00,39.6,39.3,30.19,NNE,23,0.0,0.0,99,0.00,,SKC,0.00,VWS V14.01,2013-01-08 13:05:00,
2013-01-09 03:06:00,39.5,39.2,30.19,NNE,23,0.0,0.0,99,0.00,,SKC,0.00,VWS V14.01,2013-01-08 13:06:00,
2013-01-09 03:07:00,39.4,39.1,30.19,NNE,23,0.0,0.0,99,0.00,,BKN200,0.00,VWS V14.01,2013-01-08 13:07:00,
2013-01-09 03:08:00,39.4,39.1,30.19,NNE,23,0.0,0.0,99,0.00,,SKC,0.00,VWS V14.01,2013-01-08 13:08:00,
2013-01-09 03:09:00,39.3,39.0,30.19,NNE,23,0.0,0.0,99,0.00,,SKC,0.00,VWS V14.01,2013-01-08 13:09:00,
2013-01-09 03:10:00,39.3,39.0,30.19,NNE,23,0.0,0.0,99,0.00,,SKC,0.00,VWS V14.01,2013-01-08 13:10:00,
2013-01-09 03:11:00,39.2,38.9,30.19,NNE,23,0.0,0.0,99,0.00,,SKC,0.00,VWS V14.01,2013-01-08 13:11:00,
2013-01-09 03:12:00,39.0,38.5,30.19,NNE,23,0.0,0.0,98,0.00,,BKN200,0.00,VWS V14.01,2013-01-08 13:12:00,
2013-01-09 03:13:00,39.0,38.5,30.19,NNE,23,0.0,0.0,98,0.00,,SKC,0.00,VWS V14.01,2013-01-08 13:13:00,
2013-01-09 03:14:00,38.9,38.4,30.19,NNE,23,0.0,0.0,98,0.00,,SKC,0.00,VWS V14.01,2013-01-08 13:14:00,
2013-01-09 03:15:00,38.7,38.2,30.19,NNE,23,0.0,0.0,98,0.00,,SKC,0.00,VWS V14.01,2013-01-08 13:15:00,
2013-01-09 03:16:00,38.7,38.2,30.19,NNE,23,0.0,0.0,98,0.00,,SKC,0.00,VWS V14.01,2013-01-08 13:16:00,
2013-01-09 03:17:00,38.6,38.1,30.18,NNE,23,0.0,0.0,98,0.00,,BKN200,0.00,VWS V14.01,2013-01-08 13:17:00,
2013-01-09 03:18:00,38.6,38.1,30.18,NNE,23,0.0,0.0,98,0.00,,SKC,0.00,VWS V14.01,2013-01-08 13:18:00,
2013-01-09 03:19:00,38.6,38.1,30.19,NNE,23,0.0,0.0,98,0.00,,SKC,0.00,VWS V14.01,2013-01-08 13:19:00,
2013-01-09 03:20:00,38.7,38.2,30.19,NNE,23,0.0,0.0,98,0.00,,SKC,0.00,VWS V14.01,2013-01-08 13:20:00,
2013-01-09 03:21:00,38.7,38.4,30.18,NNE,23,0.0,0.0,99,0.00,,SKC,0.00,VWS V14.01,2013-01-08 13:21:00,
2013-01-09 03:22:00,39.1,38.8,30.19,NNE,23,0.0,0.0,99,0.00,,BKN200,0.00,VWS V14.01,2013-01-08 13:22:00,
2013-01-09 03:23:00,39.1,38.8,30.19,NNE,23,0.0,0.0,99,0.00,,SKC,0.00,VWS V14.01,2013-01-08 13:23:00,
2013-01-09 03:24:00,39.1,38.8,30.18,NNE,23,0.0,0.0,99,0.00,,SKC,0.00,VWS V14.01,2013-01-08 13:24:00,
2013-01-09 03:25:00,39.0,38.7,30.19,NNE,23,0.0,0.0,99,0.00,,SKC,0.00,VWS V14.01,2013-01-08 13:25:00,
2013-01-09 03:26:00,38.9,38.4,30.18,NNE,23,0.0,0.0,98,0.00,,SKC,0.00,VWS V14.01,2013-01-08 13:26:00,
2013-01-09 03:27:00,38.9,38.4,30.19,NNE,23,0.0,0.0,98,0.00,,BKN200,0.00,VWS V14.01,2013-01-08 13:27:00,
2013-01-09 03:28:00,38.9,38.4,30.19,NNE,23,0.0,0.0,98,0.00,,SKC,0.00,VWS V14.01,2013-01-08 13:28:00,
2013-01-09 03:29:00,38.9,38.4,30.19,NNE,23,0.0,0.0,98,0.00,,SKC,0.00,VWS V14.01,2013-01-08 13:29:00,
2013-01-09 03:30:00,38.9,38.4,30.19,NNE,23,0.0,0.0,98,0.00,,SKC,0.00,VWS V14.01,2013-01-08 13:30:00,
2013-01-09 03:31:00,38.9,38.6,30.19,NNE,23,0.0,1.0,99,0.00,,SKC,0.00,VWS V14.01,2013-01-08 13:31:00,
2013-01-09 03:32:00,39.2,38.9,30.19,NNE,23,0.0,0.0,99,0.00,,BKN200,0.00,VWS V14.01,2013-01-08 13:32:00,
2013-01-09 03:33:00,39.2,38.9,30.19,NNE,23,0.0,0.0,99,0.00,,SKC,0.00,VWS V14.01,2013-01-08 13:33:00,
2013-01-09 03:34:00,39.4,39.1,30.19,NNE,23,0.0,0.0,99,0.00,,SKC,0.00,VWS V14.01,2013-01-08 13:34:00,
2013-01-09 03:35:00,39.6,39.3,30.19,NNE,23,0.0,1.0,99,0.00,,SKC,0.00,VWS V14.01,2013-01-08 13:35:00,
2013-01-09 03:36:00,39.8,39.5,30.19,NNE,23,0.0,0.0,99,0.00,,SKC,0.00,VWS V14.01,2013-01-08 13:36:00,
2013-01-09 03:37:00,39.9,39.6,30.19,NNE,23,0.0,0.0,99,0.00,,BKN200,0.00,VWS V14.01,2013-01-08 13:37:00,
2013-01-09 03:38:00,39.9,39.6,30.19,NNE,23,0.0,0.0,99,0.00,,SKC,0.00,VWS V14.01,2013-01-08 13:38:00,
2013-01-09 03:39:00,40.1,39.8,30.19,NNE,23,0.0,0.0,99,0.00,,SKC,0.00,VWS V14.01,2013-01-08 13:39:00,
2013-01-09 03:41:00,40.2,39.9,30.19,NNE,23,0.0,0.0,99,0.00,,SKC,0.00,VWS V14.01,2013-01-08 13:41:00,
2013-01-09 03:42:00,40.3,40.0,30.18,NNE,23,0.0,0.0,99,0.00,,BKN200,0.00,VWS V14.01,2013-01-08 13:42:00,
2013-01-09 03:43:00,40.3,40.0,30.18,NNE,23,0.0,0.0,99,0.00,,SKC,0.00,VWS V14.01,2013-01-08 13:43:00,
2013-01-09 03:45:00,40.4,40.1,30.18,NNE,23,0.0,0.0,99,0.00,,SKC,0.00,VWS V14.01,2013-01-08 13:45:00,
2013-01-09 03:47:00,40.2,39.9,30.18,NNE,23,0.0,0.0,99,0.00,,BKN200,0.00,VWS V14.01,2013-01-08 13:47:00,
2013-01-09 03:48:00,40.2,39.9,30.18,NNE,23,0.0,0.0,99,0.00,,SKC,0.00,VWS V14.01,2013-01-08 13:48:00,
2013-01-09 03:49:00,40.3,40.0,30.18,NNE,23,0.0,0.0,99,0.00,,SKC,0.00,VWS V14.01,2013-01-08 13:49:00,
2013-01-09 03:51:00,40.5,40.2,30.18,NNE,23,0.0,1.0,99,0.00,,SKC,0.00,VWS V14.01,2013-01-08 13:51:00,
2013-01-09 03:52:00,40.6,40.3,30.18,NNE,23,0.0,0.0,99,0.00,,BKN200,0.00,VWS V14.01,2013-01-08 13:52:00,
2013-01-09 03:54:00,40.7,40.4,30.18,NNE,23,0.0,0.0,99,0.00,,SKC,0.00,VWS V14.01,2013-01-08 13:54:00,
2013-01-09 03:55:00,40.9,40.6,30.19,NNE,23,0.0,0.0,99,0.00,,SKC,0.00,VWS V14.01,2013-01-08 13:55:00,
2013-01-09 03:57:00,40.8,40.5,30.19,NNE,23,0.0,0.0,99,0.00,,BKN200,0.00,VWS V14.01,2013-01-08 13:57:00,
2013-01-09 04:01:00,40.4,40.1,30.19,NNE,23,0.0,1.0,99,0.00,,SKC,0.00,VWS V14.01,2013-01-08 14:01:00,
2013-01-09 04:02:00,40.1,39.6,30.19,NNE,23,1.0,1.0,98,0.00,,BKN200,0.00,VWS V14.01,2013-01-08 14:02:00,
2013-01-09 04:04:00,40.0,39.5,30.19,NNE,23,1.0,1.0,98,0.00,,SKC,0.00,VWS V14.01,2013-01-08 14:04:00,
2013-01-09 04:07:00,40.1,39.8,30.19,NNE,23,1.0,1.0,99,0.00,,BKN200,0.00,VWS V14.01,2013-01-08 14:07:00,
2013-01-09 04:09:00,40.2,39.9,30.19,NNE,23,0.0,1.0,99,0.00,,SKC,0.00,VWS V14.01,2013-01-08 14:09:00,
2013-01-09 04:10:00,40.5,40.2,30.19,NNE,23,0.0,1.0,99,0.00,,SKC,0.00,VWS V14.01,2013-01-08 14:10:00,
2013-01-09 04:12:00,41.0,40.7,30.19,NNE,23,0.0,0.0,99,0.00,,BKN200,0.00,VWS V14.01,2013-01-08 14:12:00,
2013-01-09 04:13:00,41.0,40.7,30.19,NNE,23,0.0,0.0,99,0.00,,SKC,0.00,VWS V14.01,2013-01-08 14:13:00,
2013-01-09 04:15:00,41.0,40.7,30.19,NNE,23,0.0,0.0,99,0.00,,SKC,0.00,VWS V14.01,2013-01-08 14:15:00,
2013-01-09 04:16:00,41.0,40.7,30.19,NNE,23,0.0,0.0,99,0.00,,SKC,0.00,VWS V14.01,2013-01-08 14:16:00,
2013-01-09 04:17:00,40.9,40.6,30.19,NNE,23,0.0,0.0,99,0.00,,BKN200,0.00,VWS V14.01,2013-01-08 14:17:00,
2013-01-09 04:20:00,41.1,40.8,30.19,NNE,23,0.0,0.0,99,0.00,,SKC,0.00,VWS V14.01,2013-01-08 14:20:00,
2013-01-09 04:21:00,41.2,40.9,30.19,NNE,23,0.0,0.0,99,0.00,,SKC,0.00,VWS V14.01,2013-01-08 14:21:00,
2013-01-09 04:22:00,41.3,41.0,30.19,NNE,23,0.0,0.0,99,0.00,,BKN200,0.00,VWS V14.01,2013-01-08 14:22:00,
2013-01-09 04:24:00,41.0,40.7,30.19,NNE,23,0.0,0.0,99,0.00,,SKC,0.00,VWS V14.01,2013-01-08 14:24:00,
2013-01-09 04:26:00,40.4,40.1,30.19,NNE,23,0.0,0.0,99,0.00,,SKC,0.00,VWS V14.01,2013-01-08 14:26:00,
2013-01-09 04:27:00,39.8,39.3,30.19,NNE,23,0.0,0.0,98,0.00,,BKN200,0.00,VWS V14.01,2013-01-08 14:27:00,
2013-01-09 04:28:00,39.8,39.3,30.19,NNE,23,0.0,0.0,98,0.00,,SKC,0.00,VWS V14.01,2013-01-08 14:28:00,
2013-01-09 04:29:00,39.7,39.2,30.19,NNE,23,0.0,0.0,98,0.00,,SKC,0.00,VWS V14.01,2013-01-08 14:29:00,
2013-01-09 04:30:00,39.7,39.2,30.19,NNE,23,0.0,0.0,98,0.00,,SKC,0.00,VWS V14.01,2013-01-08 14:30:00,
2013-01-09 04:31:00,39.8,39.5,30.19,NNE,23,0.0,0.0,99,0.00,,SKC,0.00,VWS V14.01,2013-01-08 14:31:00,
2013-01-09 04:32:00,40.1,39.8,30.19,NNE,23,0.0,0.0,99,0.00,,BKN200,0.00,VWS V14.01,2013-01-08 14:32:00,
2013-01-09 04:33:00,40.1,39.8,30.19,NNE,23,0.0,0.0,99,0.00,,SKC,0.00,VWS V14.01,2013-01-08 14:33:00,
2013-01-09 04:35:00,40.4,40.1,30.19,NNE,23,0.0,0.0,99,0.00,,SKC,0.00,VWS V14.01,2013-01-08 14:35:00,
2013-01-09 04:36:00,40.6,40.3,30.19,NNE,23,0.0,0.0,99,0.00,,SKC,0.00,VWS V14.01,2013-01-08 14:36:00,
2013-01-09 04:37:00,40.8,40.5,30.19,NNE,23,0.0,0.0,99,0.00,,BKN200,0.00,VWS V14.01,2013-01-08 14:37:00,
2013-01-09 04:38:00,40.8,40.5,30.19,NNE,23,0.0,0.0,99,0.00,,SKC,0.00,VWS V14.01,2013-01-08 14:38:00,
2013-01-09 04:39:00,40.8,40.5,30.19,NNE,23,0.0,0.0,99,0.00,,SKC,0.00,VWS V14.01,2013-01-08 14:39:00,
2013-01-09 04:40:00,40.7,40.4,30.19,NNE,23,0.0,0.0,99,0.00,,SKC,0.00,VWS V14.01,2013-01-08 14:40:00,
2013-01-09 04:42:00,40.3,40.0,30.20,NNE,23,0.0,1.0,99,0.00,,BKN200,0.00,VWS V14.01,2013-01-08 14:42:00,
2013-01-09 04:43:00,40.3,40.0,30.20,NNE,23,0.0,1.0,99,0.00,,SKC,0.00,VWS V14.01,2013-01-08 14:43:00,
2013-01-09 04:44:00,40.5,40.2,30.20,NNE,23,0.0,1.0,99,0.00,,SKC,0.00,VWS V14.01,2013-01-08 14:44:00,
2013-01-09 04:45:00,40.8,40.5,30.20,NNE,23,0.0,0.0,99,0.00,,SKC,0.00,VWS V14.01,2013-01-08 14:45:00,
2013-01-09 04:46:00,40.7,40.4,30.20,NNE,23,0.0,0.0,99,0.00,,SKC,0.00,VWS V14.01,2013-01-08 14:46:00,
2013-01-09 04:47:00,40.7,40.4,30.20,NNE,23,0.0,0.0,99,0.00,,BKN200,0.00,VWS V14.01,2013-01-08 14:47:00,
2013-01-09 04:48:00,40.8,40.5,30.20,NNE,23,0.0,0.0,99,0.00,,SKC,0.00,VWS V14.01,2013-01-08 14:48:00,
2013-01-09 04:49:00,40.9,40.6,30.20,NNE,23,0.0,0.0,99,0.00,,SKC,0.00,VWS V14.01,2013-01-08 14:49:00,
2013-01-09 04:50:00,40.8,40.5,30.20,NNE,23,0.0,0.0,99,0.00,,SKC,0.00,VWS V14.01,2013-01-08 14:50:00,
2013-01-09 04:51:00,40.7,40.4,30.20,NNE,23,0.0,0.0,99,0.00,,SKC,0.00,VWS V14.01,2013-01-08 14:51:00,
2013-01-09 04:52:00,40.3,40.0,30.20,NNE,23,0.0,0.0,99,0.00,,BKN200,0.00,VWS V14.01,2013-01-08 14:52:00,
2013-01-09 04:53:00,40.3,40.0,30.20,NNE,23,0.0,0.0,99,0.00,,SKC,0.00,VWS V14.01,2013-01-08 14:53:00,
2013-01-09 04:54:00,40.1,39.8,30.20,NNE,23,0.0,0.0,99,0.00,,SKC,0.00,VWS V14.01,2013-01-08 14:54:00,
2013-01-09 04:55:00,40.1,39.8,30.20,NNE,23,0.0,0.0,99,0.00,,SKC,0.00,VWS V14.01,2013-01-08 14:55:00,
2013-01-09 04:56:00,40.1,39.8,30.20,NNE,23,0.0,0.0,99,0.00,,SKC,0.00,VWS V14.01,2013-01-08 14:56:00,
2013-01-09 04:57:00,40.1,39.8,30.20,NNE,23,0.0,0.0,99,0.00,,BKN200,0.00,VWS V14.01,2013-01-08 14:57:00,
2013-01-09 04:58:00,40.1,39.8,30.20,NNE,23,0.0,0.0,99,0.00,,SKC,0.00,VWS V14.01,2013-01-08 14:58:00,
2013-01-09 04:59:00,39.8,39.5,30.20,NNE,23,0.0,0.0,99,0.00,,SKC,0.00,VWS V14.01,2013-01-08 14:59:00,
2013-01-09 05:00:00,39.7,39.4,30.20,NNE,23,0.0,0.0,99,0.00,,SKC,0.00,VWS V14.01,2013-01-08 15:00:00,
2013-01-09 05:02:00,39.3,39.0,30.20,NNE,23,0.0,0.0,99,0.00,,,0.00,VWS V14.01,2013-01-08 15:02:00,
2013-01-09 05:04:00,39.1,38.6,30.20,NNE,23,0.0,0.0,98,0.00,,SKC,0.00,VWS V14.01,2013-01-08 15:04:00,
2013-01-09 05:05:00,39.0,38.5,30.20,NNE,23,0.0,0.0,98,0.00,,SKC,0.00,VWS V14.01,2013-01-08 15:05:00,
2013-01-09 05:06:00,39.0,38.5,30.20,NNE,23,0.0,0.0,98,0.00,,SKC,0.00,VWS V14.01,2013-01-08 15:06:00,
2013-01-09 05:07:00,39.1,38.6,30.20,NNE,23,0.0,0.0,98,0.00,,,0.00,VWS V14.01,2013-01-08 15:07:00,
2013-01-09 05:08:00,39.2,38.7,30.20,NNE,23,0.0,0.0,98,0.00,,SKC,0.00,VWS V14.01,2013-01-08 15:08:00,
2013-01-09 05:09:00,39.3,39.0,30.20,NNE,23,0.0,0.0,99,0.00,,SKC,0.00,VWS V14.01,2013-01-08 15:09:00,
2013-01-09 05:10:00,39.3,39.0,30.20,NNE,23,0.0,0.0,99,0.00,,SKC,0.00,VWS V14.01,2013-01-08 15:10:00,
2013-01-09 05:11:00,39.2,38.9,30.20,NNE,23,0.0,0.0,99,0.00,,SKC,0.00,VWS V14.01,2013-01-08 15:11:00,
2013-01-09 05:12:00,39.0,38.7,30.20,NNE,23,0.0,0.0,99,0.00,,,0.00,VWS V14.01,2013-01-08 15:12:00,
2013-01-09 05:13:00,39.0,38.7,30.20,NNE,23,0.0,0.0,99,0.00,,SKC,0.00,VWS V14.01,2013-01-08 15:13:00,
2013-01-09 05:14:00,38.9,38.6,30.20,NNE,23,0.0,0.0,99,0.00,,SKC,0.00,VWS V14.01,2013-01-08 15:14:00,
2013-01-09 05:15:00,38.9,38.6,30.20,NNE,23,0.0,0.0,99,0.00,,SKC,0.00,VWS V14.01,2013-01-08 15:15:00,
2013-01-09 05:16:00,38.8,38.5,30.20,NNE,23,0.0,0.0,99,0.00,,,0.00,VWS V14.01,2013-01-08 15:16:00,
2013-01-09 05:17:00,38.8,38.5,30.20,NNE,23,0.0,0.0,99,0.00,,SKC,0.00,VWS V14.01,2013-01-08 15:17:00,
2013-01-09 05:18:00,38.8,38.5,30.20,NNE,23,0.0,0.0,99,0.00,,SKC,0.00,VWS V14.01,2013-01-08 15:18:00,
2013-01-09 05:19:00,38.8,38.5,30.20,NNE,23,0.0,0.0,99,0.00,,SKC,0.00,VWS V14.01,2013-01-08 15:19:00,
2013-01-09 05:20:00,39.0,38.7,30.20,NNE,23,0.0,0.0,99,0.00,,SKC,0.00,VWS V14.01,2013-01-08 15:20:00,
2013-01-09 05:21:00,39.4,39.1,30.21,NNE,23,0.0,0.0,99,0.00,,,0.00,VWS V14.01,2013-01-08 15:21:00,
2013-01-09 05:22:00,39.3,39.0,30.21,NNE,23,0.0,0.0,99,0.00,,SKC,0.00,VWS V14.01,2013-01-08 15:22:00,
2013-01-09 05:23:00,39.4,39.1,30.21,NNE,23,0.0,0.0,99,0.00,,SKC,0.00,VWS V14.01,2013-01-08 15:23:00,
2013-01-09 05:24:00,39.5,39.2,30.20,NNE,23,0.0,0.0,99,0.00,,SKC,0.00,VWS V14.01,2013-01-08 15:24:00,
2013-01-09 05:25:00,39.7,39.4,30.20,NNE,23,0.0,0.0,99,0.00,,SKC,0.00,VWS V14.01,2013-01-08 15:25:00,
2013-01-09 05:26:00,39.6,39.3,30.20,NNE,23,0.0,0.0,99,0.00,,,0.00,VWS V14.01,2013-01-08 15:26:00,
2013-01-09 05:27:00,39.6,39.3,30.20,NNE,23,0.0,0.0,99,0.00,,SKC,0.00,VWS V14.01,2013-01-08 15:27:00,
2013-01-09 05:28:00,39.6,39.3,30.20,NNE,23,0.0,0.0,99,0.00,,SKC,0.00,VWS V14.01,2013-01-08 15:28:00,
2013-01-09 05:29:00,39.5,39.2,30.20,NNE,23,0.0,0.0,99,0.00,,SKC,0.00,VWS V14.01,2013-01-08 15:29:00,
2013-01-09 05:30:00,39.4,39.1,30.20,NNE,23,0.0,0.0,99,0.00,,SKC,0.00,VWS V14.01,2013-01-08 15:30:00,
2013-01-09 05:31:00,39.2,38.9,30.21,NNE,23,0.0,0.0,99,0.00,,,0.00,VWS V14.01,2013-01-08 15:31:00,
2013-01-09 05:33:00,39.2,38.9,30.21,NNE,23,0.0,0.0,99,0.00,,SKC,0.00,VWS V14.01,2013-01-08 15:33:00,
2013-01-09 05:34:00,39.2,38.9,30.21,NNE,23,0.0,0.0,99,0.00,,SKC,0.00,VWS V14.01,2013-01-08 15:34:00,
2013-01-09 05:35:00,39.1,38.8,30.21,NNE,23,0.0,0.0,99,0.00,,SKC,0.00,VWS V14.01,2013-01-08 15:35:00,
2013-01-09 05:36:00,38.9,38.6,30.21,NNE,23,0.0,0.0,99,0.00,,,0.00,VWS V14.01,2013-01-08 15:36:00,
2013-01-09 05:37:00,38.9,38.6,30.20,NNE,23,0.0,0.0,99,0.00,,SKC,0.00,VWS V14.01,2013-01-08 15:37:00,
2013-01-09 05:38:00,38.9,38.6,30.21,NNE,23,0.0,0.0,99,0.00,,SKC,0.00,VWS V14.01,2013-01-08 15:38:00,
2013-01-09 05:39:00,39.1,38.8,30.21,NNE,23,0.0,0.0,99,0.00,,SKC,0.00,VWS V14.01,2013-01-08 15:39:00,
2013-01-09 05:40:00,39.1,38.8,30.21,NNE,23,0.0,0.0,99,0.00,,SKC,0.00,VWS V14.01,2013-01-08 15:40:00,
2013-01-09 05:41:00,39.1,38.8,30.21,NNE,23,0.0,0.0,99,0.00,,,0.00,VWS V14.01,2013-01-08 15:41:00,
2013-01-09 05:42:00,39.1,38.8,30.21,NNE,23,0.0,0.0,99,0.00,,SKC,0.00,VWS V14.01,2013-01-08 15:42:00,
2013-01-09 05:43:00,39.1,38.8,30.21,NNE,23,0.0,0.0,99,0.00,,SKC,0.00,VWS V14.01,2013-01-08 15:43:00,
2013-01-09 05:44:00,39.0,38.7,30.21,NNE,23,0.0,0.0,99,0.00,,SKC,0.00,VWS V14.01,2013-01-08 15:44:00,
2013-01-09 05:45:00,39.1,38.8,30.21,NNE,23,0.0,0.0,99,0.00,,SKC,0.00,VWS V14.01,2013-01-08 15:45:00,
2013-01-09 05:46:00,39.3,39.0,30.21,NNE,23,0.0,0.0,99,0.00,,SKC,0.00,VWS V14.01,2013-01-08 15:46:00,
2013-01-09 05:47:00,39.4,39.1,30.21,NNE,23,0.0,0.0,99,0.00,,,0.00,VWS V14.01,2013-01-08 15:47:00,
2013-01-09 05:48:00,39.4,39.1,30.21,NNE,23,0.0,0.0,99,0.00,,SKC,0.00,VWS V14.01,2013-01-08 15:48:00,
2013-01-09 05:49:00,39.5,39.2,30.21,NNE,23,0.0,0.0,99,0.00,,SKC,0.00,VWS V14.01,2013-01-08 15:49:00,
2013-01-09 05:50:00,39.7,39.4,30.21,NNE,23,0.0,0.0,99,0.00,,SKC,0.00,VWS V14.01,2013-01-08 15:50:00,
2013-01-09 05:51:00,39.6,39.3,30.21,NNE,23,0.0,0.0,99,0.00,,SKC,0.00,VWS V14.01,2013-01-08 15:51:00,
2013-01-09 05:52:00,39.6,39.3,30.21,NNE,23,0.0,0.0,99,0.00,,,0.00,VWS V14.01,2013-01-08 15:52:00,
2013-01-09 05:53:00,39.6,39.3,30.21,NNE,23,0.0,0.0,99,0.00,,SKC,0.00,VWS V14.01,2013-01-08 15:53:00,
2013-01-09 05:54:00,39.6,39.3,30.21,NNE,23,0.0,0.0,99,0.00,,SKC,0.00,VWS V14.01,2013-01-08 15:54:00,
2013-01-09 05:55:00,39.6,39.3,30.21,NNE,23,0.0,0.0,99,0.00,,SKC,0.00,VWS V14.01,2013-01-08 15:55:00,
2013-01-09 05:56:00,39.4,39.1,30.21,NNE,23,0.0,0.0,99,0.00,,,0.00,VWS V14.01,2013-01-08 15:56:00,
2013-01-09 05:57:00,39.5,39.2,30.21,NNE,23,0.0,0.0,99,0.00,,SKC,0.00,VWS V14.01,2013-01-08 15:57:00,
2013-01-09 05:58:00,39.4,39.1,30.21,NNE,23,0.0,0.0,99,0.00,,SKC,0.00,VWS V14.01,2013-01-08 15:58:00,
2013-01-09 05:59:00,39.4,39.1,30.21,NNE,23,0.0,0.0,99,0.00,,SKC,0.00,VWS V14.01,2013-01-08 15:59:00,
2013-01-09 06:00:00,39.6,39.3,30.22,NNE,23,0.0,0.0,99,0.00,,SKC,0.00,VWS V14.01,2013-01-08 16:00:00,
2013-01-09 06:01:00,40.0,39.7,30.22,NNE,23,0.0,0.0,99,0.00,,,0.00,VWS V14.01,2013-01-08 16:01:00,
2013-01-09 06:02:00,39.9,39.6,30.22,NNE,23,0.0,0.0,99,0.00,,SKC,0.00,VWS V14.01,2013-01-08 16:02:00,
2013-01-09 06:03:00,39.9,39.6,30.22,NNE,23,0.0,0.0,99,0.00,,SKC,0.00,VWS V14.01,2013-01-08 16:03:00,
2013-01-09 06:04:00,39.8,39.5,30.22,NNE,23,0.0,0.0,99,0.00,,SKC,0.00,VWS V14.01,2013-01-08 16:04:00,
2013-01-09 06:05:00,39.8,39.5,30.22,NNE,23,0.0,0.0,99,0.00,,SKC,0.00,VWS V14.01,2013-01-08 16:05:00,
2013-01-09 06:06:00,39.9,39.6,30.22,NNE,23,1.0,1.0,99,0.00,,,0.00,VWS V14.01,2013-01-08 16:06:00,
2013-01-09 06:07:00,40.0,39.7,30.22,NNE,23,0.0,0.0,99,0.00,,SKC,0.00,VWS V14.01,2013-01-08 16:07:00,
2013-01-09 06:08:00,39.9,39.6,30.22,NNE,23,0.0,1.0,99,0.00,,SKC,0.00,VWS V14.01,2013-01-08 16:08:00,
2013-01-09 06:09:00,39.9,39.6,30.22,NNE,23,0.0,1.0,99,0.00,,SKC,0.00,VWS V14.01,2013-01-08 16:09:00,
2013-01-09 06:10:00,39.8,39.5,30.22,NNE,23,0.0,0.0,99,0.00,,SKC,0.00,VWS V14.01,2013-01-08 16:10:00,
2013-01-09 06:11:00,39.8,39.5,30.22,NNE,23,0.0,1.0,99,0.00,,,0.00,VWS V14.01,2013-01-08 16:11:00,
2013-01-09 06:12:00,39.8,39.5,30.22,NNE,23,0.0,1.0,99,0.00,,SKC,0.00,VWS V14.01,2013-01-08 16:12:00,
2013-01-09 06:13:00,39.8,39.5,30.22,NNE,23,0.0,1.0,99,0.00,,SKC,0.00,VWS V14.01,2013-01-08 16:13:00,
2013-01-09 06:14:00,40.1,39.8,30.22,NNE,23,0.0,1.0,99,0.00,,SKC,0.00,VWS V14.01,2013-01-08 16:14:00,
2013-01-09 06:15:00,40.3,40.0,30.22,NNE,23,0.0,0.0,99,0.00,,SKC,0.00,VWS V14.01,2013-01-08 16:15:00,
2013-01-09 06:16:00,40.7,40.4,30.23,NNE,23,0.0,0.0,99,0.00,,,0.00,VWS V14.01,2013-01-08 16:16:00,
2013-01-09 06:17:00,40.6,40.3,30.22,NNE,23,0.0,1.0,99,0.00,,SKC,0.00,VWS V14.01,2013-01-08 16:17:00,
2013-01-09 06:18:00,40.7,40.4,30.23,NNE,23,0.0,0.0,99,0.00,,SKC,0.00,VWS V14.01,2013-01-08 16:18:00,
2013-01-09 06:19:00,40.9,40.6,30.23,NNE,23,0.0,0.0,99,0.00,,SKC,0.00,VWS V14.01,2013-01-08 16:19:00,
2013-01-09 06:20:00,41.1,40.8,30.23,NNE,23,0.0,0.0,99,0.00,,SKC,0.00,VWS V14.01,2013-01-08 16:20:00,
2013-01-09 06:21:00,41.3,41.0,30.23,NNE,23,0.0,0.0,99,0.00,,SKC,0.00,VWS V14.01,2013-01-08 16:21:00,
2013-01-09 06:22:00,41.5,41.2,30.23,NNE,23,0.0,0.0,99,0.00,,,0.00,VWS V14.01,2013-01-08 16:22:00,
2013-01-09 06:23:00,41.5,41.2,30.23,NNE,23,0.0,0.0,99,0.00,,SKC,0.00,VWS V14.01,2013-01-08 16:23:00,
2013-01-09 06:24:00,41.5,41.2,30.24,NNE,23,0.0,0.0,99,0.00,,SKC,0.00,VWS V14.01,2013-01-08 16:24:00,
2013-01-09 06:25:00,41.5,41.2,30.24,NNE,23,0.0,0.0,99,0.00,,SKC,0.00,VWS V14.01,2013-01-08 16:25:00,
2013-01-09 06:26:00,41.6,41.3,30.24,NNE,23,0.0,0.0,99,0.00,,SKC,0.00,VWS V14.01,2013-01-08 16:26:00,
2013-01-09 06:27:00,41.9,41.6,30.23,NNE,23,0.0,0.0,99,0.00,,,0.00,VWS V14.01,2013-01-08 16:27:00,
2013-01-09 06:28:00,41.9,41.6,30.23,NNE,23,0.0,0.0,99,0.00,,SKC,0.00,VWS V14.01,2013-01-08 16:28:00,
2013-01-09 06:29:00,42.0,41.7,30.23,NNE,23,0.0,0.0,99,0.00,,SKC,0.00,VWS V14.01,2013-01-08 16:29:00,
2013-01-09 06:30:00,42.0,41.7,30.23,NNE,23,0.0,0.0,99,0.00,,SKC,0.00,VWS V14.01,2013-01-08 16:30:00,
2013-01-09 06:31:00,42.1,41.8,30.23,NNE,23,0.0,0.0,99,0.00,,SKC,0.00,VWS V14.01,2013-01-08 16:31:00,
2013-01-09 06:32:00,42.3,42.0,30.23,NNE,23,0.0,0.0,99,0.00,,,0.00,VWS V14.01,2013-01-08 16:32:00,
2013-01-09 06:33:00,42.3,42.0,30.23,NNE,23,0.0,0.0,99,0.00,,SKC,0.00,VWS V14.01,2013-01-08 16:33:00,
2013-01-09 06:34:00,42.3,42.0,30.23,NNE,23,0.0,0.0,99,0.00,,SKC,0.00,VWS V14.01,2013-01-08 16:34:00,
2013-01-09 06:35:00,42.3,42.0,30.23,NNE,23,0.0,0.0,99,0.00,,SKC,0.00,VWS V14.01,2013-01-08 16:35:00,
2013-01-09 06:36:00,42.5,42.2,30.23,NNE,23,0.0,1.0,99,0.00,,,0.00,VWS V14.01,2013-01-08 16:36:00,
2013-01-09 06:37:00,42.4,42.1,30.23,NNE,23,0.0,0.0,99,0.00,,SKC,0.00,VWS V14.01,2013-01-08 16:37:00,
2013-01-09 06:38:00,42.5,42.2,30.23,NNE,23,0.0,1.0,99,0.00,,SKC,0.00,VWS V14.01,2013-01-08 16:38:00,
2013-01-09 06:39:00,42.5,42.2,30.23,NNE,23,0.0,0.0,99,0.00,,SKC,0.00,VWS V14.01,2013-01-08 16:39:00,
2013-01-09 06:40:00,42.5,42.2,30.23,NNE,23,0.0,0.0,99,0.00,,SKC,0.00,VWS V14.01,2013-01-08 16:40:00,
2013-01-09 06:41:00,42.4,42.1,30.24,NNE,23,0.0,0.0,99,0.00,,,0.00,VWS V14.01,2013-01-08 16:41:00,
2013-01-09 06:42:00,42.5,42.2,30.24,NNE,23,0.0,0.0,99,0.00,,SKC,0.00,VWS V14.01,2013-01-08 16:42:00,
2013-01-09 06:43:00,42.4,42.1,30.24,NNE,23,0.0,0.0,99,0.00,,SKC,0.00,VWS V14.01,2013-01-08 16:43:00,
2013-01-09 06:44:00,42.3,42.0,30.24,NNE,23,0.0,0.0,99,0.00,,SKC,0.00,VWS V14.01,2013-01-08 16:44:00,
2013-01-09 06:45:00,42.4,42.1,30.24,NNE,23,0.0,0.0,99,0.00,,SKC,0.00,VWS V14.01,2013-01-08 16:45:00,
2013-01-09 06:46:00,42.5,42.2,30.23,NNE,23,0.0,0.0,99,0.00,,,0.00,VWS V14.01,2013-01-08 16:46:00,
2013-01-09 06:47:00,42.4,42.1,30.23,NNE,23,0.0,0.0,99,0.00,,SKC,0.00,VWS V14.01,2013-01-08 16:47:00,
2013-01-09 06:48:00,42.6,42.3,30.23,NNE,23,0.0,0.0,99,0.00,,SKC,0.00,VWS V14.01,2013-01-08 16:48:00,
2013-01-09 06:49:00,42.7,42.4,30.23,NNE,23,0.0,0.0,99,0.00,,SKC,0.00,VWS V14.01,2013-01-08 16:49:00,
2013-01-09 06:50:00,42.8,42.5,30.23,NNE,23,0.0,0.0,99,0.00,,SKC,0.00,VWS V14.01,2013-01-08 16:50:00,
2013-01-09 06:51:00,43.3,43.0,30.23,NNE,23,0.0,0.0,99,0.00,,,0.00,VWS V14.01,2013-01-08 16:51:00,
2013-01-09 06:52:00,43.2,42.9,30.23,NNE,23,0.0,0.0,99,0.00,,SKC,0.00,VWS V14.01,2013-01-08 16:52:00,
2013-01-09 06:53:00,43.3,43.0,30.23,NNE,23,0.0,0.0,99,0.00,,SKC,0.00,VWS V14.01,2013-01-08 16:53:00,
2013-01-09 06:54:00,43.5,43.2,30.23,NNE,23,1.0,1.0,99,0.00,,SKC,0.00,VWS V14.01,2013-01-08 16:54:00,
2013-01-09 06:55:00,43.6,43.3,30.23,NNE,23,0.0,1.0,99,0.00,,SKC,0.00,VWS V14.01,2013-01-08 16:55:00,
2013-01-09 06:56:00,44.0,43.7,30.23,NNE,23,1.0,1.0,99,0.00,,,0.00,VWS V14.01,2013-01-08 16:56:00,
2013-01-09 06:57:00,44.0,43.7,30.23,NNE,23,0.0,1.0,99,0.00,,SKC,0.00,VWS V14.01,2013-01-08 16:57:00,
2013-01-09 06:58:00,44.0,43.7,30.23,NNE,23,0.0,1.0,99,0.00,,SKC,0.00,VWS V14.01,2013-01-08 16:58:00,
2013-01-09 06:59:00,44.1,43.8,30.23,NNE,23,0.0,0.0,99,0.00,,SKC,0.00,VWS V14.01,2013-01-08 16:59:00,
2013-01-09 07:00:00,44.2,44.2,30.23,NNE,23,0.0,0.0,100,0.00,,SKC,0.00,VWS V14.01,2013-01-08 17:00:00,
2013-01-09 07:01:00,44.5,44.2,30.24,NNE,23,0.0,1.0,99,0.00,,,0.00,VWS V14.01,2013-01-08 17:01:00,
2013-01-09 07:02:00,44.4,44.1,30.23,NNE,23,0.0,0.0,99,0.00,,SKC,0.00,VWS V14.01,2013-01-08 17:02:00,
2013-01-09 07:03:00,44.5,44.2,30.24,NNE,23,1.0,2.0,99,0.00,,SKC,0.00,VWS V14.01,2013-01-08 17:03:00,
2013-01-09 07:04:00,44.6,44.3,30.23,NNE,23,1.0,2.0,99,0.00,,SKC,0.00,VWS V14.01,2013-01-08 17:04:00,
2013-01-09 07:05:00,44.7,44.4,30.23,NNE,23,1.0,1.0,99,0.00,,SKC,0.00,VWS V14.01,2013-01-08 17:05:00,
2013-01-09 07:06:00,44.9,44.6,30.23,NNE,23,0.0,1.0,99,0.00,,,0.00,VWS V14.01,2013-01-08 17:06:00,
2013-01-09 07:07:00,44.9,44.6,30.24,NNE,23,0.0,1.0,99,0.00,,SKC,0.00,VWS V14.01,2013-01-08 17:07:00,
2013-01-09 07:08:00,44.9,44.6,30.23,NNE,23,1.0,1.0,99,0.00,,SKC,0.00,VWS V14.01,2013-01-08 17:08:00,
2013-01-09 07:09:00,45.0,44.7,30.23,NNE,23,0.0,1.0,99,0.00,,SKC,0.00,VWS V14.01,2013-01-08 17:09:00,
2013-01-09 07:10:00,45.1,44.8,30.23,NNE,23,0.0,0.0,99,0.00,,SKC,0.00,VWS V14.01,2013-01-08 17:10:00,
2013-01-09 07:11:00,45.3,45.0,30.23,NNE,23,0.0,0.0,99,0.00,,,0.00,VWS V14.01,2013-01-08 17:11:00,
2013-01-09 07:12:00,45.2,44.9,30.23,NNE,23,0.0,0.0,99,0.00,,SKC,0.00,VWS V14.01,2013-01-08 17:12:00,
2013-01-09 07:13:00,45.3,45.0,30.23,NNE,23,0.0,0.0,99,0.00,,SKC,0.00,VWS V14.01,2013-01-08 17:13:00,
2013-01-09 07:14:00,45.5,45.2,30.23,NNE,23,0.0,0.0,99,0.00,,SKC,0.00,VWS V14.01,2013-01-08 17:14:00,
2013-01-09 07:15:00,45.8,45.5,30.23,NNE,23,0.0,0.0,99,0.00,,SKC,0.00,VWS V14.01,2013-01-08 17:15:00,
2013-01-09 07:16:00,45.9,45.6,30.23,NNE,23,0.0,0.0,99,0.00,,,0.00,VWS V14.01,2013-01-08 17:16:00,
2013-01-09 07:17:00,45.9,45.9,30.23,NNE,23,0.0,0.0,100,0.00,,SKC,0.00,VWS V14.01,2013-01-08 17:17:00,
2013-01-09 07:18:00,46.0,45.7,30.23,NNE,23,0.0,0.0,99,0.00,,SKC,0.00,VWS V14.01,2013-01-08 17:18:00,
2013-01-09 07:19:00,46.2,45.9,30.23,NNE,23,0.0,0.0,99,0.00,,SKC,0.00,VWS V14.01,2013-01-08 17:19:00,
2013-01-09 07:20:00,46.4,46.1,30.23,NNE,23,0.0,0.0,99,0.00,,SKC,0.00,VWS V14.01,2013-01-08 17:20:00,
2013-01-09 07:21:00,46.9,46.6,30.23,NNE,23,0.0,0.0,99,0.00,,,0.00,VWS V14.01,2013-01-08 17:21:00,
2013-01-09 07:22:00,46.9,46.6,30.23,NNE,23,0.0,0.0,99,0.00,,SKC,0.00,VWS V14.01,2013-01-08 17:22:00,
2013-01-09 07:23:00,47.0,46.7,30.23,NNE,23,0.0,0.0,99,0.00,,SKC,0.00,VWS V14.01,2013-01-08 17:23:00,
2013-01-09 07:24:00,47.0,47.0,30.23,NNE,23,0.0,0.0,100,0.00,,SKC,0.00,VWS V14.01,2013-01-08 17:24:00,
2013-01-09 07:25:00,47.1,47.1,30.23,NNE,23,0.0,0.0,100,0.00,,SKC,0.00,VWS V14.01,2013-01-08 17:25:00,
2013-01-09 07:26:00,47.4,47.1,30.23,NNE,23,0.0,1.0,99,0.00,,,0.00,VWS V14.01,2013-01-08 17:26:00,
2013-01-09 07:27:00,47.3,47.0,30.23,NNE,23,0.0,0.0,99,0.00,,SKC,0.00,VWS V14.01,2013-01-08 17:27:00,
2013-01-09 07:28:00,47.4,47.1,30.23,NNE,23,0.0,1.0,99,0.00,,SKC,0.00,VWS V14.01,2013-01-08 17:28:00,
2013-01-09 07:29:00,47.5,47.2,30.23,NNE,23,0.0,0.0,99,0.00,,SKC,0.00,VWS V14.01,2013-01-08 17:29:00,
2013-01-09 07:30:00,47.6,47.3,30.23,NNE,23,0.0,0.0,99,0.00,,SKC,0.00,VWS V14.01,2013-01-08 17:30:00,
2013-01-09 07:31:00,47.9,47.6,30.23,NNE,23,0.0,0.0,99,0.00,,,0.00,VWS V14.01,2013-01-08 17:31:00,
2013-01-09 07:32:00,47.8,47.5,30.23,NNE,23,0.0,0.0,99,0.00,,SKC,0.00,VWS V14.01,2013-01-08 17:32:00,
2013-01-09 07:33:00,47.9,47.6,30.23,NNE,23,0.0,0.0,99,0.00,,SKC,0.00,VWS V14.01,2013-01-08 17:33:00,
2013-01-09 07:34:00,48.2,47.9,30.23,NNE,23,0.0,0.0,99,0.00,,SKC,0.00,VWS V14.01,2013-01-08 17:34:00,
2013-01-09 07:35:00,48.4,48.1,30.23,NNE,23,0.0,0.0,99,0.00,,SKC,0.00,VWS V14.01,2013-01-08 17:35:00,
2013-01-09 07:36:00,48.6,48.3,30.23,NNE,23,0.0,1.0,99,0.00,,,0.00,VWS V14.01,2013-01-08 17:36:00,
2013-01-09 07:37:00,48.5,48.2,30.23,NNE,23,0.0,1.0,99,0.00,,SKC,0.00,VWS V14.01,2013-01-08 17:37:00,
2013-01-09 07:38:00,48.6,48.3,30.23,NNE,23,0.0,1.0,99,0.00,,SKC,0.00,VWS V14.01,2013-01-08 17:38:00,
2013-01-09 07:39:00,48.6,48.3,30.23,NNE,23,0.0,0.0,99,0.00,,SKC,0.00,VWS V14.01,2013-01-08 17:39:00,
2013-01-09 07:40:00,48.7,48.4,30.23,NNE,23,0.0,0.0,99,0.00,,SKC,0.00,VWS V14.01,2013-01-08 17:40:00,
2013-01-09 07:41:00,49.4,49.1,30.23,NNE,23,0.0,0.0,99,0.00,,,0.00,VWS V14.01,2013-01-08 17:41:00,
2013-01-09 07:42:00,49.4,49.1,30.23,NNE,23,0.0,0.0,99,0.00,,SKC,0.00,VWS V14.01,2013-01-08 17:42:00,
2013-01-09 07:43:00,49.5,49.2,30.23,NNE,23,0.0,0.0,99,0.00,,SKC,0.00,VWS V14.01,2013-01-08 17:43:00,
2013-01-09 07:44:00,49.5,49.2,30.23,NNE,23,0.0,0.0,99,0.00,,SKC,0.00,VWS V14.01,2013-01-08 17:44:00,
2013-01-09 07:45:00,49.5,49.2,30.23,NNE,23,0.0,0.0,99,0.00,,SKC,0.00,VWS V14.01,2013-01-08 17:45:00,
2013-01-09 07:46:00,49.9,49.4,30.23,NNE,23,1.0,2.0,98,0.00,,,0.00,VWS V14.01,2013-01-08 17:46:00,
2013-01-09 07:47:00,49.8,49.3,30.23,NNE,23,0.0,0.0,98,0.00,,SKC,0.00,VWS V14.01,2013-01-08 17:47:00,
2013-01-09 07:48:00,49.9,49.4,30.23,NNE,23,1.0,2.0,98,0.00,,SKC,0.00,VWS V14.01,2013-01-08 17:48:00,
2013-01-09 07:49:00,49.9,49.4,30.23,NNE,23,0.0,1.0,98,0.00,,SKC,0.00,VWS V14.01,2013-01-08 17:49:00,
2013-01-09 07:50:00,49.8,49.3,30.23,NNE,23,0.0,0.0,98,0.00,,SKC,0.00,VWS V14.01,2013-01-08 17:50:00,
2013-01-09 07:51:00,49.8,49.0,30.23,NNE,23,1.0,1.0,97,0.00,,,0.00,VWS V14.01,2013-01-08 17:51:00,
2013-01-09 07:52:00,49.7,48.9,30.23,NNE,23,0.0,0.0,97,0.00,,SKC,0.00,VWS V14.01,2013-01-08 17:52:00,
2013-01-09 07:53:00,49.8,49.0,30.23,NNE,23,1.0,2.0,97,0.00,,SKC,0.00,VWS V14.01,2013-01-08 17:53:00,
2013-01-09 07:54:00,49.8,49.0,30.23,NNE,23,0.0,2.0,97,0.00,,SKC,0.00,VWS V14.01,2013-01-08 17:54:00,
2013-01-09 07:55:00,49.9,49.1,30.23,NNE,23,0.0,0.0,97,0.00,,SKC,0.00,VWS V14.01,2013-01-08 17:55:00,
2013-01-09 07:56:00,50.0,49.2,30.23,NNE,23,2.0,2.0,97,0.00,,,0.00,VWS V14.01,2013-01-08 17:56:00,
2013-01-09 07:57:00,50.0,49.2,30.23,NNE,23,1.0,2.0,97,0.00,,SKC,0.00,VWS V14.01,2013-01-08 17:57:00,
2013-01-09 07:58:00,50.0,49.2,30.23,NNE,23,1.0,2.0,97,0.00,,SKC,0.00,VWS V14.01,2013-01-08 17:58:00,
2013-01-09 07:59:00,50.0,49.2,30.24,NNE,23,0.0,1.0,97,0.00,,SKC,0.00,VWS V14.01,2013-01-08 17:59:00,
2013-01-09 08:00:00,50.1,49.3,30.24,NNE,23,0.0,0.0,97,0.00,,SKC,0.00,VWS V14.01,2013-01-08 18:00:00,
2013-01-09 08:01:00,50.5,49.4,30.24,NNE,23,0.0,1.0,96,0.00,,,0.00,VWS V14.01,2013-01-08 18:01:00,
2013-01-09 08:02:00,50.4,49.3,30.24,NNE,23,1.0,1.0,96,0.00,,SKC,0.00,VWS V14.01,2013-01-08 18:02:00,
2013-01-09 08:03:00,50.5,49.4,30.24,NNE,23,0.0,1.0,96,0.00,,SKC,0.00,VWS V14.01,2013-01-08 18:03:00,
2013-01-09 08:04:00,50.5,49.4,30.24,NNE,23,0.0,0.0,96,0.00,,SKC,0.00,VWS V14.01,2013-01-08 18:04:00,
2013-01-09 08:05:00,50.8,49.7,30.23,NNE,23,1.0,1.0,96,0.00,,SKC,0.00,VWS V14.01,2013-01-08 18:05:00,
2013-01-09 08:06:00,50.8,49.4,30.24,West,274,2.0,3.0,95,0.00,,,0.00,VWS V14.01,2013-01-08 18:06:00,
2013-01-09 08:07:00,50.9,49.8,30.24,NNE,23,2.0,3.0,96,0.00,,SKC,0.00,VWS V14.01,2013-01-08 18:07:00,
2013-01-09 08:08:00,50.8,49.4,30.24,West,274,2.0,3.0,95,0.00,,SKC,0.00,VWS V14.01,2013-01-08 18:08:00,
2013-01-09 08:09:00,50.9,49.5,30.24,West,274,1.0,3.0,95,0.00,,SKC,0.00,VWS V14.01,2013-01-08 18:09:00,
2013-01-09 08:10:00,51.0,49.6,30.23,West,274,0.0,1.0,95,0.00,,SKC,0.00,VWS V14.01,2013-01-08 18:10:00,
2013-01-09 08:11:00,51.3,49.6,30.23,West,274,2.0,2.0,94,0.00,,,0.00,VWS V14.01,2013-01-08 18:11:00,
2013-01-09 08:12:00,51.3,49.9,30.23,West,274,0.0,1.0,95,0.00,,SKC,0.00,VWS V14.01,2013-01-08 18:12:00,
2013-01-09 08:13:00,51.3,49.6,30.23,West,274,1.0,2.0,94,0.00,,SKC,0.00,VWS V14.01,2013-01-08 18:13:00,
2013-01-09 08:14:00,51.3,49.6,30.23,West,274,2.0,2.0,94,0.00,,SKC,0.00,VWS V14.01,2013-01-08 18:14:00,
2013-01-09 08:15:00,51.5,49.5,30.23,West,274,0.0,2.0,93,0.00,,SKC,0.00,VWS V14.01,2013-01-08 18:15:00,
2013-01-09 08:16:00,51.9,49.9,30.23,West,274,0.0,0.0,93,0.00,,,0.00,VWS V14.01,2013-01-08 18:16:00,
2013-01-09 08:17:00,51.8,49.8,30.23,West,274,0.0,0.0,93,0.00,,SKC,0.00,VWS V14.01,2013-01-08 18:17:00,
2013-01-09 08:18:00,51.9,49.9,30.23,West,274,0.0,0.0,93,0.00,,SKC,0.00,VWS V14.01,2013-01-08 18:18:00,
2013-01-09 08:19:00,51.9,49.9,30.23,West,274,0.0,1.0,93,0.00,,SKC,0.00,VWS V14.01,2013-01-08 18:19:00,
2013-01-09 08:20:00,52.0,49.8,30.23,West,274,0.0,1.0,92,0.00,,SKC,0.00,VWS V14.01,2013-01-08 18:20:00,
2013-01-09 08:21:00,52.2,50.0,30.23,West,274,0.0,2.0,92,0.00,,,0.00,VWS V14.01,2013-01-08 18:21:00,
2013-01-09 08:22:00,52.1,49.8,30.23,West,274,0.0,1.0,92,0.00,,SKC,0.00,VWS V14.01,2013-01-08 18:22:00,
2013-01-09 08:23:00,52.2,50.0,30.23,West,274,0.0,2.0,92,0.00,,SKC,0.00,VWS V14.01,2013-01-08 18:23:00,
2013-01-09 08:24:00,52.3,50.0,30.23,West,274,0.0,1.0,92,0.00,,SKC,0.00,VWS V14.01,2013-01-08 18:24:00,
2013-01-09 08:25:00,52.4,49.8,30.23,West,274,0.0,1.0,91,0.00,,SKC,0.00,VWS V14.01,2013-01-08 18:25:00,
2013-01-09 08:26:00,52.5,50.0,30.23,West,274,0.0,1.0,91,0.00,,,0.00,VWS V14.01,2013-01-08 18:26:00,
2013-01-09 08:27:00,52.5,50.0,30.23,West,274,1.0,2.0,91,0.00,,SKC,0.00,VWS V14.01,2013-01-08 18:27:00,
2013-01-09 08:28:00,52.5,49.7,30.23,West,274,0.0,1.0,90,0.00,,SKC,0.00,VWS V14.01,2013-01-08 18:28:00,
2013-01-09 08:29:00,52.6,49.8,30.23,West,274,0.0,1.0,90,0.00,,SKC,0.00,VWS V14.01,2013-01-08 18:29:00,
2013-01-09 08:30:00,52.6,49.8,30.23,West,274,0.0,1.0,90,0.00,,SKC,0.00,VWS V14.01,2013-01-08 18:30:00,
2013-01-09 08:31:00,52.9,49.8,30.23,West,274,1.0,2.0,89,0.00,,,0.00,VWS V14.01,2013-01-08 18:31:00,
2013-01-09 08:32:00,52.8,50.0,30.23,West,274,1.0,1.0,90,0.00,,SKC,0.00,VWS V14.01,2013-01-08 18:32:00,
2013-01-09 08:33:00,52.9,49.8,30.23,West,274,1.0,2.0,89,0.00,,SKC,0.00,VWS V14.01,2013-01-08 18:33:00,
2013-01-09 08:34:00,52.9,49.5,30.23,West,274,0.0,2.0,88,0.00,,SKC,0.00,VWS V14.01,2013-01-08 18:34:00,
2013-01-09 08:35:00,53.0,49.2,30.23,West,274,0.0,0.0,87,0.00,,SKC,0.00,VWS V14.01,2013-01-08 18:35:00,
2013-01-09 08:36:00,53.7,49.9,30.23,West,274,1.0,2.0,87,0.00,,,0.00,VWS V14.01,2013-01-08 18:36:00,
2013-01-09 08:37:00,53.5,49.7,30.23,West,274,0.0,1.0,87,0.00,,SKC,0.00,VWS V14.01,2013-01-08 18:37:00,
2013-01-09 08:38:00,53.7,49.9,30.23,West,274,0.0,2.0,87,0.00,,SKC,0.00,VWS V14.01,2013-01-08 18:38:00,
2013-01-09 08:39:00,53.8,49.7,30.23,West,274,0.0,0.0,86,0.00,,SKC,0.00,VWS V14.01,2013-01-08 18:39:00,
2013-01-09 08:40:00,53.9,49.5,30.23,NW,313,3.0,3.0,85,0.00,,SKC,0.00,VWS V14.01,2013-01-08 18:40:00,
2013-01-09 08:41:00,53.9,48.9,30.23,NW,316,2.0,4.0,83,0.00,,,0.00,VWS V14.01,2013-01-08 18:41:00,
2013-01-09 08:42:00,53.9,49.2,30.23,NW,316,3.0,4.0,84,0.00,,SKC,0.00,VWS V14.01,2013-01-08 18:42:00,
2013-01-09 08:43:00,54.0,49.0,30.23,NW,316,2.0,4.0,83,0.00,,SKC,0.00,VWS V14.01,2013-01-08 18:43:00,
2013-01-09 08:44:00,54.0,49.0,30.22,NW,316,1.0,2.0,83,0.00,,SKC,0.00,VWS V14.01,2013-01-08 18:44:00,
2013-01-09 08:45:00,53.9,48.5,30.22,NW,316,0.0,1.0,82,0.00,,SKC,0.00,VWS V14.01,2013-01-08 18:45:00,
2013-01-09 08:46:00,54.0,48.6,30.23,NW,316,0.0,3.0,82,0.00,,,0.00,VWS V14.01,2013-01-08 18:46:00,
2013-01-09 08:47:00,54.0,48.6,30.22,NW,316,0.0,1.0,82,0.00,,SKC,0.00,VWS V14.01,2013-01-08 18:47:00,
2013-01-09 08:48:00,54.0,48.6,30.23,NW,316,0.0,3.0,82,0.00,,SKC,0.00,VWS V14.01,2013-01-08 18:48:00,
2013-01-09 08:49:00,54.1,48.4,30.22,NW,316,0.0,1.0,81,0.00,,SKC,0.00,VWS V14.01,2013-01-08 18:49:00,
2013-01-09 08:50:00,54.2,48.5,30.22,NW,316,1.0,1.0,81,0.00,,SKC,0.00,VWS V14.01,2013-01-08 18:50:00,
2013-01-09 08:51:00,54.6,48.6,30.22,NW,316,0.0,1.0,80,0.00,,,0.00,VWS V14.01,2013-01-08 18:51:00,
2013-01-09 08:52:00,54.5,48.5,30.22,NW,316,0.0,1.0,80,0.00,,SKC,0.00,VWS V14.01,2013-01-08 18:52:00,
2013-01-09 08:53:00,54.6,48.6,30.22,NW,316,0.0,1.0,80,0.00,,SKC,0.00,VWS V14.01,2013-01-08 18:53:00,
2013-01-09 08:54:00,54.8,48.8,30.22,NW,316,1.0,1.0,80,0.00,,SKC,0.00,VWS V14.01,2013-01-08 18:54:00,
2013-01-09 08:55:00,54.8,48.8,30.22,NW,316,1.0,2.0,80,0.00,,SKC,0.00,VWS V14.01,2013-01-08 18:55:00,
2013-01-09 08:56:00,54.8,48.8,30.22,NNW,342,0.0,1.0,80,0.00,,,0.00,VWS V14.01,2013-01-08 18:56:00,
2013-01-09 08:57:00,54.8,48.8,30.22,NNW,342,1.0,2.0,80,0.00,,SKC,0.00,VWS V14.01,2013-01-08 18:57:00,
2013-01-09 08:58:00,54.8,48.4,30.22,NNW,342,0.0,1.0,79,0.00,,SKC,0.00,VWS V14.01,2013-01-08 18:58:00,
2013-01-09 08:59:00,54.8,48.4,30.22,NNW,342,1.0,2.0,79,0.00,,SKC,0.00,VWS V14.01,2013-01-08 18:59:00,
2013-01-09 09:00:00,54.8,48.4,30.22,NNW,342,1.0,2.0,79,0.00,,SKC,0.00,VWS V14.01,2013-01-08 19:00:00,
2013-01-09 09:01:00,54.9,48.5,30.22,NNW,347,1.0,1.0,79,0.00,,,0.00,VWS V14.01,2013-01-08 19:01:00,
2013-01-09 09:02:00,54.8,48.4,30.22,NNW,347,0.0,2.0,79,0.00,,SKC,0.00,VWS V14.01,2013-01-08 19:02:00,
2013-01-09 09:03:00,54.9,48.9,30.22,NNW,347,0.0,1.0,80,0.00,,SKC,0.00,VWS V14.01,2013-01-08 19:03:00,
2013-01-09 09:04:00,55.0,49.0,30.22,NNW,347,1.0,2.0,80,0.00,,SKC,0.00,VWS V14.01,2013-01-08 19:04:00,
2013-01-09 09:05:00,55.2,49.5,30.22,NNW,347,1.0,1.0,81,0.00,,SKC,0.00,VWS V14.01,2013-01-08 19:05:00,
2013-01-09 09:06:00,55.4,49.7,30.21,NNE,15,0.0,1.0,81,0.00,,,0.00,VWS V14.01,2013-01-08 19:06:00,
2013-01-09 09:07:00,55.3,49.6,30.21,NNE,15,0.0,2.0,81,0.00,,SKC,0.00,VWS V14.01,2013-01-08 19:07:00,
2013-01-09 09:08:00,55.4,49.7,30.21,NNE,15,2.0,2.0,81,0.00,,SKC,0.00,VWS V14.01,2013-01-08 19:08:00,
2013-01-09 09:09:00,55.4,50.3,30.21,NNE,15,2.0,2.0,83,0.00,,SKC,0.00,VWS V14.01,2013-01-08 19:09:00,
2013-01-09 09:10:00,55.4,50.7,30.21,NNE,17,1.0,2.0,84,0.00,,SKC,0.00,VWS V14.01,2013-01-08 19:10:00,
2013-01-09 09:11:00,55.3,50.6,30.21,NNE,33,3.0,4.0,84,0.00,,,0.00,VWS V14.01,2013-01-08 19:11:00,
2013-01-09 09:12:00,55.4,50.7,30.21,NNE,32,2.0,4.0,84,0.00,,SKC,0.00,VWS V14.01,2013-01-08 19:12:00,
2013-01-09 09:13:00,55.2,50.5,30.21,NE,34,3.0,4.0,84,0.00,,SKC,0.00,VWS V14.01,2013-01-08 19:13:00,
2013-01-09 09:14:00,55.0,50.3,30.21,NE,49,4.0,5.0,84,0.00,,SKC,0.00,VWS V14.01,2013-01-08 19:14:00,
2013-01-09 09:15:00,54.8,50.1,30.21,NE,49,2.0,5.0,84,0.00,,SKC,0.00,VWS V14.01,2013-01-08 19:15:00,
2013-01-09 09:16:00,54.6,50.5,30.21,NE,52,2.0,4.0,86,0.00,,,0.00,VWS V14.01,2013-01-08 19:16:00,
2013-01-09 09:17:00,54.6,50.5,30.21,NE,53,3.0,3.0,86,0.00,,SKC,0.00,VWS V14.01,2013-01-08 19:17:00,
2013-01-09 09:18:00,54.5,50.4,30.21,NE,52,3.0,4.0,86,0.00,,SKC,0.00,VWS V14.01,2013-01-08 19:18:00,
2013-01-09 09:19:00,54.3,49.9,30.21,NE,52,2.0,3.0,85,0.00,,SKC,0.00,VWS V14.01,2013-01-08 19:19:00,
2013-01-09 09:20:00,54.2,50.1,30.21,NE,52,0.0,2.0,86,0.00,,SKC,0.00,VWS V14.01,2013-01-08 19:20:00,
2013-01-09 09:21:00,54.4,50.6,30.20,NE,52,1.0,1.0,87,0.00,,,0.00,VWS V14.01,2013-01-08 19:21:00,
2013-01-09 09:22:00,54.3,50.5,30.20,NE,52,1.0,2.0,87,0.00,,SKC,0.00,VWS V14.01,2013-01-08 19:22:00,
2013-01-09 09:23:00,54.4,50.6,30.20,NE,52,1.0,1.0,87,0.00,,SKC,0.00,VWS V14.01,2013-01-08 19:23:00,
2013-01-09 09:24:00,54.5,50.4,30.20,NE,52,0.0,1.0,86,0.00,,SKC,0.00,VWS V14.01,2013-01-08 19:24:00,
2013-01-09 09:25:00,54.6,50.5,30.20,NE,52,0.0,0.0,86,0.00,,SKC,0.00,VWS V14.01,2013-01-08 19:25:00,
2013-01-09 09:26:00,54.7,50.6,30.20,NE,52,2.0,3.0,86,0.00,,,0.00,VWS V14.01,2013-01-08 19:26:00,
2013-01-09 09:27:00,54.7,50.6,30.20,NE,52,1.0,3.0,86,0.00,,SKC,0.00,VWS V14.01,2013-01-08 19:27:00,
2013-01-09 09:28:00,54.7,50.6,30.20,NE,52,1.0,3.0,86,0.00,,SKC,0.00,VWS V14.01,2013-01-08 19:28:00,
2013-01-09 09:29:00,54.6,50.2,30.20,NE,52,2.0,2.0,85,0.00,,SKC,0.00,VWS V14.01,2013-01-08 19:29:00,
2013-01-09 09:30:00,54.6,50.2,30.20,NE,52,3.0,3.0,85,0.00,,SKC,0.00,VWS V14.01,2013-01-08 19:30:00,
2013-01-09 09:31:00,54.5,50.4,30.20,NE,52,3.0,3.0,86,0.00,,,0.00,VWS V14.01,2013-01-08 19:31:00,
2013-01-09 09:32:00,54.5,50.4,30.20,NE,52,0.0,3.0,86,0.00,,SKC,0.00,VWS V14.01,2013-01-08 19:32:00,
2013-01-09 09:33:00,54.5,50.4,30.20,NE,52,1.0,3.0,86,0.00,,SKC,0.00,VWS V14.01,2013-01-08 19:33:00,
2013-01-09 09:34:00,54.5,50.1,30.20,NE,52,3.0,5.0,85,0.00,,SKC,0.00,VWS V14.01,2013-01-08 19:34:00,
2013-01-09 09:35:00,54.4,50.0,30.20,NE,52,2.0,3.0,85,0.00,,SKC,0.00,VWS V14.01,2013-01-08 19:35:00,
2013-01-09 09:36:00,54.6,50.2,30.19,NE,52,1.0,1.0,85,0.00,,,0.00,VWS V14.01,2013-01-08 19:36:00,
2013-01-09 09:37:00,54.5,50.4,30.19,NE,52,0.0,2.0,86,0.00,,SKC,0.00,VWS V14.01,2013-01-08 19:37:00,
2013-01-09 09:38:00,54.7,50.3,30.19,NE,52,0.0,1.0,85,0.00,,SKC,0.00,VWS V14.01,2013-01-08 19:38:00,
2013-01-09 09:39:00,54.8,50.4,30.19,NE,52,0.0,1.0,85,0.00,,SKC,0.00,VWS V14.01,2013-01-08 19:39:00,
2013-01-09 09:40:00,54.9,50.2,30.19,NE,52,3.0,3.0,84,0.00,,SKC,0.00,VWS V14.01,2013-01-08 19:40:00,
2013-01-09 09:41:00,54.8,49.4,30.19,NE,52,1.0,1.0,82,0.00,,,0.00,VWS V14.01,2013-01-08 19:41:00,
2013-01-09 09:42:00,54.8,49.4,30.19,NE,52,1.0,2.0,82,0.00,,SKC,0.00,VWS V14.01,2013-01-08 19:42:00,
2013-01-09 09:43:00,54.8,49.4,30.19,NE,52,0.0,1.0,82,0.00,,SKC,0.00,VWS V14.01,2013-01-08 19:43:00,
2013-01-09 09:44:00,54.8,49.1,30.19,NE,52,0.0,1.0,81,0.00,,SKC,0.00,VWS V14.01,2013-01-08 19:44:00,
2013-01-09 09:45:00,55.0,49.3,30.19,NE,52,1.0,1.0,81,0.00,,SKC,0.00,VWS V14.01,2013-01-08 19:45:00,
2013-01-09 09:46:00,55.4,49.7,30.19,ENE,69,1.0,2.0,81,0.00,,,0.00,VWS V14.01,2013-01-08 19:46:00,
2013-01-09 09:47:00,55.3,49.6,30.19,ENE,63,1.0,1.0,81,0.00,,SKC,0.00,VWS V14.01,2013-01-08 19:47:00,
2013-01-09 09:48:00,55.5,49.8,30.19,ENE,69,0.0,2.0,81,0.00,,SKC,0.00,VWS V14.01,2013-01-08 19:48:00,
2013-01-09 09:49:00,55.5,49.4,30.19,ENE,69,1.0,2.0,80,0.00,,SKC,0.00,VWS V14.01,2013-01-08 19:49:00,
2013-01-09 09:50:00,55.4,48.0,30.19,ENE,69,1.0,1.0,76,0.00,,SKC,0.00,VWS V14.01,2013-01-08 19:50:00,
2013-01-09 09:51:00,55.8,48.7,30.19,ENE,69,0.0,0.0,77,0.00,,,0.00,VWS V14.01,2013-01-08 19:51:00,
2013-01-09 09:52:00,55.6,48.5,30.19,ENE,69,0.0,1.0,77,0.00,,SKC,0.00,VWS V14.01,2013-01-08 19:52:00,
2013-01-09 09:53:00,55.9,48.8,30.19,ENE,69,2.0,2.0,77,0.00,,SKC,0.00,VWS V14.01,2013-01-08 19:53:00,
2013-01-09 09:54:00,55.9,48.8,30.19,ENE,69,2.0,3.0,77,0.00,,SKC,0.00,VWS V14.01,2013-01-08 19:54:00,
2013-01-09 09:55:00,56.0,48.9,30.19,ENE,69,0.0,2.0,77,0.00,,SKC,0.00,VWS V14.01,2013-01-08 19:55:00,
2013-01-09 09:56:00,56.0,48.2,30.19,ENE,69,2.0,2.0,75,0.00,,,0.00,VWS V14.01,2013-01-08 19:56:00,
2013-01-09 09:57:00,56.0,48.2,30.19,ENE,69,1.0,2.0,75,0.00,,SKC,0.00,VWS V14.01,2013-01-08 19:57:00,
2013-01-09 09:58:00,56.0,48.2,30.19,ENE,69,1.0,2.0,75,0.00,,SKC,0.00,VWS V14.01,2013-01-08 19:58:00,
2013-01-09 09:59:00,56.1,48.7,30.19,ENE,70,1.0,2.0,76,0.00,,SKC,0.00,VWS V14.01,2013-01-08 19:59:00,
2013-01-09 10:00:00,56.2,49.1,30.18,ENE,70,2.0,2.0,77,0.00,,SKC,0.00,VWS V14.01,2013-01-08 20:00:00,
2013-01-09 10:01:00,56.3,49.2,30.18,ENE,70,1.0,1.0,77,0.00,,,0.00,VWS V14.01,2013-01-08 20:01:00,
2013-01-09 10:02:00,56.3,49.2,30.18,ENE,70,1.0,1.0,77,0.00,,SKC,0.00,VWS V14.01,2013-01-08 20:02:00,
2013-01-09 10:03:00,56.4,49.6,30.18,ENE,70,1.0,1.0,78,0.00,,SKC,0.00,VWS V14.01,2013-01-08 20:03:00,
2013-01-09 10:04:00,56.5,49.4,30.18,ENE,70,0.0,1.0,77,0.00,,SKC,0.00,VWS V14.01,2013-01-08 20:04:00,
2013-01-09 10:05:00,56.7,49.6,30.18,ENE,70,2.0,2.0,77,0.00,,SKC,0.00,VWS V14.01,2013-01-08 20:05:00,
2013-01-09 10:06:00,56.6,48.4,30.18,ENE,69,1.0,1.0,74,0.00,,,0.00,VWS V14.01,2013-01-08 20:06:00,
2013-01-09 10:07:00,56.6,48.4,30.18,ENE,69,0.0,2.0,74,0.00,,SKC,0.00,VWS V14.01,2013-01-08 20:07:00,
2013-01-09 10:08:00,56.8,48.6,30.18,ENE,69,1.0,2.0,74,0.00,,SKC,0.00,VWS V14.01,2013-01-08 20:08:00,
2013-01-09 10:09:00,56.9,48.3,30.18,ENE,69,1.0,1.0,73,0.00,,SKC,0.00,VWS V14.01,2013-01-08 20:09:00,
2013-01-09 10:10:00,57.0,48.4,30.18,ENE,69,0.0,1.0,73,0.00,,SKC,0.00,VWS V14.01,2013-01-08 20:10:00,
2013-01-09 10:11:00,57.2,48.6,30.18,ENE,69,2.0,3.0,73,0.00,,,0.00,VWS V14.01,2013-01-08 20:11:00,
2013-01-09 10:12:00,57.2,48.6,30.18,ENE,69,3.0,3.0,73,0.00,,SKC,0.00,VWS V14.01,2013-01-08 20:12:00,
2013-01-09 10:13:00,57.2,48.6,30.18,ENE,63,2.0,3.0,73,0.00,,SKC,0.00,VWS V14.01,2013-01-08 20:13:00,
2013-01-09 10:14:00,57.0,47.7,30.18,ENE,63,1.0,3.0,71,0.00,,SKC,0.00,VWS V14.01,2013-01-08 20:14:00,
2013-01-09 10:15:00,56.8,47.5,30.18,ENE,63,1.0,2.0,71,0.00,,SKC,0.00,VWS V14.01,2013-01-08 20:15:00,
2013-01-09 10:16:00,56.9,47.6,30.18,ENE,63,2.0,2.0,71,0.00,,,0.00,VWS V14.01,2013-01-08 20:16:00,
2013-01-09 10:17:00,56.9,48.0,30.18,ENE,63,2.0,2.0,72,0.00,,SKC,0.00,VWS V14.01,2013-01-08 20:17:00,
2013-01-09 10:18:00,56.9,47.6,30.18,ENE,63,2.0,3.0,71,0.00,,SKC,0.00,VWS V14.01,2013-01-08 20:18:00,
2013-01-09 10:19:00,56.9,47.2,30.18,ENE,63,1.0,2.0,70,0.00,,SKC,0.00,VWS V14.01,2013-01-08 20:19:00,
2013-01-09 10:20:00,56.9,47.6,30.18,ENE,63,0.0,1.0,71,0.00,,SKC,0.00,VWS V14.01,2013-01-08 20:20:00,
2013-01-09 10:21:00,57.1,47.8,30.17,NE,52,3.0,3.0,71,0.00,,,0.00,VWS V14.01,2013-01-08 20:21:00,
2013-01-09 10:22:00,57.0,47.7,30.17,NE,52,1.0,2.0,71,0.00,,SKC,0.00,VWS V14.01,2013-01-08 20:22:00,
2013-01-09 10:23:00,57.1,47.8,30.17,NE,52,2.0,3.0,71,0.00,,SKC,0.00,VWS V14.01,2013-01-08 20:23:00,
2013-01-09 10:24:00,57.1,47.8,30.17,NE,52,1.0,3.0,71,0.00,,SKC,0.00,VWS V14.01,2013-01-08 20:24:00,
2013-01-09 10:25:00,57.2,47.9,30.17,NE,52,1.0,3.0,71,0.00,,SKC,0.00,VWS V14.01,2013-01-08 20:25:00,
2013-01-09 10:26:00,57.4,48.5,30.17,NE,52,1.0,3.0,72,0.00,,,0.00,VWS V14.01,2013-01-08 20:26:00,
2013-01-09 10:27:00,57.4,48.5,30.17,NE,52,1.0,2.0,72,0.00,,SKC,0.00,VWS V14.01,2013-01-08 20:27:00,
2013-01-09 10:28:00,57.4,48.5,30.17,NE,52,2.0,3.0,72,0.00,,SKC,0.00,VWS V14.01,2013-01-08 20:28:00,
2013-01-09 10:29:00,57.5,48.2,30.17,NE,52,1.0,2.0,71,0.00,,SKC,0.00,VWS V14.01,2013-01-08 20:29:00,
2013-01-09 10:30:00,57.6,48.3,30.17,NE,52,2.0,2.0,71,0.00,,SKC,0.00,VWS V14.01,2013-01-08 20:30:00,
2013-01-09 10:31:00,57.6,48.3,30.17,NE,51,2.0,3.0,71,0.00,,,0.00,VWS V14.01,2013-01-08 20:31:00,
2013-01-09 10:32:00,57.6,48.3,30.17,NE,51,1.0,4.0,71,0.00,,SKC,0.00,VWS V14.01,2013-01-08 20:32:00,
2013-01-09 10:33:00,57.5,48.2,30.17,NE,51,0.0,3.0,71,0.00,,SKC,0.00,VWS V14.01,2013-01-08 20:33:00,
2013-01-09 10:34:00,57.6,48.3,30.17,NE,51,1.0,1.0,71,0.00,,SKC,0.00,VWS V14.01,2013-01-08 20:34:00,
2013-01-09 10:35:00,57.6,48.3,30.17,NE,51,2.0,2.0,71,0.00,,SKC,0.00,VWS V14.01,2013-01-08 20:35:00,
2013-01-09 10:36:00,57.6,48.3,30.17,NE,51,0.0,1.0,71,0.00,,,0.00,VWS V14.01,2013-01-08 20:36:00,
2013-01-09 10:37:00,57.5,48.2,30.17,NE,51,1.0,2.0,71,0.00,,SKC,0.00,VWS V14.01,2013-01-08 20:37:00,
2013-01-09 10:38:00,57.7,48.4,30.17,NE,51,1.0,1.0,71,0.00,,SKC,0.00,VWS V14.01,2013-01-08 20:38:00,
2013-01-09 10:39:00,57.7,48.0,30.17,NE,51,1.0,3.0,70,0.00,,SKC,0.00,VWS V14.01,2013-01-08 20:39:00,
2013-01-09 10:40:00,57.6,47.9,30.17,NE,40,2.0,3.0,70,0.00,,SKC,0.00,VWS V14.01,2013-01-08 20:40:00,
2013-01-09 10:41:00,57.5,47.8,30.16,NE,40,0.0,1.0,70,0.00,,,0.00,VWS V14.01,2013-01-08 20:41:00,
2013-01-09 10:42:00,57.6,47.9,30.17,NE,40,1.0,2.0,70,0.00,,SKC,0.00,VWS V14.01,2013-01-08 20:42:00,
2013-01-09 10:43:00,57.5,47.8,30.16,NE,40,0.0,1.0,70,0.00,,SKC,0.00,VWS V14.01,2013-01-08 20:43:00,
2013-01-09 10:44:00,57.7,48.4,30.16,NE,40,1.0,1.0,71,0.00,,SKC,0.00,VWS V14.01,2013-01-08 20:44:00,
2013-01-09 10:45:00,58.0,48.3,30.16,NE,40,0.0,1.0,70,0.00,,SKC,0.00,VWS V14.01,2013-01-08 20:45:00,
2013-01-09 10:46:00,58.1,48.0,30.16,NE,40,2.0,3.0,69,0.00,,,0.00,VWS V14.01,2013-01-08 20:46:00,
2013-01-09 10:47:00,58.1,48.0,30.16,NE,40,2.0,3.0,69,0.00,,SKC,0.00,VWS V14.01,2013-01-08 20:47:00,
2013-01-09 10:48:00,58.0,47.9,30.16,NE,40,1.0,3.0,69,0.00,,SKC,0.00,VWS V14.01,2013-01-08 20:48:00,
2013-01-09 10:49:00,58.0,48.3,30.16,NE,40,1.0,1.0,70,0.00,,SKC,0.00,VWS V14.01,2013-01-08 20:49:00,
2013-01-09 10:50:00,58.0,48.3,30.16,NE,40,0.0,1.0,70,0.00,,SKC,0.00,VWS V14.01,2013-01-08 20:50:00,
2013-01-09 10:51:00,58.1,48.0,30.16,NE,46,1.0,2.0,69,0.00,,,0.00,VWS V14.01,2013-01-08 20:51:00,
2013-01-09 10:52:00,58.1,48.0,30.16,NE,46,2.0,2.0,69,0.00,,SKC,0.00,VWS V14.01,2013-01-08 20:52:00,
2013-01-09 10:53:00,58.1,48.0,30.16,NE,46,1.0,2.0,69,0.00,,SKC,0.00,VWS V14.01,2013-01-08 20:53:00,
2013-01-09 10:54:00,58.2,48.1,30.16,NE,46,1.0,3.0,69,0.00,,SKC,0.00,VWS V14.01,2013-01-08 20:54:00,
2013-01-09 10:55:00,58.2,48.5,30.16,NE,46,1.0,2.0,70,0.00,,SKC,0.00,VWS V14.01,2013-01-08 20:55:00,
2013-01-09 10:56:00,58.4,48.3,30.16,NE,46,1.0,2.0,69,0.00,,,0.00,VWS V14.01,2013-01-08 20:56:00,
2013-01-09 10:57:00,58.4,48.7,30.16,NE,46,2.0,3.0,70,0.00,,SKC,0.00,VWS V14.01,2013-01-08 20:57:00,
2013-01-09 10:58:00,58.4,48.3,30.16,NE,46,2.0,2.0,69,0.00,,SKC,0.00,VWS V14.01,2013-01-08 20:58:00,
2013-01-09 10:59:00,58.4,48.7,30.16,NE,46,0.0,2.0,70,0.00,,SKC,0.00,VWS V14.01,2013-01-08 20:59:00,
2013-01-09 11:00:00,58.4,48.7,30.16,NE,46,1.0,2.0,70,0.00,,SKC,0.00,VWS V14.01,2013-01-08 21:00:00,
2013-01-09 11:01:00,58.5,48.8,30.16,NE,46,0.0,1.0,70,0.00,,,0.00,VWS V14.01,2013-01-08 21:01:00,
2013-01-09 11:02:00,58.4,48.7,30.16,NE,46,0.0,1.0,70,0.00,,SKC,0.00,VWS V14.01,2013-01-08 21:02:00,
2013-01-09 11:03:00,58.7,49.0,30.16,NE,46,1.0,1.0,70,0.00,,SKC,0.00,VWS V14.01,2013-01-08 21:03:00,
2013-01-09 11:04:00,58.8,49.0,30.16,NE,46,3.0,3.0,70,0.00,,SKC,0.00,VWS V14.01,2013-01-08 21:04:00,
2013-01-09 11:05:00,58.5,48.4,30.16,NE,46,0.0,3.0,69,0.00,,SKC,0.00,VWS V14.01,2013-01-08 21:05:00,
2013-01-09 11:06:00,58.2,48.1,30.16,NE,46,1.0,2.0,69,0.00,,,0.00,VWS V14.01,2013-01-08 21:06:00,
2013-01-09 11:07:00,58.2,48.1,30.16,NE,46,1.0,2.0,69,0.00,,SKC,0.00,VWS V14.01,2013-01-08 21:07:00,
2013-01-09 11:08:00,58.1,48.0,30.16,NE,46,3.0,3.0,69,0.00,,SKC,0.00,VWS V14.01,2013-01-08 21:08:00,
2013-01-09 11:09:00,58.1,48.0,30.16,NE,46,0.0,3.0,69,0.00,,SKC,0.00,VWS V14.01,2013-01-08 21:09:00,
2013-01-09 11:10:00,58.1,48.4,30.16,NE,46,1.0,1.0,70,0.00,,SKC,0.00,VWS V14.01,2013-01-08 21:10:00,
2013-01-09 11:11:00,58.1,48.4,30.16,NE,46,2.0,2.0,70,0.00,,,0.00,VWS V14.01,2013-01-08 21:11:00,
2013-01-09 11:12:00,58.1,48.4,30.16,NE,46,1.0,2.0,70,0.00,,SKC,0.00,VWS V14.01,2013-01-08 21:12:00,
2013-01-09 11:13:00,58.1,48.4,30.16,NE,46,1.0,3.0,70,0.00,,SKC,0.00,VWS V14.01,2013-01-08 21:13:00,
2013-01-09 11:14:00,58.1,48.0,30.16,NE,46,0.0,2.0,69,0.00,,SKC,0.00,VWS V14.01,2013-01-08 21:14:00,
2013-01-09 11:15:00,58.1,48.0,30.16,NE,46,2.0,3.0,69,0.00,,SKC,0.00,VWS V14.01,2013-01-08 21:15:00,
2013-01-09 11:16:00,58.2,48.1,30.16,NE,46,2.0,3.0,69,0.00,,,0.00,VWS V14.01,2013-01-08 21:16:00,
2013-01-09 11:17:00,58.1,48.0,30.15,NE,46,1.0,1.0,69,0.00,,SKC,0.00,VWS V14.01,2013-01-08 21:17:00,
2013-01-09 11:18:00,58.2,48.1,30.16,NE,46,1.0,3.0,69,0.00,,SKC,0.00,VWS V14.01,2013-01-08 21:18:00,
2013-01-09 11:19:00,58.5,48.4,30.16,NE,46,2.0,3.0,69,0.00,,SKC,0.00,VWS V14.01,2013-01-08 21:19:00,
2013-01-09 11:20:00,58.6,48.5,30.16,NE,46,1.0,2.0,69,0.00,,SKC,0.00,VWS V14.01,2013-01-08 21:20:00,
2013-01-09 11:21:00,58.6,48.5,30.15,NE,46,1.0,3.0,69,0.00,,,0.00,VWS V14.01,2013-01-08 21:21:00,
2013-01-09 11:22:00,58.5,48.4,30.16,NE,46,2.0,2.0,69,0.00,,SKC,0.00,VWS V14.01,2013-01-08 21:22:00,
2013-01-09 11:23:00,58.5,48.4,30.15,NE,46,1.0,3.0,69,0.00,,SKC,0.00,VWS V14.01,2013-01-08 21:23:00,
2013-01-09 11:24:00,58.4,47.9,30.15,NE,46,1.0,3.0,68,0.00,,SKC,0.00,VWS V14.01,2013-01-08 21:24:00,
2013-01-09 11:25:00,58.5,48.0,30.15,NE,46,2.0,2.0,68,0.00,,SKC,0.00,VWS V14.01,2013-01-08 21:25:00,
2013-01-09 11:26:00,59.0,48.5,30.15,NW,325,1.0,3.0,68,0.00,,,0.00,VWS V14.01,2013-01-08 21:26:00,
2013-01-09 11:27:00,58.8,48.7,30.15,NW,325,2.0,4.0,69,0.00,,SKC,0.00,VWS V14.01,2013-01-08 21:27:00,
2013-01-09 11:28:00,59.0,48.5,30.16,NW,325,0.0,3.0,68,0.00,,SKC,0.00,VWS V14.01,2013-01-08 21:28:00,
2013-01-09 11:29:00,59.1,48.6,30.16,NW,325,2.0,2.0,68,0.00,,SKC,0.00,VWS V14.01,2013-01-08 21:29:00,
2013-01-09 11:30:00,59.1,48.2,30.15,NW,325,0.0,3.0,67,0.00,,SKC,0.00,VWS V14.01,2013-01-08 21:30:00,
2013-01-09 11:31:00,58.7,47.4,30.15,NNE,12,3.0,3.0,66,0.00,,,0.00,VWS V14.01,2013-01-08 21:31:00,
2013-01-09 11:32:00,58.7,47.4,30.15,NNE,13,0.0,2.0,66,0.00,,SKC,0.00,VWS V14.01,2013-01-08 21:32:00,
2013-01-09 11:33:00,58.8,47.5,30.15,North,5,4.0,4.0,66,0.00,,SKC,0.00,VWS V14.01,2013-01-08 21:33:00,
2013-01-09 11:34:00,58.8,47.9,30.15,North,5,2.0,4.0,67,0.00,,SKC,0.00,VWS V14.01,2013-01-08 21:34:00,
2013-01-09 11:35:00,59.0,48.1,30.15,North,5,1.0,3.0,67,0.00,,SKC,0.00,VWS V14.01,2013-01-08 21:35:00,
2013-01-09 11:36:00,59.4,48.0,30.15,North,5,0.0,0.0,66,0.00,,,0.00,VWS V14.01,2013-01-08 21:36:00,
2013-01-09 11:37:00,59.3,48.0,30.15,North,5,0.0,1.0,66,0.00,,SKC,0.00,VWS V14.01,2013-01-08 21:37:00,
2013-01-09 11:38:00,59.4,48.0,30.15,North,5,0.0,0.0,66,0.00,,SKC,0.00,VWS V14.01,2013-01-08 21:38:00,
2013-01-09 11:39:00,59.6,48.6,30.15,North,5,1.0,2.0,67,0.00,,SKC,0.00,VWS V14.01,2013-01-08 21:39:00,
2013-01-09 11:40:00,59.8,48.4,30.15,North,5,2.0,2.0,66,0.00,,SKC,0.00,VWS V14.01,2013-01-08 21:40:00,
2013-01-09 11:41:00,60.3,48.5,30.15,North,9,4.0,4.0,65,0.00,,,0.00,VWS V14.01,2013-01-08 21:41:00,
2013-01-09 11:42:00,60.2,48.4,30.15,North,5,1.0,2.0,65,0.00,,SKC,0.00,VWS V14.01,2013-01-08 21:42:00,
2013-01-09 11:43:00,60.4,48.2,30.15,North,9,1.0,4.0,64,0.00,,SKC,0.00,VWS V14.01,2013-01-08 21:43:00,
2013-01-09 11:44:00,60.3,48.1,30.15,North,9,1.0,2.0,64,0.00,,SKC,0.00,VWS V14.01,2013-01-08 21:44:00,
2013-01-09 11:45:00,60.3,48.5,30.15,North,9,0.0,1.0,65,0.00,,SKC,0.00,VWS V14.01,2013-01-08 21:45:00,
2013-01-09 11:46:00,60.5,48.7,30.15,North,9,0.0,2.0,65,0.00,,,0.00,VWS V14.01,2013-01-08 21:46:00,
2013-01-09 11:47:00,60.3,48.5,30.15,North,9,0.0,1.0,65,0.00,,SKC,0.00,VWS V14.01,2013-01-08 21:47:00,
2013-01-09 11:48:00,60.7,48.5,30.15,North,9,1.0,2.0,64,0.00,,SKC,0.00,VWS V14.01,2013-01-08 21:48:00,
2013-01-09 11:49:00,60.8,47.7,30.15,NNW,336,2.0,4.0,62,0.00,,SKC,0.00,VWS V14.01,2013-01-08 21:49:00,
2013-01-09 11:50:00,60.8,48.1,30.15,NNW,329,1.0,3.0,63,0.00,,SKC,0.00,VWS V14.01,2013-01-08 21:50:00,
2013-01-09 11:51:00,60.7,47.6,30.15,NNW,340,0.0,1.0,62,0.00,,,0.00,VWS V14.01,2013-01-08 21:51:00,
2013-01-09 11:52:00,60.8,48.1,30.15,NNW,340,1.0,2.0,63,0.00,,SKC,0.00,VWS V14.01,2013-01-08 21:52:00,
2013-01-09 11:53:00,60.6,48.0,30.15,NNW,340,0.0,1.0,63,0.00,,SKC,0.00,VWS V14.01,2013-01-08 21:53:00,
2013-01-09 11:54:00,60.7,48.0,30.15,NNW,340,0.0,0.0,63,0.00,,SKC,0.00,VWS V14.01,2013-01-08 21:54:00,
2013-01-09 11:55:00,60.5,47.4,30.15,NNW,340,2.0,2.0,62,0.00,,SKC,0.00,VWS V14.01,2013-01-08 21:55:00,
2013-01-09 11:56:00,60.9,48.2,30.15,NNW,335,0.0,1.0,63,0.00,,,0.00,VWS V14.01,2013-01-08 21:56:00,
2013-01-09 11:57:00,60.8,48.6,30.15,NNW,335,0.0,1.0,64,0.00,,SKC,0.00,VWS V14.01,2013-01-08 21:57:00,
2013-01-09 11:58:00,60.9,48.2,30.15,NNW,335,0.0,2.0,63,0.00,,SKC,0.00,VWS V14.01,2013-01-08 21:58:00,
2013-01-09 11:59:00,60.7,48.0,30.15,NNW,341,1.0,2.0,63,0.00,,SKC,0.00,VWS V14.01,2013-01-08 21:59:00,
2013-01-09 12:00:00,60.7,47.6,30.15,NNW,341,1.0,2.0,62,0.00,,SKC,0.00,VWS V14.01,2013-01-08 22:00:00,
2013-01-09 12:01:00,60.8,47.7,30.15,NNW,341,0.0,1.0,62,0.00,,SKC,0.00,VWS V14.01,2013-01-08 22:01:00,
2013-01-09 12:02:00,60.6,47.5,30.15,NNW,341,1.0,1.0,62,0.00,,SKC,0.00,VWS V14.01,2013-01-08 22:02:00,
2013-01-09 12:03:00,60.8,47.7,30.15,NNW,341,0.0,1.0,62,0.00,,SKC,0.00,VWS V14.01,2013-01-08 22:03:00,
2013-01-09 12:04:00,60.9,47.8,30.15,NNW,341,0.0,1.0,62,0.00,,SKC,0.00,VWS V14.01,2013-01-08 22:04:00,
2013-01-09 12:05:00,60.7,47.2,30.15,NNW,341,0.0,1.0,61,0.00,,SKC,0.00,VWS V14.01,2013-01-08 22:05:00,
2013-01-09 12:06:00,60.4,47.3,30.15,NNW,341,1.0,1.0,62,0.00,,SKC,0.00,VWS V14.01,2013-01-08 22:06:00,
2013-01-09 12:07:00,60.5,47.4,30.15,NNW,341,0.0,1.0,62,0.00,,SKC,0.00,VWS V14.01,2013-01-08 22:07:00,
2013-01-09 12:08:00,60.4,47.3,30.15,NNW,341,0.0,1.0,62,0.00,,SKC,0.00,VWS V14.01,2013-01-08 22:08:00,
2013-01-09 12:09:00,60.4,47.8,30.15,NNW,341,0.0,1.0,63,0.00,,SKC,0.00,VWS V14.01,2013-01-08 22:09:00,
2013-01-09 12:10:00,60.6,48.0,30.15,NNW,341,2.0,2.0,63,0.00,,SKC,0.00,VWS V14.01,2013-01-08 22:10:00,
2013-01-09 12:11:00,60.7,47.2,30.15,NNW,341,1.0,1.0,61,0.00,,SKC,0.00,VWS V14.01,2013-01-08 22:11:00,
2013-01-09 12:12:00,60.7,47.2,30.15,NNW,341,1.0,1.0,61,0.00,,SKC,0.00,VWS V14.01,2013-01-08 22:12:00,
2013-01-09 12:13:00,60.6,47.1,30.15,NNW,341,1.0,1.0,61,0.00,,SKC,0.00,VWS V14.01,2013-01-08 22:13:00,
2013-01-09 12:14:00,60.5,47.4,30.15,NNW,341,1.0,1.0,62,0.00,,SKC,0.00,VWS V14.01,2013-01-08 22:14:00,
2013-01-09 12:15:00,60.4,47.3,30.15,NNW,341,2.0,2.0,62,0.00,,SKC,0.00,VWS V14.01,2013-01-08 22:15:00,
2013-01-09 12:16:00,60.2,47.2,30.15,ENE,61,2.0,2.0,62,0.00,,SKC,0.00,VWS V14.01,2013-01-08 22:16:00,
2013-01-09 12:17:00,60.2,47.2,30.15,ENE,59,2.0,3.0,62,0.00,,SKC,0.00,VWS V14.01,2013-01-08 22:17:00,
2013-01-09 12:18:00,60.2,47.2,30.15,ENE,61,1.0,2.0,62,0.00,,SKC,0.00,VWS V14.01,2013-01-08 22:18:00,
2013-01-09 12:19:00,60.2,47.6,30.15,ENE,61,1.0,2.0,63,0.00,,SKC,0.00,VWS V14.01,2013-01-08 22:19:00,
2013-01-09 12:20:00,60.2,47.6,30.15,ENE,61,0.0,1.0,63,0.00,,SKC,0.00,VWS V14.01,2013-01-08 22:20:00,
2013-01-09 12:21:00,60.8,47.7,30.15,NE,35,1.0,2.0,62,0.00,,SKC,0.00,VWS V14.01,2013-01-08 22:21:00,
2013-01-09 12:22:00,60.8,48.1,30.15,NE,35,2.0,3.0,63,0.00,,SKC,0.00,VWS V14.01,2013-01-08 22:22:00,
2013-01-09 12:23:00,60.9,47.8,30.15,NE,35,0.0,2.0,62,0.00,,SKC,0.00,VWS V14.01,2013-01-08 22:23:00,
2013-01-09 12:24:00,60.9,47.8,30.15,NE,35,0.0,2.0,62,0.00,,SKC,0.00,VWS V14.01,2013-01-08 22:24:00,
2013-01-09 12:25:00,60.9,47.8,30.15,NE,34,2.0,3.0,62,0.00,,SKC,0.00,VWS V14.01,2013-01-08 22:25:00,
2013-01-09 12:26:00,61.0,47.9,30.15,NE,34,0.0,1.0,62,0.00,,SKC,0.00,VWS V14.01,2013-01-08 22:26:00,
2013-01-09 12:27:00,60.9,47.4,30.15,NE,34,0.0,1.0,61,0.00,,SKC,0.00,VWS V14.01,2013-01-08 22:27:00,
2013-01-09 12:28:00,61.2,47.7,30.15,NE,34,0.0,1.0,61,0.00,,SKC,0.00,VWS V14.01,2013-01-08 22:28:00,
2013-01-09 12:29:00,61.5,47.9,30.15,NNW,336,2.0,4.0,61,0.00,,SKC,0.00,VWS V14.01,2013-01-08 22:29:00,
2013-01-09 12:30:00,61.6,48.0,30.15,NNW,336,2.0,3.0,61,0.00,,SKC,0.00,VWS V14.01,2013-01-08 22:30:00,
2013-01-09 12:31:00,61.3,47.3,30.15,NNW,336,0.0,2.0,60,0.00,,SKC,0.00,VWS V14.01,2013-01-08 22:31:00,
2013-01-09 12:32:00,61.4,47.4,30.15,NNW,336,2.0,4.0,60,0.00,,SKC,0.00,VWS V14.01,2013-01-08 22:32:00,
2013-01-09 12:33:00,61.2,47.2,30.15,NNW,336,0.0,2.0,60,0.00,,SKC,0.00,VWS V14.01,2013-01-08 22:33:00,
2013-01-09 12:34:00,61.3,47.3,30.15,NNW,336,0.0,1.0,60,0.00,,SKC,0.00,VWS V14.01,2013-01-08 22:34:00,
2013-01-09 12:35:00,61.2,47.2,30.15,NNW,336,0.0,2.0,60,0.00,,SKC,0.00,VWS V14.01,2013-01-08 22:35:00,
2013-01-09 12:36:00,61.4,47.4,30.15,NNW,336,0.0,1.0,60,0.00,,SKC,0.00,VWS V14.01,2013-01-08 22:36:00,
2013-01-09 12:37:00,61.4,47.8,30.15,NNW,336,0.0,1.0,61,0.00,,SKC,0.00,VWS V14.01,2013-01-08 22:37:00,
2013-01-09 12:38:00,61.5,47.5,30.15,NNW,336,0.0,1.0,60,0.00,,SKC,0.00,VWS V14.01,2013-01-08 22:38:00,
2013-01-09 12:39:00,61.6,48.0,30.15,NNW,336,0.0,0.0,61,0.00,,SKC,0.00,VWS V14.01,2013-01-08 22:39:00,
2013-01-09 12:40:00,61.9,48.3,30.15,NNW,336,1.0,1.0,61,0.00,,SKC,0.00,VWS V14.01,2013-01-08 22:40:00,
2013-01-09 12:41:00,61.5,47.5,30.15,NNW,336,0.0,1.0,60,0.00,,SKC,0.00,VWS V14.01,2013-01-08 22:41:00,
2013-01-09 12:42:00,61.6,47.6,30.15,NNW,336,1.0,1.0,60,0.00,,SKC,0.00,VWS V14.01,2013-01-08 22:42:00,
2013-01-09 12:43:00,61.4,47.4,30.15,NNW,336,0.0,1.0,60,0.00,,SKC,0.00,VWS V14.01,2013-01-08 22:43:00,
2013-01-09 12:44:00,61.4,47.4,30.15,NNW,336,0.0,0.0,60,0.00,,SKC,0.00,VWS V14.01,2013-01-08 22:44:00,
2013-01-09 12:45:00,61.4,47.8,30.15,NNW,336,0.0,2.0,61,0.00,,SKC,0.00,VWS V14.01,2013-01-08 22:45:00,
2013-01-09 12:46:00,61.3,47.8,30.15,NNE,16,0.0,2.0,61,0.00,,SKC,0.00,VWS V14.01,2013-01-08 22:46:00,
2013-01-09 12:47:00,61.4,47.8,30.15,NNE,16,2.0,2.0,61,0.00,,SKC,0.00,VWS V14.01,2013-01-08 22:47:00,
2013-01-09 12:48:00,61.3,47.8,30.15,NNE,16,0.0,2.0,61,0.00,,SKC,0.00,VWS V14.01,2013-01-08 22:48:00,
2013-01-09 12:49:00,61.3,47.8,30.15,NNE,16,0.0,1.0,61,0.00,,SKC,0.00,VWS V14.01,2013-01-08 22:49:00,
2013-01-09 12:50:00,61.3,48.2,30.15,NNE,16,1.0,1.0,62,0.00,,SKC,0.00,VWS V14.01,2013-01-08 22:50:00,
2013-01-09 12:51:00,61.5,48.4,30.15,NNE,16,1.0,1.0,62,0.00,,SKC,0.00,VWS V14.01,2013-01-08 22:51:00,
2013-01-09 12:52:00,61.4,48.3,30.15,NNE,16,1.0,2.0,62,0.00,,SKC,0.00,VWS V14.01,2013-01-08 22:52:00,
2013-01-09 12:53:00,61.6,48.5,30.15,NNE,16,1.0,1.0,62,0.00,,SKC,0.00,VWS V14.01,2013-01-08 22:53:00,
2013-01-09 12:54:00,61.9,48.8,30.15,NNE,16,1.0,2.0,62,0.00,,SKC,0.00,VWS V14.01,2013-01-08 22:54:00,
2013-01-09 12:55:00,62.0,48.4,30.15,NNE,16,0.0,2.0,61,0.00,,SKC,0.00,VWS V14.01,2013-01-08 22:55:00,
2013-01-09 12:56:00,61.4,47.8,30.15,NNE,16,1.0,2.0,61,0.00,,SKC,0.00,VWS V14.01,2013-01-08 22:56:00,
2013-01-09 12:57:00,61.5,47.9,30.15,NNE,16,2.0,2.0,61,0.00,,SKC,0.00,VWS V14.01,2013-01-08 22:57:00,
2013-01-09 12:58:00,61.3,47.8,30.15,NNE,16,1.0,2.0,61,0.00,,SKC,0.00,VWS V14.01,2013-01-08 22:58:00,
2013-01-09 12:59:00,61.3,47.8,30.15,NNE,16,0.0,1.0,61,0.00,,SKC,0.00,VWS V14.01,2013-01-08 22:59:00,
2013-01-09 13:00:00,61.2,47.7,30.15,NNE,16,0.0,1.0,61,0.00,,SKC,0.00,VWS V14.01,2013-01-08 23:00:00,
2013-01-09 13:01:00,61.6,48.0,30.15,NNE,30,2.0,3.0,61,0.00,,SKC,0.00,VWS V14.01,2013-01-08 23:01:00,
2013-01-09 13:02:00,61.6,48.5,30.15,NNE,16,0.0,1.0,62,0.00,,SKC,0.00,VWS V14.01,2013-01-08 23:02:00,
2013-01-09 13:03:00,61.6,48.0,30.15,NNE,30,0.0,3.0,61,0.00,,SKC,0.00,VWS V14.01,2013-01-08 23:03:00,
2013-01-09 13:04:00,61.5,47.9,30.15,NNE,30,0.0,2.0,61,0.00,,SKC,0.00,VWS V14.01,2013-01-08 23:04:00,
2013-01-09 13:05:00,61.4,47.8,30.15,NNE,30,0.0,1.0,61,0.00,,SKC,0.00,VWS V14.01,2013-01-08 23:05:00,
2013-01-09 13:06:00,61.5,48.4,30.15,NNE,30,1.0,1.0,62,0.00,,SKC,0.00,VWS V14.01,2013-01-08 23:06:00,
2013-01-09 13:07:00,61.4,47.8,30.15,NNE,30,1.0,1.0,61,0.00,,SKC,0.00,VWS V14.01,2013-01-08 23:07:00,
2013-01-09 13:08:00,61.5,48.4,30.15,NNE,30,0.0,1.0,62,0.00,,SKC,0.00,VWS V14.01,2013-01-08 23:08:00,
2013-01-09 13:09:00,61.5,47.9,30.15,NNE,30,0.0,0.0,61,0.00,,SKC,0.00,VWS V14.01,2013-01-08 23:09:00,
2013-01-09 13:10:00,61.6,48.0,30.15,NNE,30,0.0,1.0,61,0.00,,SKC,0.00,VWS V14.01,2013-01-08 23:10:00,
2013-01-09 13:11:00,61.7,48.1,30.15,NNE,30,1.0,1.0,61,0.00,,SKC,0.00,VWS V14.01,2013-01-08 23:11:00,
2013-01-09 13:12:00,61.7,48.1,30.15,NNE,30,0.0,1.0,61,0.00,,SKC,0.00,VWS V14.01,2013-01-08 23:12:00,
2013-01-09 13:13:00,61.6,48.0,30.15,NNE,30,0.0,1.0,61,0.00,,SKC,0.00,VWS V14.01,2013-01-08 23:13:00,
2013-01-09 13:14:00,61.6,47.6,30.15,NNE,30,0.0,1.0,60,0.00,,SKC,0.00,VWS V14.01,2013-01-08 23:14:00,
2013-01-09 13:15:00,61.6,48.0,30.15,NNE,30,1.0,2.0,61,0.00,,SKC,0.00,VWS V14.01,2013-01-08 23:15:00,
2013-01-09 13:16:00,61.4,47.8,30.15,NE,40,2.0,2.0,61,0.00,,SKC,0.00,VWS V14.01,2013-01-08 23:16:00,
2013-01-09 13:17:00,61.4,47.8,30.15,NE,40,1.0,3.0,61,0.00,,SKC,0.00,VWS V14.01,2013-01-08 23:17:00,
2013-01-09 13:20:00,61.1,48.0,30.15,NE,40,0.0,0.0,62,0.00,,SKC,0.00,VWS V14.01,2013-01-08 23:20:00,
2013-01-09 13:21:00,61.2,47.7,30.15,NE,40,1.0,1.0,61,0.00,,SKC,0.00,VWS V14.01,2013-01-08 23:21:00,
2013-01-09 13:22:00,61.2,47.7,30.15,NE,40,0.0,1.0,61,0.00,,SKC,0.00,VWS V14.01,2013-01-08 23:22:00,
2013-01-09 13:23:00,61.1,48.0,30.15,NE,40,0.0,2.0,62,0.00,,SKC,0.00,VWS V14.01,2013-01-08 23:23:00,
2013-01-09 13:24:00,61.1,47.6,30.15,NE,40,0.0,1.0,61,0.00,,SKC,0.00,VWS V14.01,2013-01-08 23:24:00,
2013-01-09 13:25:00,61.3,47.8,30.15,NE,40,0.0,2.0,61,0.00,,SKC,0.00,VWS V14.01,2013-01-08 23:25:00,
2013-01-09 13:26:00,61.2,47.7,30.14,NE,40,0.0,0.0,61,0.00,,SKC,0.00,VWS V14.01,2013-01-08 23:26:00,
2013-01-09 13:27:00,61.3,47.8,30.14,NE,40,0.0,2.0,61,0.00,,SKC,0.00,VWS V14.01,2013-01-08 23:27:00,
2013-01-09 13:28:00,61.2,47.7,30.14,NE,40,1.0,2.0,61,0.00,,SKC,0.00,VWS V14.01,2013-01-08 23:28:00,
2013-01-09 13:29:00,61.1,47.6,30.14,NE,40,2.0,2.0,61,0.00,,SKC,0.00,VWS V14.01,2013-01-08 23:29:00,
2013-01-09 13:30:00,61.0,47.5,30.15,NE,44,3.0,4.0,61,0.00,,SKC,0.00,VWS V14.01,2013-01-08 23:30:00,
2013-01-09 13:31:00,60.8,47.3,30.15,NE,44,1.0,1.0,61,0.00,,SKC,0.00,VWS V14.01,2013-01-08 23:31:00,
2013-01-09 13:32:00,60.9,47.4,30.15,NE,44,0.0,2.0,61,0.00,,SKC,0.00,VWS V14.01,2013-01-08 23:32:00,
2013-01-09 13:33:00,60.8,47.3,30.15,NE,44,2.0,2.0,61,0.00,,SKC,0.00,VWS V14.01,2013-01-08 23:33:00,
2013-01-09 13:34:00,60.7,47.2,30.15,NE,44,1.0,2.0,61,0.00,,SKC,0.00,VWS V14.01,2013-01-08 23:34:00,
2013-01-09 13:35:00,60.7,47.2,30.15,NE,44,0.0,1.0,61,0.00,,SKC,0.00,VWS V14.01,2013-01-08 23:35:00,
2013-01-09 13:36:00,60.5,47.4,30.15,NE,44,2.0,2.0,62,0.00,,SKC,0.00,VWS V14.01,2013-01-08 23:36:00,
2013-01-09 13:37:00,60.6,47.5,30.15,NE,44,2.0,2.0,62,0.00,,SKC,0.00,VWS V14.01,2013-01-08 23:37:00,
2013-01-09 13:38:00,60.5,47.0,30.14,NE,44,2.0,2.0,61,0.00,,SKC,0.00,VWS V14.01,2013-01-08 23:38:00,
2013-01-09 13:39:00,60.4,46.9,30.14,NE,44,2.0,3.0,61,0.00,,SKC,0.00,VWS V14.01,2013-01-08 23:39:00,
2013-01-09 13:40:00,60.4,47.3,30.14,NE,44,1.0,2.0,62,0.00,,SKC,0.00,VWS V14.01,2013-01-08 23:40:00,
2013-01-09 13:41:00,60.2,47.2,30.14,NE,44,0.0,1.0,62,0.00,,SKC,0.00,VWS V14.01,2013-01-08 23:41:00,
2013-01-09 13:42:00,60.3,46.8,30.14,NE,44,0.0,1.0,61,0.00,,SKC,0.00,VWS V14.01,2013-01-08 23:42:00,
2013-01-09 13:43:00,60.2,47.2,30.14,NE,44,2.0,2.0,62,0.00,,SKC,0.00,VWS V14.01,2013-01-08 23:43:00,
2013-01-09 13:44:00,60.2,47.2,30.14,NE,44,1.0,2.0,62,0.00,,SKC,0.00,VWS V14.01,2013-01-08 23:44:00,
2013-01-09 13:45:00,60.2,47.2,30.14,NE,44,1.0,2.0,62,0.00,,SKC,0.00,VWS V14.01,2013-01-08 23:45:00,
2013-01-09 13:46:00,60.1,47.0,30.14,NE,44,2.0,3.0,62,0.00,,SKC,0.00,VWS V14.01,2013-01-08 23:46:00,
2013-01-09 13:47:00,60.2,47.2,30.14,NE,44,2.0,2.0,62,0.00,,SKC,0.00,VWS V14.01,2013-01-08 23:47:00,
2013-01-09 13:48:00,60.1,47.0,30.14,NE,44,1.0,3.0,62,0.00,,SKC,0.00,VWS V14.01,2013-01-08 23:48:00,
2013-01-09 13:49:00,60.1,47.0,30.14,NE,44,0.0,1.0,62,0.00,,SKC,0.00,VWS V14.01,2013-01-08 23:49:00,
2013-01-09 13:50:00,60.1,47.5,30.14,NE,44,0.0,1.0,63,0.00,,SKC,0.00,VWS V14.01,2013-01-08 23:50:00,
2013-01-09 13:51:00,60.0,47.4,30.14,NE,44,0.0,0.0,63,0.00,,SKC,0.00,VWS V14.01,2013-01-08 23:51:00,
2013-01-09 13:52:00,60.0,47.4,30.14,NE,44,0.0,2.0,63,0.00,,SKC,0.00,VWS V14.01,2013-01-08 23:52:00,
2013-01-09 13:53:00,60.0,47.4,30.14,NE,44,0.0,0.0,63,0.00,,SKC,0.00,VWS V14.01,2013-01-08 23:53:00,
2013-01-09 13:54:00,60.0,47.8,30.14,NE,44,0.0,0.0,64,0.00,,SKC,0.00,VWS V14.01,2013-01-08 23:54:00,
2013-01-09 13:55:00,60.0,47.8,30.14,NE,44,1.0,1.0,64,0.00,,SKC,0.00,VWS V14.01,2013-01-08 23:55:00,
2013-01-09 13:56:00,59.9,47.3,30.14,NE,44,1.0,1.0,63,0.00,,SKC,0.00,VWS V14.01,2013-01-08 23:56:00,
2013-01-09 13:57:00,59.9,47.3,30.13,NE,44,0.0,1.0,63,0.00,,SKC,0.00,VWS V14.01,2013-01-08 23:57:00,
2013-01-09 13:58:00,59.9,47.3,30.14,NE,44,0.0,1.0,63,0.00,,SKC,0.00,VWS V14.01,2013-01-08 23:58:00,
2013-01-09 13:59:00,59.9,47.7,30.13,NE,44,2.0,3.0,64,0.00,,SKC,0.00,VWS V14.01,2013-01-08 23:59:00,
2013-01-09 14:00:00,59.8,47.2,30.13,NE,44,3.0,3.0,63,0.00,,SKC,0.00,VWS V14.01,2013-01-09 00:00:00,
2013-01-09 14:01:00,59.6,47.0,30.14,NE,44,2.0,2.0,63,0.00,,SCT200,0.00,VWS V14.01,2013-01-09 00:01:00,
2013-01-09 14:02:00,59.7,47.1,30.13,NE,44,2.0,3.0,63,0.00,,SKC,0.00,VWS V14.01,2013-01-09 00:02:00,
2013-01-09 14:03:00,59.6,47.0,30.14,NE,44,1.0,2.0,63,0.00,,SKC,0.00,VWS V14.01,2013-01-09 00:03:00,
2013-01-09 14:04:00,59.6,47.0,30.13,NE,44,0.0,2.0,63,0.00,,SKC,0.00,VWS V14.01,2013-01-09 00:04:00,
2013-01-09 14:05:00,59.5,47.3,30.13,NE,44,0.0,2.0,64,0.00,,SKC,0.00,VWS V14.01,2013-01-09 00:05:00,
2013-01-09 14:06:00,59.4,47.2,30.13,NE,44,1.0,2.0,64,0.00,,SCT200,0.00,VWS V14.01,2013-01-09 00:06:00,
2013-01-09 14:07:00,59.4,47.2,30.13,NE,44,1.0,2.0,64,0.00,,SKC,0.00,VWS V14.01,2013-01-09 00:07:00,
2013-01-09 14:08:00,59.4,47.2,30.13,NE,44,1.0,4.0,64,0.00,,SKC,0.00,VWS V14.01,2013-01-09 00:08:00,
2013-01-09 14:09:00,59.3,47.1,30.13,NE,44,2.0,2.0,64,0.00,,SKC,0.00,VWS V14.01,2013-01-09 00:09:00,
2013-01-09 14:10:00,59.3,47.1,30.13,NE,44,1.0,3.0,64,0.00,,SKC,0.00,VWS V14.01,2013-01-09 00:10:00,
2013-01-09 14:11:00,59.2,47.5,30.13,NE,44,1.0,1.0,65,0.00,,SCT200,0.00,VWS V14.01,2013-01-09 00:11:00,
2013-01-09 14:15:00,59.0,47.3,30.13,NE,44,0.0,1.0,65,0.00,,SKC,0.00,VWS V14.01,2013-01-09 00:15:00,
2013-01-09 14:16:00,58.9,47.6,30.13,NE,44,0.0,1.0,66,0.00,,SCT200,0.00,VWS V14.01,2013-01-09 00:16:00,
2013-01-09 14:17:00,58.9,47.6,30.13,NE,44,0.0,0.0,66,0.00,,SKC,0.00,VWS V14.01,2013-01-09 00:17:00,
2013-01-09 14:18:00,58.9,47.6,30.13,NE,44,0.0,1.0,66,0.00,,SKC,0.00,VWS V14.01,2013-01-09 00:18:00,
2013-01-09 14:19:00,58.9,48.0,30.13,NE,44,1.0,1.0,67,0.00,,SKC,0.00,VWS V14.01,2013-01-09 00:19:00,
2013-01-09 14:20:00,58.9,47.6,30.13,NE,44,1.0,1.0,66,0.00,,SKC,0.00,VWS V14.01,2013-01-09 00:20:00,
2013-01-09 14:21:00,58.9,47.2,30.13,NE,44,0.0,1.0,65,0.00,,SCT200,0.00,VWS V14.01,2013-01-09 00:21:00,
2013-01-09 14:22:00,58.9,47.2,30.13,NE,44,0.0,1.0,65,0.00,,SKC,0.00,VWS V14.01,2013-01-09 00:22:00,
2013-01-09 14:23:00,58.9,47.2,30.13,NE,44,0.0,1.0,65,0.00,,SKC,0.00,VWS V14.01,2013-01-09 00:23:00,
2013-01-09 14:24:00,58.8,47.5,30.13,NE,44,0.0,1.0,66,0.00,,SKC,0.00,VWS V14.01,2013-01-09 00:24:00,
2013-01-09 14:25:00,58.7,47.0,30.13,NE,44,0.0,0.0,65,0.00,,SKC,0.00,VWS V14.01,2013-01-09 00:25:00,
2013-01-09 14:26:00,58.6,47.3,30.13,NE,44,2.0,2.0,66,0.00,,SCT200,0.00,VWS V14.01,2013-01-09 00:26:00,
2013-01-09 14:28:00,58.7,47.4,30.13,NE,44,1.0,2.0,66,0.00,,SKC,0.00,VWS V14.01,2013-01-09 00:28:00,
2013-01-09 14:29:00,58.6,47.7,30.13,NE,44,0.0,1.0,67,0.00,,SKC,0.00,VWS V14.01,2013-01-09 00:29:00,
2013-01-09 14:30:00,58.5,47.6,30.13,NE,44,0.0,0.0,67,0.00,,SKC,0.00,VWS V14.01,2013-01-09 00:30:00,
2013-01-09 14:31:00,58.3,47.4,30.13,NE,44,0.0,1.0,67,0.00,,SCT200,0.00,VWS V14.01,2013-01-09 00:31:00,
2013-01-09 14:32:00,58.3,47.4,30.13,NE,44,1.0,1.0,67,0.00,,SKC,0.00,VWS V14.01,2013-01-09 00:32:00,
2013-01-09 14:34:00,58.2,47.7,30.13,NE,44,0.0,0.0,68,0.00,,SKC,0.00,VWS V14.01,2013-01-09 00:34:00,
2013-01-09 14:35:00,58.2,47.3,30.13,NE,44,1.0,2.0,67,0.00,,SKC,0.00,VWS V14.01,2013-01-09 00:35:00,
2013-01-09 14:36:00,58.2,47.3,30.13,NE,44,1.0,3.0,67,0.00,,SCT200,0.00,VWS V14.01,2013-01-09 00:36:00,
2013-01-09 14:37:00,58.2,47.3,30.13,NE,44,2.0,2.0,67,0.00,,SKC,0.00,VWS V14.01,2013-01-09 00:37:00,
2013-01-09 14:38:00,58.2,46.9,30.13,NE,53,3.0,5.0,66,0.00,,SKC,0.00,VWS V14.01,2013-01-09 00:38:00,
2013-01-09 14:39:00,58.2,46.5,30.13,NE,53,2.0,4.0,65,0.00,,SKC,0.00,VWS V14.01,2013-01-09 00:39:00,
2013-01-09 14:40:00,58.3,46.6,30.13,NE,53,1.0,3.0,65,0.00,,SKC,0.00,VWS V14.01,2013-01-09 00:40:00,
2013-01-09 14:41:00,58.3,47.0,30.13,NE,53,1.0,1.0,66,0.00,,SCT200,0.00,VWS V14.01,2013-01-09 00:41:00,
2013-01-09 14:42:00,58.3,46.6,30.13,NE,53,1.0,1.0,65,0.00,,SKC,0.00,VWS V14.01,2013-01-09 00:42:00,
2013-01-09 14:43:00,58.2,46.9,30.13,NE,53,1.0,1.0,66,0.00,,SKC,0.00,VWS V14.01,2013-01-09 00:43:00,
2013-01-09 14:44:00,58.1,46.8,30.13,NE,53,0.0,2.0,66,0.00,,SKC,0.00,VWS V14.01,2013-01-09 00:44:00,
2013-01-09 14:45:00,58.0,46.7,30.13,NE,53,0.0,1.0,66,0.00,,SKC,0.00,VWS V14.01,2013-01-09 00:45:00,
2013-01-09 14:46:00,57.8,46.5,30.13,NE,53,0.0,1.0,66,0.00,,SCT200,0.00,VWS V14.01,2013-01-09 00:46:00,
2013-01-09 14:47:00,57.9,46.6,30.13,NE,53,1.0,1.0,66,0.00,,SKC,0.00,VWS V14.01,2013-01-09 00:47:00,
2013-01-09 14:48:00,57.8,46.5,30.13,NE,53,0.0,1.0,66,0.00,,SKC,0.00,VWS V14.01,2013-01-09 00:48:00,
2013-01-09 14:49:00,57.8,46.9,30.13,NE,53,0.0,1.0,67,0.00,,SKC,0.00,VWS V14.01,2013-01-09 00:49:00,
2013-01-09 14:50:00,57.7,46.8,30.13,NE,53,0.0,1.0,67,0.00,,SKC,0.00,VWS V14.01,2013-01-09 00:50:00,
2013-01-09 14:51:00,57.5,46.6,30.13,NE,53,0.0,1.0,67,0.00,,SCT200,0.00,VWS V14.01,2013-01-09 00:51:00,
2013-01-09 14:52:00,57.5,46.6,30.13,NE,53,1.0,1.0,67,0.00,,SKC,0.00,VWS V14.01,2013-01-09 00:52:00,
2013-01-09 14:54:00,57.3,46.5,30.13,NE,53,0.0,1.0,67,0.00,,SKC,0.00,VWS V14.01,2013-01-09 00:54:00,
2013-01-09 14:55:00,57.2,46.8,30.13,NE,53,0.0,1.0,68,0.00,,SKC,0.00,VWS V14.01,2013-01-09 00:55:00,
2013-01-09 14:56:00,57.0,46.6,30.13,NE,53,0.0,1.0,68,0.00,,SCT200,0.00,VWS V14.01,2013-01-09 00:56:00,
2013-01-09 14:57:00,57.1,46.7,30.13,NE,53,1.0,2.0,68,0.00,,SKC,0.00,VWS V14.01,2013-01-09 00:57:00,
2013-01-09 14:58:00,57.0,46.6,30.13,NE,53,1.0,2.0,68,0.00,,SKC,0.00,VWS V14.01,2013-01-09 00:58:00,
2013-01-09 14:59:00,57.0,46.9,30.12,North,5,4.0,4.0,69,0.00,,SKC,0.00,VWS V14.01,2013-01-09 00:59:00,
2013-01-09 15:00:00,57.0,46.6,30.12,North,5,1.0,4.0,68,0.00,,SKC,0.00,VWS V14.01,2013-01-09 01:00:00,
2013-01-09 15:01:00,56.8,46.8,30.12,North,5,0.0,0.0,69,0.00,,SCT200,0.00,VWS V14.01,2013-01-09 01:01:00,
2013-01-09 15:03:00,56.7,47.0,30.12,North,5,0.0,1.0,70,0.00,,SKC,0.00,VWS V14.01,2013-01-09 01:03:00,
2013-01-09 15:06:00,56.3,47.0,30.12,North,5,0.0,1.0,71,0.00,,SCT200,0.00,VWS V14.01,2013-01-09 01:06:00,
2013-01-09 15:07:00,56.3,47.0,30.12,North,5,1.0,1.0,71,0.00,,SKC,0.00,VWS V14.01,2013-01-09 01:07:00,
2013-01-09 15:08:00,56.2,46.9,30.12,North,5,3.0,3.0,71,0.00,,SKC,0.00,VWS V14.01,2013-01-09 01:08:00,
2013-01-09 15:09:00,56.2,46.9,30.12,North,5,1.0,3.0,71,0.00,,SKC,0.00,VWS V14.01,2013-01-09 01:09:00,
2013-01-09 15:10:00,56.2,46.9,30.13,North,5,3.0,3.0,71,0.00,,SKC,0.00,VWS V14.01,2013-01-09 01:10:00,
2013-01-09 15:11:00,56.2,46.9,30.13,North,5,1.0,1.0,71,0.00,,SCT200,0.00,VWS V14.01,2013-01-09 01:11:00,
2013-01-09 15:12:00,56.1,46.8,30.13,North,5,1.0,1.0,71,0.00,,SKC,0.00,VWS V14.01,2013-01-09 01:12:00,
2013-01-09 15:13:00,56.1,46.8,30.13,North,5,1.0,1.0,71,0.00,,SKC,0.00,VWS V14.01,2013-01-09 01:13:00,
2013-01-09 15:14:00,56.1,46.8,30.13,North,5,1.0,3.0,71,0.00,,SKC,0.00,VWS V14.01,2013-01-09 01:14:00,
2013-01-09 15:15:00,56.1,46.8,30.13,North,5,1.0,1.0,71,0.00,,SKC,0.00,VWS V14.01,2013-01-09 01:15:00,
2013-01-09 15:16:00,56.1,46.8,30.12,North,350,3.0,3.0,71,0.00,,SCT200,0.00,VWS V14.01,2013-01-09 01:16:00,
2013-01-09 15:17:00,56.0,46.4,30.12,North,351,2.0,3.0,70,0.00,,SKC,0.00,VWS V14.01,2013-01-09 01:17:00,
2013-01-09 15:18:00,56.1,46.5,30.12,North,350,1.0,3.0,70,0.00,,SKC,0.00,VWS V14.01,2013-01-09 01:18:00,
2013-01-09 15:19:00,56.1,46.5,30.12,NNW,346,4.0,4.0,70,0.00,,SKC,0.00,VWS V14.01,2013-01-09 01:19:00,
2013-01-09 15:20:00,56.1,46.5,30.12,NNW,346,3.0,4.0,70,0.00,,SKC,0.00,VWS V14.01,2013-01-09 01:20:00,
2013-01-09 15:21:00,56.1,46.5,30.12,NNW,346,2.0,3.0,70,0.00,,SCT200,0.00,VWS V14.01,2013-01-09 01:21:00,
2013-01-09 15:22:00,56.1,46.5,30.12,NNW,346,2.0,4.0,70,0.00,,SKC,0.00,VWS V14.01,2013-01-09 01:22:00,
2013-01-09 15:23:00,56.1,46.5,30.12,NNW,346,4.0,4.0,70,0.00,,SKC,0.00,VWS V14.01,2013-01-09 01:23:00,
2013-01-09 15:24:00,56.1,46.5,30.12,NNW,342,4.0,4.0,70,0.00,,SKC,0.00,VWS V14.01,2013-01-09 01:24:00,
2013-01-09 15:25:00,56.0,46.4,30.12,NNW,344,3.0,4.0,70,0.00,,SKC,0.00,VWS V14.01,2013-01-09 01:25:00,
2013-01-09 15:26:00,55.9,46.3,30.12,NNW,346,1.0,1.0,70,0.00,,SCT200,0.00,VWS V14.01,2013-01-09 01:26:00,
2013-01-09 15:27:00,55.9,46.3,30.12,NNW,346,1.0,3.0,70,0.00,,SKC,0.00,VWS V14.01,2013-01-09 01:27:00,
2013-01-09 15:28:00,55.9,46.3,30.12,NNW,346,0.0,1.0,70,0.00,,SKC,0.00,VWS V14.01,2013-01-09 01:28:00,
2013-01-09 15:29:00,55.8,46.2,30.12,NNW,346,0.0,1.0,70,0.00,,SKC,0.00,VWS V14.01,2013-01-09 01:29:00,
2013-01-09 15:30:00,55.8,46.5,30.12,NNW,345,4.0,4.0,71,0.00,,SKC,0.00,VWS V14.01,2013-01-09 01:30:00,
2013-01-09 15:31:00,55.7,46.5,30.12,NNW,345,2.0,2.0,71,0.00,,SCT200,0.00,VWS V14.01,2013-01-09 01:31:00,
2013-01-09 15:32:00,55.7,46.5,30.12,NNW,344,1.0,3.0,71,0.00,,SKC,0.00,VWS V14.01,2013-01-09 01:32:00,
2013-01-09 15:33:00,55.6,46.4,30.12,NNW,345,1.0,3.0,71,0.00,,SKC,0.00,VWS V14.01,2013-01-09 01:33:00,
2013-01-09 15:34:00,55.6,46.4,30.12,NNW,345,3.0,3.0,71,0.00,,SKC,0.00,VWS V14.01,2013-01-09 01:34:00,
2013-01-09 15:35:00,55.5,46.3,30.12,NNW,346,4.0,4.0,71,0.00,,SKC,0.00,VWS V14.01,2013-01-09 01:35:00,
2013-01-09 15:36:00,55.4,46.5,30.12,NNW,346,3.0,3.0,72,0.00,,SCT200,0.00,VWS V14.01,2013-01-09 01:36:00,
2013-01-09 15:37:00,55.4,46.5,30.12,NNW,346,3.0,3.0,72,0.00,,SKC,0.00,VWS V14.01,2013-01-09 01:37:00,
2013-01-09 15:38:00,55.4,46.5,30.12,NNW,346,2.0,3.0,72,0.00,,SKC,0.00,VWS V14.01,2013-01-09 01:38:00,
2013-01-09 15:39:00,55.3,46.4,30.12,NNW,336,3.0,4.0,72,0.00,,SKC,0.00,VWS V14.01,2013-01-09 01:39:00,
2013-01-09 15:40:00,55.2,46.3,30.12,NNW,336,2.0,3.0,72,0.00,,SKC,0.00,VWS V14.01,2013-01-09 01:40:00,
2013-01-09 15:41:00,55.0,46.5,30.12,NNW,340,3.0,3.0,73,0.00,,SCT200,0.00,VWS V14.01,2013-01-09 01:41:00,
2013-01-09 15:43:00,55.0,46.5,30.12,NW,319,3.0,4.0,73,0.00,,SKC,0.00,VWS V14.01,2013-01-09 01:43:00,
2013-01-09 15:44:00,54.9,46.4,30.12,NW,320,0.0,3.0,73,0.00,,SKC,0.00,VWS V14.01,2013-01-09 01:44:00,
2013-01-09 15:45:00,54.8,46.3,30.12,NNW,333,2.0,4.0,73,0.00,,SKC,0.00,VWS V14.01,2013-01-09 01:45:00,
2013-01-09 15:46:00,54.6,46.5,30.12,NNW,333,0.0,1.0,74,0.00,,SCT200,0.00,VWS V14.01,2013-01-09 01:46:00,
2013-01-09 15:47:00,54.6,46.5,30.12,NNW,333,0.0,1.0,74,0.00,,SKC,0.00,VWS V14.01,2013-01-09 01:47:00,
2013-01-09 15:48:00,54.5,46.4,30.12,NNW,333,0.0,2.0,74,0.00,,SKC,0.00,VWS V14.01,2013-01-09 01:48:00,
2013-01-09 15:49:00,54.4,46.3,30.13,NNW,333,0.0,1.0,74,0.00,,SKC,0.00,VWS V14.01,2013-01-09 01:49:00,
2013-01-09 15:50:00,54.4,46.7,30.13,NNW,333,1.0,1.0,75,0.00,,SKC,0.00,VWS V14.01,2013-01-09 01:50:00,
2013-01-09 15:51:00,54.1,46.4,30.13,NNW,333,0.0,1.0,75,0.00,,SCT200,0.00,VWS V14.01,2013-01-09 01:51:00,
2013-01-09 15:52:00,54.2,46.5,30.13,NNW,333,0.0,0.0,75,0.00,,SKC,0.00,VWS V14.01,2013-01-09 01:52:00,
2013-01-09 15:53:00,54.1,46.4,30.13,NNW,333,0.0,1.0,75,0.00,,SKC,0.00,VWS V14.01,2013-01-09 01:53:00,
2013-01-09 15:54:00,53.9,46.2,30.13,NNW,333,0.0,1.0,75,0.00,,SKC,0.00,VWS V14.01,2013-01-09 01:54:00,
2013-01-09 15:56:00,53.7,46.3,30.13,NNW,333,2.0,2.0,76,0.00,,SCT200,0.00,VWS V14.01,2013-01-09 01:56:00,
2013-01-09 15:57:00,53.7,46.3,30.13,NNW,333,1.0,2.0,76,0.00,,SKC,0.00,VWS V14.01,2013-01-09 01:57:00,
2013-01-09 15:58:00,53.6,46.2,30.13,NNW,333,1.0,2.0,76,0.00,,SKC,0.00,VWS V14.01,2013-01-09 01:58:00,
2013-01-09 15:59:00,53.6,46.2,30.13,NNW,333,1.0,2.0,76,0.00,,SKC,0.00,VWS V14.01,2013-01-09 01:59:00,
2013-01-09 16:00:00,53.5,46.1,30.13,NNW,333,1.0,2.0,76,0.00,,SKC,0.00,VWS V14.01,2013-01-09 02:00:00,
2013-01-09 16:01:00,53.5,46.5,30.13,NNW,333,1.0,1.0,77,0.00,,SKC,0.00,VWS V14.01,2013-01-09 02:01:00,
2013-01-09 16:02:00,53.5,46.5,30.13,NNW,333,1.0,2.0,77,0.00,,SKC,0.00,VWS V14.01,2013-01-09 02:02:00,
2013-01-09 16:03:00,53.5,46.5,30.13,NNW,333,2.0,2.0,77,0.00,,SKC,0.00,VWS V14.01,2013-01-09 02:03:00,
2013-01-09 16:04:00,53.4,46.4,30.13,NNW,333,1.0,2.0,77,0.00,,SKC,0.00,VWS V14.01,2013-01-09 02:04:00,
2013-01-09 16:05:00,53.3,46.3,30.13,NW,313,3.0,3.0,77,0.00,,SKC,0.00,VWS V14.01,2013-01-09 02:05:00,
2013-01-09 16:06:00,53.3,46.3,30.13,NW,313,2.0,2.0,77,0.00,,SKC,0.00,VWS V14.01,2013-01-09 02:06:00,
2013-01-09 16:07:00,53.3,46.3,30.13,NW,313,1.0,2.0,77,0.00,,SKC,0.00,VWS V14.01,2013-01-09 02:07:00,
2013-01-09 16:08:00,53.2,46.2,30.13,NW,313,0.0,2.0,77,0.00,,SKC,0.00,VWS V14.01,2013-01-09 02:08:00,
2013-01-09 16:09:00,53.2,46.2,30.13,WNW,296,3.0,3.0,77,0.00,,SKC,0.00,VWS V14.01,2013-01-09 02:09:00,
2013-01-09 16:10:00,53.1,46.1,30.13,West,273,2.0,4.0,77,0.00,,SKC,0.00,VWS V14.01,2013-01-09 02:10:00,
2013-01-09 16:11:00,53.0,46.3,30.13,West,273,2.0,2.0,78,0.00,,SKC,0.00,VWS V14.01,2013-01-09 02:11:00,
2013-01-09 16:12:00,53.0,46.3,30.13,West,273,1.0,2.0,78,0.00,,SKC,0.00,VWS V14.01,2013-01-09 02:12:00,
2013-01-09 16:13:00,53.0,46.3,30.13,West,273,0.0,2.0,78,0.00,,SKC,0.00,VWS V14.01,2013-01-09 02:13:00,
2013-01-09 16:14:00,52.9,46.2,30.13,West,273,2.0,3.0,78,0.00,,SKC,0.00,VWS V14.01,2013-01-09 02:14:00,
2013-01-09 16:15:00,52.9,46.2,30.13,West,273,2.0,2.0,78,0.00,,SKC,0.00,VWS V14.01,2013-01-09 02:15:00,
2013-01-09 16:16:00,52.7,46.4,30.13,West,273,1.0,2.0,79,0.00,,SKC,0.00,VWS V14.01,2013-01-09 02:16:00,
2013-01-09 16:17:00,52.7,46.4,30.13,West,273,1.0,3.0,79,0.00,,SKC,0.00,VWS V14.01,2013-01-09 02:17:00,
2013-01-09 16:18:00,52.6,46.3,30.13,West,273,2.0,3.0,79,0.00,,SKC,0.00,VWS V14.01,2013-01-09 02:18:00,
2013-01-09 16:19:00,52.6,46.3,30.13,West,273,0.0,2.0,79,0.00,,SKC,0.00,VWS V14.01,2013-01-09 02:19:00,
2013-01-09 16:20:00,52.5,46.2,30.13,West,273,1.0,1.0,79,0.00,,SKC,0.00,VWS V14.01,2013-01-09 02:20:00,
2013-01-09 16:21:00,52.4,46.1,30.13,West,273,1.0,3.0,79,0.00,,SKC,0.00,VWS V14.01,2013-01-09 02:21:00,
2013-01-09 16:22:00,52.4,46.1,30.13,West,273,1.0,1.0,79,0.00,,SKC,0.00,VWS V14.01,2013-01-09 02:22:00,
2013-01-09 16:23:00,52.3,46.0,30.13,West,273,0.0,3.0,79,0.00,,SKC,0.00,VWS V14.01,2013-01-09 02:23:00,
2013-01-09 16:24:00,52.3,46.3,30.13,West,273,1.0,2.0,80,0.00,,SKC,0.00,VWS V14.01,2013-01-09 02:24:00,
2013-01-09 16:25:00,52.3,46.3,30.13,West,273,3.0,3.0,80,0.00,,SKC,0.00,VWS V14.01,2013-01-09 02:25:00,
2013-01-09 16:26:00,52.3,46.3,30.13,West,273,2.0,2.0,80,0.00,,SKC,0.00,VWS V14.01,2013-01-09 02:26:00,
2013-01-09 16:27:00,52.3,46.3,30.13,West,273,2.0,2.0,80,0.00,,SKC,0.00,VWS V14.01,2013-01-09 02:27:00,
2013-01-09 16:28:00,52.3,46.3,30.13,West,273,1.0,3.0,80,0.00,,SKC,0.00,VWS V14.01,2013-01-09 02:28:00,
2013-01-09 16:29:00,52.3,46.3,30.13,West,273,0.0,2.0,80,0.00,,SKC,0.00,VWS V14.01,2013-01-09 02:29:00,
2013-01-09 16:30:00,52.3,46.3,30.13,West,273,0.0,1.0,80,0.00,,SKC,0.00,VWS V14.01,2013-01-09 02:30:00,
2013-01-09 16:31:00,52.3,46.3,30.13,West,273,0.0,0.0,80,0.00,,SKC,0.00,VWS V14.01,2013-01-09 02:31:00,
2013-01-09 16:32:00,52.3,46.3,30.13,West,273,0.0,1.0,80,0.00,,SKC,0.00,VWS V14.01,2013-01-09 02:32:00,
2013-01-09 16:33:00,52.3,46.3,30.13,West,273,0.0,0.0,80,0.00,,SKC,0.00,VWS V14.01,2013-01-09 02:33:00,
2013-01-09 16:34:00,52.3,46.3,30.13,West,273,1.0,1.0,80,0.00,,SKC,0.00,VWS V14.01,2013-01-09 02:34:00,
2013-01-09 16:35:00,52.3,46.3,30.13,West,273,0.0,3.0,80,0.00,,SKC,0.00,VWS V14.01,2013-01-09 02:35:00,
2013-01-09 16:36:00,52.2,46.2,30.13,West,273,1.0,1.0,80,0.00,,SKC,0.00,VWS V14.01,2013-01-09 02:36:00,
2013-01-09 16:37:00,52.2,46.2,30.13,West,273,1.0,2.0,80,0.00,,SKC,0.00,VWS V14.01,2013-01-09 02:37:00,
2013-01-09 16:38:00,52.1,46.5,30.13,West,273,0.0,1.0,81,0.00,,SKC,0.00,VWS V14.01,2013-01-09 02:38:00,
2013-01-09 16:39:00,52.1,46.5,30.13,West,273,0.0,1.0,81,0.00,,SKC,0.00,VWS V14.01,2013-01-09 02:39:00,
2013-01-09 16:41:00,52.0,46.4,30.13,West,273,1.0,1.0,81,0.00,,SKC,0.00,VWS V14.01,2013-01-09 02:41:00,
2013-01-09 16:42:00,52.0,46.4,30.13,West,273,1.0,2.0,81,0.00,,SKC,0.00,VWS V14.01,2013-01-09 02:42:00,
2013-01-09 16:43:00,51.9,46.3,30.13,West,273,1.0,2.0,81,0.00,,SKC,0.00,VWS V14.01,2013-01-09 02:43:00,
2013-01-09 16:44:00,51.9,46.6,30.13,West,273,1.0,2.0,82,0.00,,SKC,0.00,VWS V14.01,2013-01-09 02:44:00,
2013-01-09 16:45:00,51.9,46.6,30.13,West,273,0.0,1.0,82,0.00,,SKC,0.00,VWS V14.01,2013-01-09 02:45:00,
2013-01-09 16:46:00,51.8,46.5,30.13,West,273,1.0,1.0,82,0.00,,SKC,0.00,VWS V14.01,2013-01-09 02:46:00,
2013-01-09 16:47:00,51.8,46.5,30.13,West,273,1.0,1.0,82,0.00,,SKC,0.00,VWS V14.01,2013-01-09 02:47:00,
2013-01-09 16:48:00,51.8,46.5,30.13,West,273,0.0,1.0,82,0.00,,SKC,0.00,VWS V14.01,2013-01-09 02:48:00,
2013-01-09 16:49:00,51.8,46.5,30.13,West,273,0.0,0.0,82,0.00,,SKC,0.00,VWS V14.01,2013-01-09 02:49:00,
2013-01-09 16:50:00,51.7,46.4,30.13,West,273,0.0,1.0,82,0.00,,SKC,0.00,VWS V14.01,2013-01-09 02:50:00,
2013-01-09 16:51:00,51.7,46.7,30.13,West,273,1.0,1.0,83,0.00,,SKC,0.00,VWS V14.01,2013-01-09 02:51:00,
2013-01-09 16:52:00,51.7,46.7,30.13,West,273,0.0,1.0,83,0.00,,SKC,0.00,VWS V14.01,2013-01-09 02:52:00,
2013-01-09 16:53:00,51.7,46.7,30.13,West,273,0.0,1.0,83,0.00,,SKC,0.00,VWS V14.01,2013-01-09 02:53:00,
2013-01-09 16:54:00,51.6,46.6,30.13,West,273,1.0,1.0,83,0.00,,SKC,0.00,VWS V14.01,2013-01-09 02:54:00,
2013-01-09 16:55:00,51.5,46.5,30.13,West,273,0.0,1.0,83,0.00,,SKC,0.00,VWS V14.01,2013-01-09 02:55:00,
2013-01-09 16:56:00,51.4,46.4,30.13,West,273,0.0,0.0,83,0.00,,SKC,0.00,VWS V14.01,2013-01-09 02:56:00,
2013-01-09 16:57:00,51.4,46.4,30.13,West,273,0.0,0.0,83,0.00,,SKC,0.00,VWS V14.01,2013-01-09 02:57:00,
2013-01-09 16:58:00,51.4,46.4,30.13,West,273,0.0,0.0,83,0.00,,SKC,0.00,VWS V14.01,2013-01-09 02:58:00,
2013-01-09 16:59:00,51.2,46.2,30.14,West,273,0.0,0.0,83,0.00,,SKC,0.00,VWS V14.01,2013-01-09 02:59:00,
2013-01-09 17:00:00,51.1,46.4,30.14,West,273,0.0,0.0,84,0.00,,SKC,0.00,VWS V14.01,2013-01-09 03:00:00,
2013-01-09 17:01:00,50.9,46.2,30.14,West,273,0.0,0.0,84,0.00,,SKC,0.00,VWS V14.01,2013-01-09 03:01:00,
2013-01-09 17:02:00,50.9,46.2,30.14,West,273,0.0,1.0,84,0.00,,SKC,0.00,VWS V14.01,2013-01-09 03:02:00,
2013-01-09 17:03:00,50.8,46.2,30.14,West,273,0.0,0.0,84,0.00,,SKC,0.00,VWS V14.01,2013-01-09 03:03:00,
2013-01-09 17:04:00,50.7,46.4,30.14,West,273,0.0,1.0,85,0.00,,SKC,0.00,VWS V14.01,2013-01-09 03:04:00,
2013-01-09 17:05:00,50.7,46.4,30.14,West,273,0.0,1.0,85,0.00,,SKC,0.00,VWS V14.01,2013-01-09 03:05:00,
2013-01-09 17:06:00,50.6,46.3,30.14,West,273,1.0,2.0,85,0.00,,SKC,0.00,VWS V14.01,2013-01-09 03:06:00,
2013-01-09 17:07:00,50.6,46.3,30.14,West,273,1.0,2.0,85,0.00,,SKC,0.00,VWS V14.01,2013-01-09 03:07:00,
2013-01-09 17:08:00,50.6,46.3,30.14,West,273,2.0,2.0,85,0.00,,SKC,0.00,VWS V14.01,2013-01-09 03:08:00,
2013-01-09 17:09:00,50.6,46.6,30.14,West,273,0.0,2.0,86,0.00,,SKC,0.00,VWS V14.01,2013-01-09 03:09:00,
2013-01-09 17:10:00,50.7,46.7,30.14,West,273,0.0,2.0,86,0.00,,SKC,0.00,VWS V14.01,2013-01-09 03:10:00,
2013-01-09 17:11:00,50.7,46.7,30.14,West,273,0.0,0.0,86,0.00,,SKC,0.00,VWS V14.01,2013-01-09 03:11:00,
2013-01-09 17:12:00,50.6,46.6,30.14,West,273,0.0,2.0,86,0.00,,SKC,0.00,VWS V14.01,2013-01-09 03:12:00,
2013-01-09 17:13:00,50.7,46.7,30.14,West,273,0.0,0.0,86,0.00,,SKC,0.00,VWS V14.01,2013-01-09 03:13:00,
2013-01-09 17:14:00,50.7,46.7,30.14,West,273,0.0,1.0,86,0.00,,SKC,0.00,VWS V14.01,2013-01-09 03:14:00,
2013-01-09 17:15:00,50.7,46.7,30.14,West,273,0.0,1.0,86,0.00,,SKC,0.00,VWS V14.01,2013-01-09 03:15:00,
2013-01-09 17:16:00,50.6,46.3,30.14,West,273,0.0,0.0,85,0.00,,SKC,0.00,VWS V14.01,2013-01-09 03:16:00,
2013-01-09 17:17:00,50.6,46.3,30.14,West,273,0.0,0.0,85,0.00,,SKC,0.00,VWS V14.01,2013-01-09 03:17:00,
2013-01-09 17:18:00,50.5,46.2,30.14,West,273,0.0,0.0,85,0.00,,SKC,0.00,VWS V14.01,2013-01-09 03:18:00,
2013-01-09 17:19:00,50.5,46.2,30.14,West,273,0.0,0.0,85,0.00,,SKC,0.00,VWS V14.01,2013-01-09 03:19:00,
2013-01-09 17:20:00,50.3,46.0,30.14,West,273,0.0,1.0,85,0.00,,SKC,0.00,VWS V14.01,2013-01-09 03:20:00,
2013-01-09 17:21:00,50.0,45.7,30.14,West,273,0.0,1.0,85,0.00,,SKC,0.00,VWS V14.01,2013-01-09 03:21:00,
2013-01-09 17:22:00,50.0,45.7,30.14,West,273,0.0,1.0,85,0.00,,SKC,0.00,VWS V14.01,2013-01-09 03:22:00,
2013-01-09 17:23:00,49.9,45.9,30.14,West,273,0.0,1.0,86,0.00,,SKC,0.00,VWS V14.01,2013-01-09 03:23:00,
2013-01-09 17:24:00,49.9,45.9,30.14,West,273,0.0,1.0,86,0.00,,SKC,0.00,VWS V14.01,2013-01-09 03:24:00,
2013-01-09 17:25:00,49.9,46.2,30.14,West,273,1.0,1.0,87,0.00,,SKC,0.00,VWS V14.01,2013-01-09 03:25:00,
2013-01-09 17:26:00,49.9,45.9,30.14,West,273,0.0,1.0,86,0.00,,SKC,0.00,VWS V14.01,2013-01-09 03:26:00,
2013-01-09 17:27:00,49.9,45.9,30.14,West,273,0.0,1.0,86,0.00,,SKC,0.00,VWS V14.01,2013-01-09 03:27:00,
2013-01-09 17:28:00,49.9,45.9,30.14,West,273,0.0,1.0,86,0.00,,SKC,0.00,VWS V14.01,2013-01-09 03:28:00,
2013-01-09 17:29:00,49.9,45.9,30.14,West,273,1.0,2.0,86,0.00,,SKC,0.00,VWS V14.01,2013-01-09 03:29:00,
2013-01-09 17:30:00,49.9,45.9,30.14,West,273,1.0,2.0,86,0.00,,SKC,0.00,VWS V14.01,2013-01-09 03:30:00,
2013-01-09 17:31:00,49.9,45.9,30.14,West,273,0.0,0.0,86,0.00,,SKC,0.00,VWS V14.01,2013-01-09 03:31:00,
2013-01-09 17:32:00,49.9,45.9,30.14,West,273,0.0,1.0,86,0.00,,SKC,0.00,VWS V14.01,2013-01-09 03:32:00,
2013-01-09 17:33:00,49.9,45.9,30.14,West,273,0.0,0.0,86,0.00,,SKC,0.00,VWS V14.01,2013-01-09 03:33:00,
2013-01-09 17:34:00,49.9,45.9,30.14,West,273,0.0,0.0,86,0.00,,SKC,0.00,VWS V14.01,2013-01-09 03:34:00,
2013-01-09 17:35:00,49.9,45.9,30.14,West,273,0.0,0.0,86,0.00,,SKC,0.00,VWS V14.01,2013-01-09 03:35:00,
2013-01-09 17:36:00,49.5,45.5,30.14,West,273,0.0,0.0,86,0.00,,SKC,0.00,VWS V14.01,2013-01-09 03:36:00,
2013-01-09 17:37:00,49.6,45.6,30.14,West,273,0.0,0.0,86,0.00,,SKC,0.00,VWS V14.01,2013-01-09 03:37:00,
2013-01-09 17:38:00,49.4,45.4,30.14,West,273,0.0,0.0,86,0.00,,SKC,0.00,VWS V14.01,2013-01-09 03:38:00,
2013-01-09 17:39:00,49.2,45.2,30.14,West,273,0.0,0.0,86,0.00,,SKC,0.00,VWS V14.01,2013-01-09 03:39:00,
2013-01-09 17:40:00,49.1,45.4,30.14,West,273,0.0,0.0,87,0.00,,SKC,0.00,VWS V14.01,2013-01-09 03:40:00,
2013-01-09 17:41:00,48.9,45.2,30.14,West,273,0.0,0.0,87,0.00,,SKC,0.00,VWS V14.01,2013-01-09 03:41:00,
2013-01-09 17:44:00,48.8,45.1,30.15,West,273,0.0,1.0,87,0.00,,SKC,0.00,VWS V14.01,2013-01-09 03:44:00,
2013-01-09 17:45:00,48.7,45.3,30.15,West,273,1.0,2.0,88,0.00,,SKC,0.00,VWS V14.01,2013-01-09 03:45:00,
2013-01-09 17:46:00,48.8,45.4,30.15,West,273,1.0,2.0,88,0.00,,SKC,0.00,VWS V14.01,2013-01-09 03:46:00,
2013-01-09 17:47:00,48.8,45.4,30.15,West,273,1.0,1.0,88,0.00,,SKC,0.00,VWS V14.01,2013-01-09 03:47:00,
2013-01-09 17:48:00,48.9,45.5,30.15,West,273,1.0,2.0,88,0.00,,SKC,0.00,VWS V14.01,2013-01-09 03:48:00,
2013-01-09 17:51:00,49.0,45.6,30.15,West,273,0.0,0.0,88,0.00,,SKC,0.00,VWS V14.01,2013-01-09 03:51:00,
2013-01-09 17:52:00,49.0,45.6,30.15,West,273,0.0,1.0,88,0.00,,SKC,0.00,VWS V14.01,2013-01-09 03:52:00,
2013-01-09 17:53:00,49.0,45.6,30.15,West,273,0.0,0.0,88,0.00,,SKC,0.00,VWS V14.01,2013-01-09 03:53:00,
2013-01-09 17:54:00,49.0,45.6,30.15,West,273,0.0,0.0,88,0.00,,SKC,0.00,VWS V14.01,2013-01-09 03:54:00,
2013-01-09 17:55:00,48.9,45.5,30.15,West,273,0.0,0.0,88,0.00,,SKC,0.00,VWS V14.01,2013-01-09 03:55:00,
2013-01-09 17:56:00,48.7,45.3,30.15,West,273,0.0,0.0,88,0.00,,SKC,0.00,VWS V14.01,2013-01-09 03:56:00,
2013-01-09 17:57:00,48.8,45.4,30.15,West,273,0.0,0.0,88,0.00,,SKC,0.00,VWS V14.01,2013-01-09 03:57:00,
2013-01-09 17:58:00,48.7,45.3,30.15,West,273,0.0,0.0,88,0.00,,SKC,0.00,VWS V14.01,2013-01-09 03:58:00,
2013-01-09 17:59:00,48.7,45.3,30.15,West,273,0.0,0.0,88,0.00,,SKC,0.00,VWS V14.01,2013-01-09 03:59:00,
2013-01-09 18:00:00,48.6,45.2,30.15,West,273,0.0,0.0,88,0.00,,SKC,0.00,VWS V14.01,2013-01-09 04:00:00,
2013-01-09 18:01:00,48.7,45.3,30.15,West,273,0.0,0.0,88,0.00,,SKC,0.00,VWS V14.01,2013-01-09 04:01:00,
2013-01-09 18:02:00,48.7,45.3,30.15,West,273,0.0,0.0,88,0.00,,SKC,0.00,VWS V14.01,2013-01-09 04:02:00,
2013-01-09 18:04:00,48.8,45.4,30.15,West,273,0.0,0.0,88,0.00,,SKC,0.00,VWS V14.01,2013-01-09 04:04:00,
2013-01-09 18:05:00,48.7,45.3,30.15,West,273,0.0,0.0,88,0.00,,SKC,0.00,VWS V14.01,2013-01-09 04:05:00,
2013-01-09 18:06:00,48.5,45.1,30.15,West,273,0.0,0.0,88,0.00,,SKC,0.00,VWS V14.01,2013-01-09 04:06:00,
2013-01-09 18:07:00,48.5,45.1,30.15,West,273,0.0,0.0,88,0.00,,SKC,0.00,VWS V14.01,2013-01-09 04:07:00,
2013-01-09 18:08:00,48.3,44.9,30.14,West,273,0.0,0.0,88,0.00,,SKC,0.00,VWS V14.01,2013-01-09 04:08:00,
2013-01-09 18:09:00,48.1,44.7,30.15,West,273,0.0,0.0,88,0.00,,SKC,0.00,VWS V14.01,2013-01-09 04:09:00,
2013-01-09 18:10:00,47.9,44.5,30.15,West,273,0.0,0.0,88,0.00,,SKC,0.00,VWS V14.01,2013-01-09 04:10:00,
2013-01-09 18:11:00,47.8,44.7,30.15,West,273,0.0,0.0,89,0.00,,SKC,0.00,VWS V14.01,2013-01-09 04:11:00,
2013-01-09 18:12:00,47.8,44.7,30.15,West,273,0.0,0.0,89,0.00,,SKC,0.00,VWS V14.01,2013-01-09 04:12:00,
2013-01-09 18:16:00,47.2,44.1,30.15,West,273,0.0,0.0,89,0.00,,SKC,0.00,VWS V14.01,2013-01-09 04:16:00,
2013-01-09 18:18:00,47.1,44.0,30.15,West,273,0.0,0.0,89,0.00,,SKC,0.00,VWS V14.01,2013-01-09 04:18:00,
2013-01-09 18:19:00,47.0,43.9,30.14,West,273,0.0,0.0,89,0.00,,SKC,0.00,VWS V14.01,2013-01-09 04:19:00,
2013-01-09 18:21:00,46.8,44.0,30.14,West,273,0.0,0.0,90,0.00,,SKC,0.00,VWS V14.01,2013-01-09 04:21:00,
2013-01-09 18:22:00,46.9,44.1,30.14,West,273,0.0,0.0,90,0.00,,SKC,0.00,VWS V14.01,2013-01-09 04:22:00,
2013-01-09 18:24:00,46.6,43.8,30.14,West,273,0.0,0.0,90,0.00,,SKC,0.00,VWS V14.01,2013-01-09 04:24:00,
2013-01-09 18:25:00,46.5,44.0,30.14,West,273,1.0,1.0,91,0.00,,SKC,0.00,VWS V14.01,2013-01-09 04:25:00,
2013-01-09 18:26:00,46.7,44.2,30.14,West,273,0.0,0.0,91,0.00,,SKC,0.00,VWS V14.01,2013-01-09 04:26:00,
2013-01-09 18:27:00,46.7,44.2,30.14,West,273,0.0,0.0,91,0.00,,SKC,0.00,VWS V14.01,2013-01-09 04:27:00,
2013-01-09 18:28:00,46.6,44.1,30.14,West,273,0.0,0.0,91,0.00,,SKC,0.00,VWS V14.01,2013-01-09 04:28:00,
2013-01-09 18:30:00,46.5,44.0,30.14,West,273,0.0,0.0,91,0.00,,SKC,0.00,VWS V14.01,2013-01-09 04:30:00,
2013-01-09 18:31:00,46.5,44.0,30.14,West,273,0.0,0.0,91,0.00,,SKC,0.00,VWS V14.01,2013-01-09 04:31:00,
2013-01-09 18:32:00,46.5,44.0,30.14,West,273,0.0,0.0,91,0.00,,SKC,0.00,VWS V14.01,2013-01-09 04:32:00,
2013-01-09 18:33:00,46.5,44.0,30.14,West,273,0.0,0.0,91,0.00,,SKC,0.00,VWS V14.01,2013-01-09 04:33:00,
2013-01-09 18:34:00,46.4,43.9,30.15,West,273,0.0,0.0,91,0.00,,SKC,0.00,VWS V14.01,2013-01-09 04:34:00,
2013-01-09 18:35:00,46.3,43.8,30.14,West,273,0.0,0.0,91,0.00,,SKC,0.00,VWS V14.01,2013-01-09 04:35:00,
2013-01-09 18:36:00,46.2,43.7,30.15,West,273,0.0,0.0,91,0.00,,SKC,0.00,VWS V14.01,2013-01-09 04:36:00,
2013-01-09 18:37:00,46.2,43.7,30.15,West,273,0.0,0.0,91,0.00,,SKC,0.00,VWS V14.01,2013-01-09 04:37:00,
2013-01-09 18:38:00,46.1,43.6,30.14,West,273,0.0,0.0,91,0.00,,SKC,0.00,VWS V14.01,2013-01-09 04:38:00,
2013-01-09 18:39:00,46.1,43.6,30.14,West,273,0.0,0.0,91,0.00,,SKC,0.00,VWS V14.01,2013-01-09 04:39:00,
2013-01-09 18:40:00,46.0,43.5,30.14,West,273,0.0,0.0,91,0.00,,SKC,0.00,VWS V14.01,2013-01-09 04:40:00,
2013-01-09 18:41:00,45.8,43.6,30.14,West,273,0.0,0.0,92,0.00,,SKC,0.00,VWS V14.01,2013-01-09 04:41:00,
2013-01-09 18:42:00,45.9,43.7,30.14,West,273,0.0,0.0,92,0.00,,SKC,0.00,VWS V14.01,2013-01-09 04:42:00,
2013-01-09 18:43:00,45.8,43.6,30.14,West,273,0.0,1.0,92,0.00,,SKC,0.00,VWS V14.01,2013-01-09 04:43:00,
2013-01-09 18:44:00,45.8,43.6,30.14,West,273,0.0,0.0,92,0.00,,SKC,0.00,VWS V14.01,2013-01-09 04:44:00,
2013-01-09 18:45:00,45.8,43.6,30.14,West,273,0.0,0.0,92,0.00,,SKC,0.00,VWS V14.01,2013-01-09 04:45:00,
2013-01-09 18:46:00,45.8,43.6,30.14,West,273,0.0,1.0,92,0.00,,SKC,0.00,VWS V14.01,2013-01-09 04:46:00,
2013-01-09 18:47:00,45.8,43.6,30.14,West,273,1.0,1.0,92,0.00,,SKC,0.00,VWS V14.01,2013-01-09 04:47:00,
2013-01-09 18:50:00,45.7,43.5,30.15,West,273,0.0,1.0,92,0.00,,SKC,0.00,VWS V14.01,2013-01-09 04:50:00,
2013-01-09 18:51:00,45.7,43.5,30.15,West,273,0.0,0.0,92,0.00,,SKC,0.00,VWS V14.01,2013-01-09 04:51:00,
2013-01-09 18:52:00,45.7,43.5,30.15,West,273,0.0,0.0,92,0.00,,SKC,0.00,VWS V14.01,2013-01-09 04:52:00,
2013-01-09 18:53:00,45.7,43.8,30.15,West,273,0.0,0.0,93,0.00,,SKC,0.00,VWS V14.01,2013-01-09 04:53:00,
2013-01-09 18:54:00,45.7,43.8,30.15,West,273,0.0,0.0,93,0.00,,SKC,0.00,VWS V14.01,2013-01-09 04:54:00,
2013-01-09 18:55:00,45.7,43.8,30.15,West,273,0.0,0.0,93,0.00,,SKC,0.00,VWS V14.01,2013-01-09 04:55:00,
2013-01-09 18:56:00,45.7,43.8,30.15,West,273,0.0,0.0,93,0.00,,SKC,0.00,VWS V14.01,2013-01-09 04:56:00,
2013-01-09 18:57:00,45.7,43.8,30.15,West,273,0.0,1.0,93,0.00,,SKC,0.00,VWS V14.01,2013-01-09 04:57:00,
2013-01-09 19:00:00,45.6,43.7,30.14,West,273,0.0,0.0,93,0.00,,SKC,0.00,VWS V14.01,2013-01-09 05:00:00,
2013-01-09 19:01:00,45.6,43.7,30.15,West,273,0.0,0.0,93,0.00,,SKC,0.00,VWS V14.01,2013-01-09 05:01:00,
2013-01-09 19:02:00,45.6,43.7,30.14,West,273,0.0,0.0,93,0.00,,SKC,0.00,VWS V14.01,2013-01-09 05:02:00,
2013-01-09 19:03:00,45.6,43.7,30.14,West,273,0.0,0.0,93,0.00,,SKC,0.00,VWS V14.01,2013-01-09 05:03:00,
2013-01-09 19:04:00,45.7,43.8,30.14,West,273,0.0,0.0,93,0.00,,SKC,0.00,VWS V14.01,2013-01-09 05:04:00,
2013-01-09 19:05:00,45.7,43.8,30.14,West,273,0.0,0.0,93,0.00,,SKC,0.00,VWS V14.01,2013-01-09 05:05:00,
2013-01-09 19:06:00,45.7,43.8,30.14,West,273,0.0,0.0,93,0.00,,SKC,0.00,VWS V14.01,2013-01-09 05:06:00,
2013-01-09 19:07:00,45.6,43.7,30.14,West,273,0.0,0.0,93,0.00,,SKC,0.00,VWS V14.01,2013-01-09 05:07:00,
2013-01-09 19:08:00,45.6,43.7,30.14,West,273,0.0,0.0,93,0.00,,SKC,0.00,VWS V14.01,2013-01-09 05:08:00,
2013-01-09 19:09:00,45.5,43.6,30.14,West,273,0.0,0.0,93,0.00,,SKC,0.00,VWS V14.01,2013-01-09 05:09:00,
2013-01-09 19:10:00,45.5,43.6,30.14,West,273,1.0,1.0,93,0.00,,SKC,0.00,VWS V14.01,2013-01-09 05:10:00,
2013-01-09 19:11:00,45.4,43.5,30.14,West,273,0.0,1.0,93,0.00,,SKC,0.00,VWS V14.01,2013-01-09 05:11:00,
2013-01-09 19:12:00,45.3,43.4,30.14,West,273,0.0,0.0,93,0.00,,SKC,0.00,VWS V14.01,2013-01-09 05:12:00,
2013-01-09 19:13:00,45.3,43.4,30.14,West,273,0.0,0.0,93,0.00,,SKC,0.00,VWS V14.01,2013-01-09 05:13:00,
2013-01-09 19:14:00,45.3,43.4,30.14,West,273,0.0,0.0,93,0.00,,SKC,0.00,VWS V14.01,2013-01-09 05:14:00,
2013-01-09 19:15:00,45.3,43.4,30.14,West,273,0.0,0.0,93,0.00,,SKC,0.00,VWS V14.01,2013-01-09 05:15:00,
2013-01-09 19:16:00,45.4,43.5,30.14,West,273,0.0,0.0,93,0.00,,SKC,0.00,VWS V14.01,2013-01-09 05:16:00,
2013-01-09 19:17:00,45.5,43.6,30.14,West,273,0.0,0.0,93,0.00,,SKC,0.00,VWS V14.01,2013-01-09 05:17:00,
2013-01-09 19:18:00,45.5,43.6,30.14,West,273,0.0,0.0,93,0.00,,SKC,0.00,VWS V14.01,2013-01-09 05:18:00,
2013-01-09 19:19:00,45.4,43.5,30.14,West,273,0.0,0.0,93,0.00,,SKC,0.00,VWS V14.01,2013-01-09 05:19:00,
2013-01-09 19:20:00,45.4,43.5,30.14,West,273,0.0,0.0,93,0.00,,SKC,0.00,VWS V14.01,2013-01-09 05:20:00,
2013-01-09 19:21:00,45.4,43.5,30.14,West,273,0.0,0.0,93,0.00,,SKC,0.00,VWS V14.01,2013-01-09 05:21:00,
2013-01-09 19:22:00,45.2,43.3,30.14,West,273,0.0,0.0,93,0.00,,SKC,0.00,VWS V14.01,2013-01-09 05:22:00,
2013-01-09 19:23:00,45.2,43.3,30.14,West,273,0.0,0.0,93,0.00,,SKC,0.00,VWS V14.01,2013-01-09 05:23:00,
2013-01-09 19:24:00,45.2,43.3,30.14,West,273,0.0,0.0,93,0.00,,SKC,0.00,VWS V14.01,2013-01-09 05:24:00,
2013-01-09 19:25:00,45.1,43.2,30.14,West,273,0.0,1.0,93,0.00,,SKC,0.00,VWS V14.01,2013-01-09 05:25:00,
2013-01-09 19:26:00,45.0,43.1,30.14,West,273,0.0,0.0,93,0.00,,SKC,0.00,VWS V14.01,2013-01-09 05:26:00,
2013-01-09 19:27:00,44.9,43.0,30.14,West,273,0.0,1.0,93,0.00,,SKC,0.00,VWS V14.01,2013-01-09 05:27:00,
2013-01-09 19:28:00,44.9,43.0,30.14,West,273,1.0,1.0,93,0.00,,SKC,0.00,VWS V14.01,2013-01-09 05:28:00,
2013-01-09 19:29:00,44.9,43.0,30.15,West,273,0.0,1.0,93,0.00,,SKC,0.00,VWS V14.01,2013-01-09 05:29:00,
2013-01-09 19:30:00,44.9,43.0,30.15,West,273,1.0,2.0,93,0.00,,SKC,0.00,VWS V14.01,2013-01-09 05:30:00,
2013-01-09 19:31:00,45.0,43.1,30.15,West,273,1.0,2.0,93,0.00,,SKC,0.00,VWS V14.01,2013-01-09 05:31:00,
2013-01-09 19:32:00,45.0,43.1,30.15,West,273,0.0,0.0,93,0.00,,SKC,0.00,VWS V14.01,2013-01-09 05:32:00,
2013-01-09 19:33:00,45.0,43.1,30.15,West,273,0.0,1.0,93,0.00,,SKC,0.00,VWS V14.01,2013-01-09 05:33:00,
2013-01-09 19:34:00,45.0,43.1,30.15,West,273,0.0,0.0,93,0.00,,SKC,0.00,VWS V14.01,2013-01-09 05:34:00,
2013-01-09 19:35:00,45.0,43.1,30.15,West,273,0.0,1.0,93,0.00,,SKC,0.00,VWS V14.01,2013-01-09 05:35:00,
2013-01-09 19:36:00,44.9,43.0,30.15,West,273,0.0,1.0,93,0.00,,SKC,0.00,VWS V14.01,2013-01-09 05:36:00,
2013-01-09 19:37:00,44.9,43.0,30.15,West,273,0.0,0.0,93,0.00,,SKC,0.00,VWS V14.01,2013-01-09 05:37:00,
2013-01-09 19:38:00,44.9,43.0,30.15,West,273,0.0,0.0,93,0.00,,SKC,0.00,VWS V14.01,2013-01-09 05:38:00,
2013-01-09 19:39:00,44.9,43.0,30.15,West,273,0.0,0.0,93,0.00,,SKC,0.00,VWS V14.01,2013-01-09 05:39:00,
2013-01-09 19:40:00,44.9,43.0,30.15,West,273,0.0,0.0,93,0.00,,SKC,0.00,VWS V14.01,2013-01-09 05:40:00,
2013-01-09 19:41:00,44.9,43.0,30.15,West,273,0.0,0.0,93,0.00,,SKC,0.00,VWS V14.01,2013-01-09 05:41:00,
2013-01-09 19:42:00,45.1,43.2,30.15,West,273,0.0,0.0,93,0.00,,SKC,0.00,VWS V14.01,2013-01-09 05:42:00,
2013-01-09 19:43:00,45.1,43.2,30.15,West,273,0.0,0.0,93,0.00,,SKC,0.00,VWS V14.01,2013-01-09 05:43:00,
2013-01-09 19:44:00,45.1,43.2,30.15,West,273,0.0,0.0,93,0.00,,SKC,0.00,VWS V14.01,2013-01-09 05:44:00,
2013-01-09 19:45:00,45.2,43.3,30.15,West,273,0.0,0.0,93,0.00,,SKC,0.00,VWS V14.01,2013-01-09 05:45:00,
2013-01-09 19:46:00,45.2,43.3,30.15,West,273,0.0,0.0,93,0.00,,SKC,0.00,VWS V14.01,2013-01-09 05:46:00,
2013-01-09 19:47:00,45.0,42.8,30.15,West,273,0.0,0.0,92,0.00,,SKC,0.00,VWS V14.01,2013-01-09 05:47:00,
2013-01-09 19:48:00,45.1,42.9,30.15,West,273,0.0,0.0,92,0.00,,SKC,0.00,VWS V14.01,2013-01-09 05:48:00,
2013-01-09 19:49:00,44.9,42.7,30.15,West,273,0.0,0.0,92,0.00,,SKC,0.00,VWS V14.01,2013-01-09 05:49:00,
2013-01-09 19:50:00,44.8,42.6,30.15,West,273,0.0,0.0,92,0.00,,SKC,0.00,VWS V14.01,2013-01-09 05:50:00,
2013-01-09 19:51:00,44.7,42.5,30.15,West,273,0.0,0.0,92,0.00,,SKC,0.00,VWS V14.01,2013-01-09 05:51:00,
2013-01-09 19:52:00,44.6,42.7,30.15,West,273,0.0,1.0,93,0.00,,SKC,0.00,VWS V14.01,2013-01-09 05:52:00,
2013-01-09 19:53:00,44.6,42.7,30.15,West,273,0.0,0.0,93,0.00,,SKC,0.00,VWS V14.01,2013-01-09 05:53:00,
2013-01-09 19:54:00,44.6,42.7,30.14,West,273,0.0,1.0,93,0.00,,SKC,0.00,VWS V14.01,2013-01-09 05:54:00,
2013-01-09 19:55:00,44.7,42.8,30.14,West,273,0.0,0.0,93,0.00,,SKC,0.00,VWS V14.01,2013-01-09 05:55:00,
2013-01-09 19:56:00,44.7,42.8,30.14,West,273,0.0,0.0,93,0.00,,SKC,0.00,VWS V14.01,2013-01-09 05:56:00,
2013-01-09 19:57:00,44.7,42.8,30.14,West,273,0.0,0.0,93,0.00,,SKC,0.00,VWS V14.01,2013-01-09 05:57:00,
2013-01-09 19:58:00,44.7,42.8,30.14,West,273,0.0,0.0,93,0.00,,SKC,0.00,VWS V14.01,2013-01-09 05:58:00,
2013-01-09 19:59:00,44.7,42.8,30.14,West,273,0.0,1.0,93,0.00,,SKC,0.00,VWS V14.01,2013-01-09 05:59:00,
2013-01-09 20:02:00,44.6,42.7,30.14,West,273,0.0,0.0,93,0.00,,SKC,0.00,VWS V14.01,2013-01-09 06:02:00,
2013-01-09 20:03:00,44.6,42.7,30.14,West,273,0.0,0.0,93,0.00,,SKC,0.00,VWS V14.01,2013-01-09 06:03:00,
2013-01-09 20:04:00,44.6,42.7,30.15,West,273,0.0,0.0,93,0.00,,SKC,0.00,VWS V14.01,2013-01-09 06:04:00,
2013-01-09 20:05:00,44.6,42.7,30.15,West,273,0.0,0.0,93,0.00,,SKC,0.00,VWS V14.01,2013-01-09 06:05:00,
2013-01-09 20:06:00,44.5,42.6,30.15,West,273,0.0,0.0,93,0.00,,SKC,0.00,VWS V14.01,2013-01-09 06:06:00,
2013-01-09 20:07:00,44.3,42.4,30.15,West,273,0.0,0.0,93,0.00,,SKC,0.00,VWS V14.01,2013-01-09 06:07:00,
2013-01-09 20:08:00,44.3,42.4,30.15,West,273,0.0,0.0,93,0.00,,SKC,0.00,VWS V14.01,2013-01-09 06:08:00,
2013-01-09 20:09:00,44.3,42.4,30.15,West,273,0.0,0.0,93,0.00,,SKC,0.00,VWS V14.01,2013-01-09 06:09:00,
2013-01-09 20:10:00,44.2,42.3,30.15,West,273,0.0,0.0,93,0.00,,SKC,0.00,VWS V14.01,2013-01-09 06:10:00,
2013-01-09 20:11:00,44.2,42.3,30.15,West,273,0.0,0.0,93,0.00,,SKC,0.00,VWS V14.01,2013-01-09 06:11:00,
2013-01-09 20:12:00,44.1,42.2,30.15,West,273,0.0,0.0,93,0.00,,SKC,0.00,VWS V14.01,2013-01-09 06:12:00,
2013-01-09 20:13:00,44.1,42.2,30.15,West,273,0.0,0.0,93,0.00,,SKC,0.00,VWS V14.01,2013-01-09 06:13:00,
2013-01-09 20:14:00,44.1,42.2,30.15,West,273,0.0,0.0,93,0.00,,SKC,0.00,VWS V14.01,2013-01-09 06:14:00,
2013-01-09 20:15:00,44.2,42.3,30.15,West,273,0.0,0.0,93,0.00,,SKC,0.00,VWS V14.01,2013-01-09 06:15:00,
2013-01-09 20:16:00,44.2,42.3,30.15,West,273,0.0,0.0,93,0.00,,SKC,0.00,VWS V14.01,2013-01-09 06:16:00,
2013-01-09 20:17:00,44.2,42.3,30.15,West,273,0.0,0.0,93,0.00,,SKC,0.00,VWS V14.01,2013-01-09 06:17:00,
2013-01-09 20:18:00,44.3,42.4,30.15,West,273,0.0,0.0,93,0.00,,SKC,0.00,VWS V14.01,2013-01-09 06:18:00,
2013-01-09 20:19:00,44.2,42.3,30.15,West,273,0.0,0.0,93,0.00,,SKC,0.00,VWS V14.01,2013-01-09 06:19:00,
2013-01-09 20:20:00,44.1,42.2,30.15,West,273,0.0,0.0,93,0.00,,SKC,0.00,VWS V14.01,2013-01-09 06:20:00,
2013-01-09 20:21:00,44.0,42.1,30.15,West,273,0.0,0.0,93,0.00,,SKC,0.00,VWS V14.01,2013-01-09 06:21:00,
2013-01-09 20:22:00,43.8,41.9,30.15,West,273,0.0,0.0,93,0.00,,SKC,0.00,VWS V14.01,2013-01-09 06:22:00,
2013-01-09 20:23:00,43.8,41.9,30.15,West,273,0.0,0.0,93,0.00,,SKC,0.00,VWS V14.01,2013-01-09 06:23:00,
2013-01-09 20:24:00,43.8,41.9,30.15,West,273,0.0,0.0,93,0.00,,SKC,0.00,VWS V14.01,2013-01-09 06:24:00,
2013-01-09 20:25:00,43.7,41.8,30.15,West,273,0.0,0.0,93,0.00,,SKC,0.00,VWS V14.01,2013-01-09 06:25:00,
2013-01-09 20:26:00,43.7,41.8,30.15,West,273,0.0,0.0,93,0.00,,SKC,0.00,VWS V14.01,2013-01-09 06:26:00,
2013-01-09 20:27:00,43.6,41.7,30.15,West,273,0.0,0.0,93,0.00,,SKC,0.00,VWS V14.01,2013-01-09 06:27:00,
2013-01-09 20:28:00,43.6,41.7,30.15,West,273,0.0,0.0,93,0.00,,SKC,0.00,VWS V14.01,2013-01-09 06:28:00,
2013-01-09 20:29:00,43.6,41.7,30.15,West,273,0.0,0.0,93,0.00,,SKC,0.00,VWS V14.01,2013-01-09 06:29:00,
2013-01-09 20:30:00,43.5,41.9,30.14,West,273,0.0,0.0,94,0.00,,SKC,0.00,VWS V14.01,2013-01-09 06:30:00,
2013-01-09 20:31:00,43.4,41.8,30.15,West,273,0.0,0.0,94,0.00,,SKC,0.00,VWS V14.01,2013-01-09 06:31:00,
2013-01-09 20:32:00,43.3,41.7,30.15,West,273,0.0,0.0,94,0.00,,SKC,0.00,VWS V14.01,2013-01-09 06:32:00,
2013-01-09 20:33:00,43.3,41.7,30.15,West,273,0.0,0.0,94,0.00,,SKC,0.00,VWS V14.01,2013-01-09 06:33:00,
2013-01-09 20:34:00,43.3,41.7,30.14,West,273,0.0,0.0,94,0.00,,SKC,0.00,VWS V14.01,2013-01-09 06:34:00,
2013-01-09 20:35:00,43.4,41.8,30.15,West,273,0.0,0.0,94,0.00,,SKC,0.00,VWS V14.01,2013-01-09 06:35:00,
2013-01-09 20:36:00,43.4,41.8,30.15,West,273,0.0,0.0,94,0.00,,SKC,0.00,VWS V14.01,2013-01-09 06:36:00,
2013-01-09 20:37:00,43.3,41.7,30.15,West,273,0.0,0.0,94,0.00,,SKC,0.00,VWS V14.01,2013-01-09 06:37:00,
2013-01-09 20:38:00,43.4,41.8,30.15,West,273,0.0,0.0,94,0.00,,SKC,0.00,VWS V14.01,2013-01-09 06:38:00,
2013-01-09 20:39:00,43.3,41.7,30.14,West,273,0.0,0.0,94,0.00,,SKC,0.00,VWS V14.01,2013-01-09 06:39:00,
2013-01-09 20:40:00,43.3,41.7,30.15,West,273,0.0,0.0,94,0.00,,SKC,0.00,VWS V14.01,2013-01-09 06:40:00,
2013-01-09 20:41:00,43.3,41.7,30.15,West,273,0.0,0.0,94,0.00,,SKC,0.00,VWS V14.01,2013-01-09 06:41:00,
2013-01-09 20:42:00,43.3,41.7,30.15,West,273,0.0,0.0,94,0.00,,SKC,0.00,VWS V14.01,2013-01-09 06:42:00,
2013-01-09 20:43:00,43.3,41.7,30.15,West,273,0.0,0.0,94,0.00,,SKC,0.00,VWS V14.01,2013-01-09 06:43:00,
2013-01-09 20:44:00,43.3,41.7,30.15,West,273,0.0,0.0,94,0.00,,SKC,0.00,VWS V14.01,2013-01-09 06:44:00,
2013-01-09 20:46:00,43.2,41.6,30.15,West,273,0.0,0.0,94,0.00,,SKC,0.00,VWS V14.01,2013-01-09 06:46:00,
2013-01-09 20:47:00,43.1,41.5,30.15,West,273,0.0,0.0,94,0.00,,SKC,0.00,VWS V14.01,2013-01-09 06:47:00,
2013-01-09 20:48:00,43.1,41.5,30.15,West,273,0.0,0.0,94,0.00,,SKC,0.00,VWS V14.01,2013-01-09 06:48:00,
2013-01-09 20:49:00,43.0,41.4,30.15,West,273,0.0,0.0,94,0.00,,SKC,0.00,VWS V14.01,2013-01-09 06:49:00,
2013-01-09 20:50:00,43.0,41.4,30.15,West,273,0.0,0.0,94,0.00,,SKC,0.00,VWS V14.01,2013-01-09 06:50:00,
2013-01-09 20:51:00,42.9,41.3,30.15,West,273,0.0,0.0,94,0.00,,SKC,0.00,VWS V14.01,2013-01-09 06:51:00,
2013-01-09 20:52:00,43.0,41.4,30.15,West,273,0.0,0.0,94,0.00,,SKC,0.00,VWS V14.01,2013-01-09 06:52:00,
2013-01-09 20:53:00,42.9,41.3,30.15,West,273,0.0,0.0,94,0.00,,SKC,0.00,VWS V14.01,2013-01-09 06:53:00,
2013-01-09 20:54:00,43.1,41.8,30.15,West,273,0.0,0.0,95,0.00,,SKC,0.00,VWS V14.01,2013-01-09 06:54:00,
2013-01-09 20:55:00,43.1,41.8,30.15,West,273,0.0,0.0,95,0.00,,SKC,0.00,VWS V14.01,2013-01-09 06:55:00,
2013-01-09 20:56:00,43.1,41.8,30.15,West,273,0.0,0.0,95,0.00,,SKC,0.00,VWS V14.01,2013-01-09 06:56:00,
2013-01-09 20:57:00,42.9,41.3,30.15,West,273,0.0,0.0,94,0.00,,SKC,0.00,VWS V14.01,2013-01-09 06:57:00,
2013-01-09 20:58:00,43.0,41.4,30.15,West,273,0.0,0.0,94,0.00,,SKC,0.00,VWS V14.01,2013-01-09 06:58:00,
2013-01-09 20:59:00,42.9,41.3,30.15,West,273,0.0,0.0,94,0.00,,SKC,0.00,VWS V14.01,2013-01-09 06:59:00,
2013-01-09 21:00:00,42.9,41.3,30.15,West,273,0.0,0.0,94,0.00,,SKC,0.00,VWS V14.01,2013-01-09 07:00:00,
2013-01-09 21:01:00,42.8,41.2,30.15,West,273,0.0,0.0,94,0.00,,SKC,0.00,VWS V14.01,2013-01-09 07:01:00,
2013-01-09 21:02:00,42.7,41.1,30.15,West,273,0.0,0.0,94,0.00,,SKC,0.00,VWS V14.01,2013-01-09 07:02:00,
2013-01-09 21:03:00,42.7,41.1,30.15,West,273,0.0,0.0,94,0.00,,SKC,0.00,VWS V14.01,2013-01-09 07:03:00,
2013-01-09 21:04:00,42.6,41.0,30.15,West,273,0.0,0.0,94,0.00,,SKC,0.00,VWS V14.01,2013-01-09 07:04:00,
2013-01-09 21:05:00,42.6,41.3,30.15,West,273,0.0,0.0,95,0.00,,SKC,0.00,VWS V14.01,2013-01-09 07:05:00,
2013-01-09 21:06:00,42.5,41.2,30.15,West,273,0.0,0.0,95,0.00,,SKC,0.00,VWS V14.01,2013-01-09 07:06:00,
2013-01-09 21:07:00,42.5,41.2,30.15,West,273,0.0,0.0,95,0.00,,SKC,0.00,VWS V14.01,2013-01-09 07:07:00,
2013-01-09 21:08:00,42.5,41.2,30.15,West,273,0.0,0.0,95,0.00,,SKC,0.00,VWS V14.01,2013-01-09 07:08:00,
2013-01-09 21:09:00,42.5,40.9,30.15,West,273,0.0,0.0,94,0.00,,SKC,0.00,VWS V14.01,2013-01-09 07:09:00,
2013-01-09 21:10:00,42.4,40.8,30.15,West,273,0.0,0.0,94,0.00,,SKC,0.00,VWS V14.01,2013-01-09 07:10:00,
2013-01-09 21:11:00,42.3,40.7,30.15,West,273,0.0,0.0,94,0.00,,SKC,0.00,VWS V14.01,2013-01-09 07:11:00,
2013-01-09 21:12:00,42.2,40.9,30.15,West,273,0.0,0.0,95,0.00,,SKC,0.00,VWS V14.01,2013-01-09 07:12:00,
2013-01-09 21:13:00,42.2,40.9,30.15,West,273,0.0,0.0,95,0.00,,SKC,0.00,VWS V14.01,2013-01-09 07:13:00,
2013-01-09 21:14:00,42.2,40.9,30.15,West,273,0.0,0.0,95,0.00,,SKC,0.00,VWS V14.01,2013-01-09 07:14:00,
2013-01-09 21:15:00,42.2,40.9,30.15,West,273,0.0,0.0,95,0.00,,SKC,0.00,VWS V14.01,2013-01-09 07:15:00,
2013-01-09 21:16:00,42.2,40.9,30.15,West,273,0.0,0.0,95,0.00,,SKC,0.00,VWS V14.01,2013-01-09 07:16:00,
2013-01-09 21:17:00,42.2,40.9,30.15,West,273,0.0,0.0,95,0.00,,SKC,0.00,VWS V14.01,2013-01-09 07:17:00,
2013-01-09 21:18:00,42.2,40.9,30.15,West,273,0.0,0.0,95,0.00,,SKC,0.00,VWS V14.01,2013-01-09 07:18:00,
2013-01-09 21:20:00,42.3,41.0,30.15,West,273,0.0,0.0,95,0.00,,SKC,0.00,VWS V14.01,2013-01-09 07:20:00,
2013-01-09 21:21:00,42.2,40.9,30.15,West,273,0.0,0.0,95,0.00,,SKC,0.00,VWS V14.01,2013-01-09 07:21:00,
2013-01-09 21:22:00,42.2,40.9,30.15,West,273,0.0,0.0,95,0.00,,SKC,0.00,VWS V14.01,2013-01-09 07:22:00,
2013-01-09 21:23:00,42.2,40.9,30.15,West,273,0.0,0.0,95,0.00,,SKC,0.00,VWS V14.01,2013-01-09 07:23:00,
2013-01-09 21:24:00,42.2,40.9,30.15,West,273,0.0,0.0,95,0.00,,SKC,0.00,VWS V14.01,2013-01-09 07:24:00,
2013-01-09 21:26:00,42.2,40.9,30.15,West,273,0.0,0.0,95,0.00,,SKC,0.00,VWS V14.01,2013-01-09 07:26:00,
2013-01-09 21:27:00,42.2,40.9,30.15,West,273,0.0,0.0,95,0.00,,SKC,0.00,VWS V14.01,2013-01-09 07:27:00,
2013-01-09 21:29:00,42.2,40.9,30.15,West,273,0.0,0.0,95,0.00,,SKC,0.00,VWS V14.01,2013-01-09 07:29:00,
2013-01-09 21:30:00,42.2,40.9,30.15,West,273,0.0,0.0,95,0.00,,SKC,0.00,VWS V14.01,2013-01-09 07:30:00,
2013-01-09 21:31:00,42.1,40.8,30.15,West,273,0.0,0.0,95,0.00,,SKC,0.00,VWS V14.01,2013-01-09 07:31:00,
2013-01-09 21:32:00,42.2,40.9,30.15,West,273,0.0,0.0,95,0.00,,SKC,0.00,VWS V14.01,2013-01-09 07:32:00,
2013-01-09 21:33:00,42.2,40.9,30.15,West,273,0.0,0.0,95,0.00,,SKC,0.00,VWS V14.01,2013-01-09 07:33:00,
2013-01-09 21:34:00,42.3,41.0,30.15,West,273,0.0,0.0,95,0.00,,SKC,0.00,VWS V14.01,2013-01-09 07:34:00,
2013-01-09 21:35:00,42.3,41.0,30.15,West,273,0.0,0.0,95,0.00,,SKC,0.00,VWS V14.01,2013-01-09 07:35:00,
2013-01-09 21:36:00,42.3,41.0,30.15,West,273,0.0,0.0,95,0.00,,SKC,0.00,VWS V14.01,2013-01-09 07:36:00,
2013-01-09 21:37:00,42.4,41.1,30.15,West,273,0.0,0.0,95,0.00,,SKC,0.00,VWS V14.01,2013-01-09 07:37:00,
2013-01-09 21:38:00,42.4,41.1,30.15,West,273,0.0,0.0,95,0.00,,SKC,0.00,VWS V14.01,2013-01-09 07:38:00,
2013-01-09 21:41:00,42.5,41.2,30.15,West,273,0.0,0.0,95,0.00,,SKC,0.00,VWS V14.01,2013-01-09 07:41:00,
2013-01-09 21:42:00,42.5,41.2,30.15,West,273,0.0,0.0,95,0.00,,SKC,0.00,VWS V14.01,2013-01-09 07:42:00,
2013-01-09 21:44:00,42.4,41.1,30.15,West,273,0.0,0.0,95,0.00,,SKC,0.00,VWS V14.01,2013-01-09 07:44:00,
2013-01-09 21:45:00,42.4,41.1,30.15,West,273,0.0,1.0,95,0.00,,SKC,0.00,VWS V14.01,2013-01-09 07:45:00,
2013-01-09 21:46:00,42.4,41.1,30.15,West,273,1.0,1.0,95,0.00,,SKC,0.00,VWS V14.01,2013-01-09 07:46:00,
2013-01-09 21:47:00,42.5,41.2,30.15,West,273,0.0,1.0,95,0.00,,SKC,0.00,VWS V14.01,2013-01-09 07:47:00,
2013-01-09 21:48:00,42.5,41.2,30.15,West,273,1.0,1.0,95,0.00,,SKC,0.00,VWS V14.01,2013-01-09 07:48:00,
2013-01-09 21:49:00,42.5,41.2,30.15,West,273,0.0,1.0,95,0.00,,SKC,0.00,VWS V14.01,2013-01-09 07:49:00,
2013-01-09 21:51:00,42.6,41.5,30.15,West,273,0.0,1.0,96,0.00,,SKC,0.00,VWS V14.01,2013-01-09 07:51:00,
2013-01-09 21:52:00,42.6,41.5,30.15,West,273,0.0,0.0,96,0.00,,SKC,0.00,VWS V14.01,2013-01-09 07:52:00,
2013-01-09 21:53:00,42.6,41.5,30.15,West,273,0.0,0.0,96,0.00,,SKC,0.00,VWS V14.01,2013-01-09 07:53:00,
2013-01-09 21:54:00,42.6,41.3,30.15,West,273,0.0,0.0,95,0.00,,SKC,0.00,VWS V14.01,2013-01-09 07:54:00,
2013-01-09 21:55:00,42.6,41.3,30.15,West,273,0.0,0.0,95,0.00,,SKC,0.00,VWS V14.01,2013-01-09 07:55:00,
2013-01-09 21:56:00,42.6,41.3,30.15,West,273,0.0,0.0,95,0.00,,SKC,0.00,VWS V14.01,2013-01-09 07:56:00,
2013-01-09 21:57:00,42.6,41.3,30.15,West,273,0.0,0.0,95,0.00,,SKC,0.00,VWS V14.01,2013-01-09 07:57:00,
2013-01-09 21:58:00,42.6,41.3,30.15,West,273,0.0,0.0,95,0.00,,SKC,0.00,VWS V14.01,2013-01-09 07:58:00,
2013-01-09 21:59:00,42.6,41.3,30.15,West,273,0.0,0.0,95,0.00,,SKC,0.00,VWS V14.01,2013-01-09 07:59:00,
2013-01-09 22:00:00,42.6,41.3,30.15,West,273,0.0,0.0,95,0.00,,SKC,0.00,VWS V14.01,2013-01-09 08:00:00,
2013-01-09 22:01:00,42.6,41.3,30.15,West,273,0.0,0.0,95,0.00,,SKC,0.00,VWS V14.01,2013-01-09 08:01:00,
2013-01-09 22:02:00,42.6,41.5,30.15,West,273,0.0,0.0,96,0.00,,SKC,0.00,VWS V14.01,2013-01-09 08:02:00,
2013-01-09 22:03:00,42.6,41.5,30.15,West,273,0.0,0.0,96,0.00,,SKC,0.00,VWS V14.01,2013-01-09 08:03:00,
2013-01-09 22:04:00,42.6,41.3,30.15,West,273,0.0,0.0,95,0.00,,SKC,0.00,VWS V14.01,2013-01-09 08:04:00,
2013-01-09 22:05:00,42.6,41.3,30.15,West,273,0.0,0.0,95,0.00,,SKC,0.00,VWS V14.01,2013-01-09 08:05:00,
2013-01-09 22:06:00,42.5,41.2,30.15,West,273,0.0,0.0,95,0.00,,SKC,0.00,VWS V14.01,2013-01-09 08:06:00,
2013-01-09 22:07:00,42.5,41.2,30.15,West,273,0.0,0.0,95,0.00,,SKC,0.00,VWS V14.01,2013-01-09 08:07:00,
2013-01-09 22:08:00,42.5,41.2,30.15,West,273,0.0,0.0,95,0.00,,SKC,0.00,VWS V14.01,2013-01-09 08:08:00,
2013-01-09 22:10:00,42.4,41.1,30.15,West,273,0.0,0.0,95,0.00,,SKC,0.00,VWS V14.01,2013-01-09 08:10:00,
2013-01-09 22:11:00,42.4,41.1,30.15,West,273,0.0,0.0,95,0.00,,SKC,0.00,VWS V14.01,2013-01-09 08:11:00,
2013-01-09 22:12:00,42.4,41.3,30.15,West,273,0.0,0.0,96,0.00,,SKC,0.00,VWS V14.01,2013-01-09 08:12:00,
2013-01-09 22:13:00,42.4,41.3,30.15,West,273,0.0,0.0,96,0.00,,SKC,0.00,VWS V14.01,2013-01-09 08:13:00,
2013-01-09 22:14:00,42.5,41.4,30.15,West,273,0.0,0.0,96,0.00,,SKC,0.00,VWS V14.01,2013-01-09 08:14:00,
2013-01-09 22:15:00,42.5,41.4,30.15,West,273,0.0,0.0,96,0.00,,SKC,0.00,VWS V14.01,2013-01-09 08:15:00,
2013-01-09 22:16:00,42.5,41.4,30.15,West,273,0.0,0.0,96,0.00,,SKC,0.00,VWS V14.01,2013-01-09 08:16:00,
2013-01-09 22:17:00,42.4,41.1,30.15,West,273,0.0,0.0,95,0.00,,SKC,0.00,VWS V14.01,2013-01-09 08:17:00,
2013-01-09 22:18:00,42.4,41.3,30.15,West,273,0.0,0.0,96,0.00,,SKC,0.00,VWS V14.01,2013-01-09 08:18:00,
2013-01-09 22:19:00,42.4,41.1,30.15,West,273,0.0,0.0,95,0.00,,SKC,0.00,VWS V14.01,2013-01-09 08:19:00,
2013-01-09 22:20:00,42.4,41.3,30.15,West,273,0.0,0.0,96,0.00,,SKC,0.00,VWS V14.01,2013-01-09 08:20:00,
2013-01-09 22:21:00,42.4,41.3,30.15,West,273,0.0,0.0,96,0.00,,SKC,0.00,VWS V14.01,2013-01-09 08:21:00,
2013-01-09 22:22:00,42.6,41.5,30.15,West,273,0.0,0.0,96,0.00,,SKC,0.00,VWS V14.01,2013-01-09 08:22:00,
2013-01-09 22:23:00,42.5,41.4,30.15,West,273,0.0,0.0,96,0.00,,SKC,0.00,VWS V14.01,2013-01-09 08:23:00,
2013-01-09 22:24:00,42.6,41.5,30.15,West,273,0.0,0.0,96,0.00,,SKC,0.00,VWS V14.01,2013-01-09 08:24:00,
2013-01-09 22:25:00,42.7,41.6,30.15,West,273,0.0,0.0,96,0.00,,SKC,0.00,VWS V14.01,2013-01-09 08:25:00,
2013-01-09 22:26:00,42.7,41.6,30.15,West,273,0.0,0.0,96,0.00,,SKC,0.00,VWS V14.01,2013-01-09 08:26:00,
2013-01-09 22:27:00,42.8,41.7,30.15,West,273,0.0,0.0,96,0.00,,SKC,0.00,VWS V14.01,2013-01-09 08:27:00,
2013-01-09 22:28:00,42.9,41.8,30.15,West,273,0.0,0.0,96,0.00,,SKC,0.00,VWS V14.01,2013-01-09 08:28:00,
2013-01-09 22:29:00,42.9,41.8,30.15,West,273,0.0,0.0,96,0.00,,SKC,0.00,VWS V14.01,2013-01-09 08:29:00,
2013-01-09 22:30:00,42.8,41.7,30.15,West,273,0.0,0.0,96,0.00,,SKC,0.00,VWS V14.01,2013-01-09 08:30:00,
2013-01-09 22:31:00,42.8,41.7,30.15,West,273,0.0,0.0,96,0.00,,SKC,0.00,VWS V14.01,2013-01-09 08:31:00,
2013-01-09 22:32:00,42.6,41.3,30.15,West,273,0.0,0.0,95,0.00,,SKC,0.00,VWS V14.01,2013-01-09 08:32:00,
2013-01-09 22:33:00,42.5,41.2,30.15,West,273,0.0,0.0,95,0.00,,SKC,0.00,VWS V14.01,2013-01-09 08:33:00,
2013-01-09 22:34:00,42.5,41.2,30.15,West,273,0.0,0.0,95,0.00,,SKC,0.00,VWS V14.01,2013-01-09 08:34:00,
2013-01-09 22:35:00,42.4,41.1,30.15,West,273,0.0,0.0,95,0.00,,SKC,0.00,VWS V14.01,2013-01-09 08:35:00,
2013-01-09 22:36:00,42.4,41.1,30.15,West,273,0.0,0.0,95,0.00,,SKC,0.00,VWS V14.01,2013-01-09 08:36:00,
2013-01-09 22:37:00,42.3,41.0,30.15,West,273,0.0,0.0,95,0.00,,SKC,0.00,VWS V14.01,2013-01-09 08:37:00,
2013-01-09 22:38:00,42.3,41.0,30.15,West,273,0.0,0.0,95,0.00,,SKC,0.00,VWS V14.01,2013-01-09 08:38:00,
2013-01-09 22:39:00,42.2,40.9,30.15,West,273,0.0,0.0,95,0.00,,SKC,0.00,VWS V14.01,2013-01-09 08:39:00,
2013-01-09 22:40:00,42.2,40.9,30.15,West,273,0.0,0.0,95,0.00,,SKC,0.00,VWS V14.01,2013-01-09 08:40:00,
2013-01-09 22:41:00,42.1,40.8,30.15,West,273,0.0,0.0,95,0.00,,SKC,0.00,VWS V14.01,2013-01-09 08:41:00,
2013-01-09 22:42:00,41.9,40.6,30.15,West,273,0.0,0.0,95,0.00,,SKC,0.00,VWS V14.01,2013-01-09 08:42:00,
2013-01-09 22:43:00,42.0,40.7,30.15,West,273,0.0,0.0,95,0.00,,SKC,0.00,VWS V14.01,2013-01-09 08:43:00,
2013-01-09 22:44:00,41.9,40.6,30.15,West,273,0.0,0.0,95,0.00,,SKC,0.00,VWS V14.01,2013-01-09 08:44:00,
2013-01-09 22:45:00,41.9,40.6,30.15,West,273,0.0,0.0,95,0.00,,SKC,0.00,VWS V14.01,2013-01-09 08:45:00,
2013-01-09 22:46:00,41.8,40.5,30.14,West,273,0.0,0.0,95,0.00,,SKC,0.00,VWS V14.01,2013-01-09 08:46:00,
2013-01-09 22:47:00,41.9,40.8,30.14,West,273,0.0,0.0,96,0.00,,SKC,0.00,VWS V14.01,2013-01-09 08:47:00,
2013-01-09 22:48:00,41.8,40.8,30.14,West,273,0.0,0.0,96,0.00,,SKC,0.00,VWS V14.01,2013-01-09 08:48:00,
2013-01-09 22:49:00,41.9,40.8,30.14,West,273,0.0,0.0,96,0.00,,SKC,0.00,VWS V14.01,2013-01-09 08:49:00,
2013-01-09 22:50:00,41.9,40.8,30.14,West,273,0.0,0.0,96,0.00,,SKC,0.00,VWS V14.01,2013-01-09 08:50:00,
2013-01-09 22:51:00,41.9,40.8,30.14,West,273,0.0,0.0,96,0.00,,SKC,0.00,VWS V14.01,2013-01-09 08:51:00,
2013-01-09 22:52:00,41.8,40.8,30.14,West,273,0.0,0.0,96,0.00,,SKC,0.00,VWS V14.01,2013-01-09 08:52:00,
2013-01-09 22:53:00,41.8,40.8,30.14,West,273,0.0,0.0,96,0.00,,SKC,0.00,VWS V14.01,2013-01-09 08:53:00,
2013-01-09 22:54:00,41.8,40.8,30.14,West,273,0.0,0.0,96,0.00,,SKC,0.00,VWS V14.01,2013-01-09 08:54:00,
2013-01-09 22:56:00,41.9,40.8,30.14,West,273,0.0,0.0,96,0.00,,SKC,0.00,VWS V14.01,2013-01-09 08:56:00,
2013-01-09 22:57:00,41.9,40.8,30.14,West,273,1.0,1.0,96,0.00,,SKC,0.00,VWS V14.01,2013-01-09 08:57:00,
2013-01-09 22:58:00,41.9,40.8,30.14,West,273,1.0,2.0,96,0.00,,SKC,0.00,VWS V14.01,2013-01-09 08:58:00,
2013-01-09 22:59:00,42.0,40.9,30.14,West,273,0.0,1.0,96,0.00,,SKC,0.00,VWS V14.01,2013-01-09 08:59:00,
2013-01-09 23:00:00,42.1,41.0,30.14,West,273,0.0,2.0,96,0.00,,SKC,0.00,VWS V14.01,2013-01-09 09:00:00,
2013-01-09 23:01:00,42.2,41.1,30.14,West,273,1.0,2.0,96,0.00,,SKC,0.00,VWS V14.01,2013-01-09 09:01:00,
2013-01-09 23:02:00,42.3,41.2,30.14,West,273,2.0,2.0,96,0.00,,SKC,0.00,VWS V14.01,2013-01-09 09:02:00,
2013-01-09 23:04:00,42.4,41.3,30.14,West,273,1.0,2.0,96,0.00,,SKC,0.00,VWS V14.01,2013-01-09 09:04:00,
2013-01-09 23:05:00,42.5,41.4,30.14,West,273,0.0,1.0,96,0.00,,SKC,0.00,VWS V14.01,2013-01-09 09:05:00,
2013-01-09 23:06:00,42.5,41.4,30.14,West,273,0.0,0.0,96,0.00,,SKC,0.00,VWS V14.01,2013-01-09 09:06:00,
2013-01-09 23:07:00,42.5,41.4,30.14,West,273,0.0,0.0,96,0.00,,SKC,0.00,VWS V14.01,2013-01-09 09:07:00,
2013-01-09 23:08:00,42.5,41.4,30.14,West,273,0.0,0.0,96,0.00,,SKC,0.00,VWS V14.01,2013-01-09 09:08:00,
2013-01-09 23:09:00,42.6,41.5,30.14,West,273,0.0,0.0,96,0.00,,SKC,0.00,VWS V14.01,2013-01-09 09:09:00,
2013-01-09 23:10:00,42.7,41.6,30.14,West,273,0.0,0.0,96,0.00,,SKC,0.00,VWS V14.01,2013-01-09 09:10:00,
2013-01-09 23:11:00,42.7,41.6,30.14,West,273,0.0,0.0,96,0.00,,SKC,0.00,VWS V14.01,2013-01-09 09:11:00,
2013-01-09 23:12:00,42.5,41.4,30.14,West,273,0.0,0.0,96,0.00,,SKC,0.00,VWS V14.01,2013-01-09 09:12:00,
2013-01-09 23:13:00,42.6,41.5,30.14,West,273,0.0,0.0,96,0.00,,SKC,0.00,VWS V14.01,2013-01-09 09:13:00,
2013-01-09 23:14:00,42.5,41.4,30.14,West,273,0.0,0.0,96,0.00,,SKC,0.00,VWS V14.01,2013-01-09 09:14:00,
2013-01-09 23:15:00,42.4,41.3,30.14,West,273,0.0,0.0,96,0.00,,SKC,0.00,VWS V14.01,2013-01-09 09:15:00,
2013-01-09 23:16:00,42.3,41.2,30.14,West,273,0.0,0.0,96,0.00,,SKC,0.00,VWS V14.01,2013-01-09 09:16:00,
2013-01-09 23:17:00,42.2,40.9,30.14,West,273,0.0,0.0,95,0.00,,SKC,0.00,VWS V14.01,2013-01-09 09:17:00,
2013-01-09 23:18:00,42.2,40.9,30.14,West,273,0.0,0.0,95,0.00,,SKC,0.00,VWS V14.01,2013-01-09 09:18:00,
2013-01-09 23:19:00,42.2,40.9,30.14,West,273,0.0,0.0,95,0.00,,SKC,0.00,VWS V14.01,2013-01-09 09:19:00,
2013-01-09 23:20:00,42.2,41.1,30.14,West,273,0.0,0.0,96,0.00,,SKC,0.00,VWS V14.01,2013-01-09 09:20:00,
2013-01-09 23:21:00,42.2,41.1,30.14,West,273,0.0,0.0,96,0.00,,SKC,0.00,VWS V14.01,2013-01-09 09:21:00,
2013-01-09 23:22:00,42.1,41.0,30.14,West,273,0.0,0.0,96,0.00,,SKC,0.00,VWS V14.01,2013-01-09 09:22:00,
2013-01-09 23:23:00,42.2,41.1,30.14,West,273,0.0,0.0,96,0.00,,SKC,0.00,VWS V14.01,2013-01-09 09:23:00,
2013-01-09 23:24:00,42.1,41.0,30.14,West,273,0.0,0.0,96,0.00,,SKC,0.00,VWS V14.01,2013-01-09 09:24:00,
2013-01-09 23:25:00,42.1,41.0,30.14,West,273,0.0,0.0,96,0.00,,SKC,0.00,VWS V14.01,2013-01-09 09:25:00,
2013-01-09 23:27:00,42.1,41.0,30.14,West,273,0.0,0.0,96,0.00,,SKC,0.00,VWS V14.01,2013-01-09 09:27:00,
2013-01-09 23:28:00,42.1,41.0,30.14,West,273,0.0,0.0,96,0.00,,SKC,0.00,VWS V14.01,2013-01-09 09:28:00,
2013-01-09 23:29:00,42.1,41.0,30.14,West,273,0.0,0.0,96,0.00,,SKC,0.00,VWS V14.01,2013-01-09 09:29:00,
2013-01-09 23:30:00,42.1,41.0,30.14,West,273,0.0,0.0,96,0.00,,SKC,0.00,VWS V14.01,2013-01-09 09:30:00,
2013-01-09 23:31:00,42.1,41.0,30.14,West,273,0.0,0.0,96,0.00,,SKC,0.00,VWS V14.01,2013-01-09 09:31:00,
2013-01-09 23:32:00,42.1,41.0,30.15,West,273,0.0,0.0,96,0.00,,SKC,0.00,VWS V14.01,2013-01-09 09:32:00,
2013-01-09 23:33:00,42.1,41.0,30.15,West,273,0.0,0.0,96,0.00,,SKC,0.00,VWS V14.01,2013-01-09 09:33:00,
2013-01-09 23:34:00,42.0,40.9,30.15,West,273,0.0,0.0,96,0.00,,SKC,0.00,VWS V14.01,2013-01-09 09:34:00,
2013-01-09 23:35:00,42.0,40.9,30.15,West,273,0.0,0.0,96,0.00,,SKC,0.00,VWS V14.01,2013-01-09 09:35:00,
2013-01-09 23:36:00,42.0,40.9,30.15,West,273,0.0,0.0,96,0.00,,SKC,0.00,VWS V14.01,2013-01-09 09:36:00,
2013-01-09 23:37:00,42.0,40.9,30.15,West,273,0.0,0.0,96,0.00,,SKC,0.00,VWS V14.01,2013-01-09 09:37:00,
2013-01-09 23:38:00,42.0,40.9,30.15,West,273,0.0,0.0,96,0.00,,SKC,0.00,VWS V14.01,2013-01-09 09:38:00,
2013-01-09 23:39:00,42.0,40.9,30.14,West,273,0.0,0.0,96,0.00,,SKC,0.00,VWS V14.01,2013-01-09 09:39:00,
2013-01-09 23:40:00,42.0,40.9,30.14,West,273,0.0,0.0,96,0.00,,SKC,0.00,VWS V14.01,2013-01-09 09:40:00,
2013-01-09 23:41:00,42.0,40.9,30.14,West,273,0.0,0.0,96,0.00,,SKC,0.00,VWS V14.01,2013-01-09 09:41:00,
2013-01-09 23:42:00,42.1,41.0,30.14,West,273,0.0,0.0,96,0.00,,SKC,0.00,VWS V14.01,2013-01-09 09:42:00,
2013-01-09 23:43:00,42.1,41.0,30.14,West,273,0.0,0.0,96,0.00,,SKC,0.00,VWS V14.01,2013-01-09 09:43:00,
2013-01-09 23:44:00,42.0,40.9,30.13,West,273,0.0,0.0,96,0.00,,SKC,0.00,VWS V14.01,2013-01-09 09:44:00,
2013-01-09 23:45:00,41.9,40.8,30.14,West,273,0.0,0.0,96,0.00,,SKC,0.00,VWS V14.01,2013-01-09 09:45:00,
2013-01-09 23:46:00,41.9,40.8,30.14,West,273,0.0,0.0,96,0.00,,SKC,0.00,VWS V14.01,2013-01-09 09:46:00,
2013-01-09 23:47:00,41.8,40.8,30.14,West,273,0.0,1.0,96,0.00,,SKC,0.00,VWS V14.01,2013-01-09 09:47:00,
2013-01-09 23:48:00,41.9,40.8,30.14,West,273,1.0,1.0,96,0.00,,SKC,0.00,VWS V14.01,2013-01-09 09:48:00,
2013-01-09 23:49:00,41.8,40.8,30.14,West,273,1.0,3.0,96,0.00,,SKC,0.00,VWS V14.01,2013-01-09 09:49:00,
2013-01-09 23:50:00,41.8,40.8,30.14,West,273,2.0,2.0,96,0.00,,SKC,0.00,VWS V14.01,2013-01-09 09:50:00,
2013-01-09 23:51:00,41.8,40.8,30.14,West,273,1.0,3.0,96,0.00,,SKC,0.00,VWS V14.01,2013-01-09 09:51:00,
2013-01-09 23:52:00,41.9,40.8,30.14,West,273,0.0,0.0,96,0.00,,SKC,0.00,VWS V14.01,2013-01-09 09:52:00,
2013-01-09 23:53:00,41.9,40.8,30.14,West,273,0.0,0.0,96,0.00,,SKC,0.00,VWS V14.01,2013-01-09 09:53:00,
2013-01-09 23:54:00,42.0,40.9,30.14,West,273,0.0,0.0,96,0.00,,SKC,0.00,VWS V14.01,2013-01-09 09:54:00,
2013-01-09 23:55:00,42.0,40.9,30.14,West,273,0.0,0.0,96,0.00,,SKC,0.00,VWS V14.01,2013-01-09 09:55:00,
2013-01-09 23:56:00,42.1,41.0,30.14,West,273,0.0,1.0,96,0.00,,SKC,0.00,VWS V14.01,2013-01-09 09:56:00,
2013-01-09 23:57:00,42.0,40.9,30.14,West,273,0.0,0.0,96,0.00,,SKC,0.00,VWS V14.01,2013-01-09 09:57:00,
2013-01-09 23:58:00,42.1,41.0,30.14,West,273,0.0,1.0,96,0.00,,SKC,0.00,VWS V14.01,2013-01-09 09:58:00,
2013-01-09 23:59:00,42.0,40.9,30.14,West,273,0.0,1.0,96,0.00,,SKC,0.00,VWS V14.01,2013-01-09 09:59:00,